[[{"header":{"parameterUnit":"m.s-1","parameterCategory":1,"la1":31.0,"la2":29.5877,"lo1":-88.7671,"lo2":-86.6584,"dy":0.0162,"dx":0.0185,"nx":115,"ny":88,"refTime":"2024-05-13T12:00:00:Z","depth":0,"parameterNumber":2,"parameterNumberName":"U-component_of_WINDS"},"data":[0.0,0.0,0.0,0.0,0.0,0.0,0.0,0.0,0.0,0.0,0.0,0.0,0.0,0.0,0.0,0.0,0.0,0.0,0.0,0.0,0.0,0.0,0.0,0.0,0.0,0.0,0.0,0.0,0.0,0.0,0.0,0.0,0.0,0.0,0.0,0.0,0.0,0.0,0.0,0.0,0.0,0.0,0.0,0.0,0.0,0.0,0.0,0.0,0.0,0.0,0.0,0.0,0.0,0.0,0.0,0.0,0.0,0.0,0.0,0.0,0.0,0.0,0.0,0.0,0.0,0.0,0.0,0.0,0.0,0.0,0.0,0.0,0.0,0.0,0.0,0.0,0.0,0.0,0.0,0.0,0.0,0.0,0.0,0.0,0.0,0.0,0.0,0.0,0.0,0.0,0.0,0.0,0.0,0.0,0.0,0.0,0.0,0.0,0.0,0.0,0.0,0.0,0.0,0.0,0.0,0.0,0.0,0.0,0.0,0.0,0.0,0.0,0.0,0.0,0.0,0.0,0.0,0.0,0.0,0.0,0.0,0.0,0.0,0.0,0.0,0.0,0.0,0.0,0.0,0.0,0.0,0.0,0.0,0.0,0.0,0.0,0.0,0.0,0.0,0.0,0.0,0.0,0.0,0.0,0.0,0.0,0.0,0.0,0.0,0.0,0.0,0.0,0.0,0.0,0.0,0.0,0.0,0.0,0.0,0.0,0.0,0.0,0.0,0.0,0.0,0.0,0.0,0.0,0.0,0.0,0.0,0.0,0.0,0.0,0.0,0.0,0.0,0.0,0.0,0.0,0.0,0.0,0.0,0.0,0.0,0.0,0.0,0.0,0.0,0.0,0.0,0.0,0.0,0.0,0.0,0.0,0.0,0.0,0.0,0.0,0.0,0.0,0.0,0.0,0.0,0.0,0.0,0.0,0.0,0.0,0.0,0.0,0.0,0.0,0.0,0.0,0.0,0.0,0.0,0.0,0.0,0.0,0.0,0.0,0.0,0.0,0.0,0.0,0.0,0.0,0.0,0.0,0.0,0.0,0.0,0.0,0.0,0.0,0.0,0.0,0.0,0.0,0.0,0.0,0.0,0.0,0.0,0.0,0.0,0.0,0.0,0.0,0.0,0.0,0.0,0.0,0.0,0.0,0.0,0.0,0.0,0.0,0.0,0.0,0.0,0.0,0.0,0.0,0.0,0.0,0.0,0.0,0.0,0.0,0.0,0.0,0.0,0.0,0.0,0.0,0.0,0.0,0.0,0.0,0.0,0.0,0.0,0.0,0.0,0.0,0.0,0.0,0.0,0.0,0.0,0.0,0.0,0.0,0.0,0.0,0.0,0.0,0.0,0.0,0.0,0.0,0.0,0.0,0.0,0.0,0.0,0.0,0.0,0.0,0.0,0.0,0.0,0.0,0.0,0.0,0.0,0.0,0.0,0.0,0.0,0.0,0.0,0.0,0.0,0.0,0.0,0.0,0.0,0.0,0.0,0.0,0.0,0.0,0.0,0.0,0.0,0.0,0.0,0.0,0.0,0.0,0.0,0.0,0.0,0.0,0.0,0.0,0.0,0.0,0.0,0.0,0.0,0.0,0.0,0.0,0.0,0.0,0.0,0.0,0.0,0.0,0.0,0.0,0.0,0.0,0.0,0.0,0.0,0.0,0.0,0.0,0.0,0.0,0.0,0.0,0.0,0.0,0.0,0.0,0.0,0.0,0.0,0.0,0.0,0.0,0.0,0.0,0.0,0.0,0.0,0.0,0.0,0.0,0.0,0.0,0.0,0.0,0.0,0.0,0.0,0.0,0.0,0.0,0.0,0.0,0.0,0.0,0.0,0.0,0.0,0.0,0.0,0.0,0.0,0.0,0.0,0.0,0.0,0.0,0.0,0.0,0.0,0.0,0.0,0.0,0.0,0.0,0.0,0.0,0.0,0.0,0.0,0.0,0.0,0.0,0.0,0.0,0.0,0.0,0.0,0.0,0.0,0.0,0.0,0.0,0.0,0.0,0.0,0.0,0.0,0.0,0.0,0.0,0.0,0.0,0.0,0.0,0.0,0.0,0.0,0.0,0.0,0.0,0.0,0.0,0.0,0.0,0.0,0.0,0.0,0.0,0.0,0.0,0.0,0.0,0.0,0.0,0.0,0.0,0.0,0.0,0.0,0.0,0.0,0.0,0.0,0.0,0.0,0.0,0.0,0.0,0.0,0.0,0.0,0.0,0.0,0.0,0.0,0.0,0.0,0.0,0.0,0.0,0.0,0.0,0.0,0.0,0.0,0.0,0.0,0.0,0.0,0.0,0.0,0.0,0.0,0.0,0.0,0.0,0.0,0.0,0.0,0.0,0.0,0.0,0.0,0.0,0.0,0.0,0.0,0.0,0.0,0.0,0.0,0.0,0.0,0.0,0.0,0.0,0.0,0.0,0.0,0.0,0.0,0.0,0.0,0.0,0.0,0.0,0.0,0.0,0.0,0.0,0.0,0.0,0.0,0.0,0.0,0.0,0.0,0.0,0.0,0.0,0.0,0.0,0.0,0.0,0.0,0.0,0.0,0.0,0.0,0.0,0.0,0.0,0.0,0.0,0.0,0.0,0.0,0.0,0.0,0.0,0.0,0.0,0.0,0.0,0.0,0.0,0.0,0.0,0.0,0.0,0.0,0.0,0.0,0.0,0.0,0.0,0.0,0.0,0.0,0.0,0.0,0.0,0.0,0.0,0.0,0.0,0.0,0.0,0.0,0.0,0.0,0.0,0.0,0.0,0.0,0.0,0.0,0.0,0.0,0.0,0.0,0.0,0.0,0.0,0.0,0.0,0.0,0.0,0.0,0.0,0.0,0.0,0.0,0.0,0.0,0.0,0.0,0.0,0.0,0.0,0.0,0.0,0.0,0.0,0.0,0.0,0.0,0.0,0.0,0.0,0.0,0.0,0.0,0.0,0.0,0.0,0.0,0.0,0.0,0.0,0.0,0.0,0.0,0.0,0.0,0.0,0.0,0.0,0.0,0.0,0.0,0.0,0.0,0.0,0.0,0.0,0.0,0.0,0.0,0.0,0.0,0.0,0.0,0.0,0.0,0.0,0.0,0.0,0.0,0.0,0.0,0.0,0.0,0.0,0.0,0.0,0.0,0.0,0.0,0.0,0.0,0.0,0.0,0.0,0.0,0.0,0.0,0.0,0.0,0.0,0.0,0.0,0.0,0.0,0.0,0.0,0.0,0.0,0.0,0.0,0.0,0.0,0.0,0.0,0.0,0.0,0.0,0.0,0.0,0.0,0.0,0.0,0.0,0.0,0.0,0.0,0.0,0.0,0.0,0.0,0.0,0.0,0.0,0.0,0.0,0.0,0.0,0.0,0.0,0.0,0.0,0.0,0.0,0.0,0.0,0.0,0.0,0.0,0.0,0.0,0.0,0.0,0.0,0.0,0.0,0.0,0.0,0.0,0.0,0.0,0.0,0.0,0.0,0.0,0.0,0.0,0.0,0.0,0.0,0.0,0.0,0.0,0.0,0.0,0.0,0.0,0.0,0.0,0.0,0.0,0.0,0.0,0.0,0.0,0.0,0.0,0.0,0.0,0.0,0.0,0.0,0.0,0.0,0.0,0.0,0.0,0.0,0.0,0.0,0.0,0.0,0.0,0.0,0.0,0.0,0.0,0.0,0.0,0.0,0.0,0.0,0.0,0.0,0.0,0.0,0.0,0.0,0.0,0.0,0.0,0.0,0.0,0.0,0.0,0.0,0.0,0.0,0.0,0.0,0.0,0.0,0.0,0.0,0.0,0.0,0.0,0.0,0.0,0.0,0.0,0.0,0.0,0.0,0.0,0.0,0.0,0.0,0.0,0.0,0.0,0.0,0.0,0.0,0.0,0.0,0.0,0.0,0.0,0.0,0.0,0.0,0.0,0.0,0.0,0.0,0.0,0.0,0.0,0.0,0.0,0.0,0.0,0.0,0.0,0.0,0.0,0.0,0.0,0.0,0.0,0.0,0.0,0.0,0.0,0.0,0.0,0.0,0.0,0.0,0.0,0.0,0.0,0.0,0.0,0.0,0.0,0.0,0.0,0.0,0.0,0.0,0.0,0.0,0.0,0.0,0.0,0.0,0.0,0.0,0.0,0.0,0.0,0.0,0.0,0.0,0.0,0.0,0.0,0.0,0.0,0.0,0.0,0.0,0.0,0.0,0.0,0.0,0.0,0.0,0.0,0.0,0.0,0.0,0.0,0.0,0.0,0.0,0.0,0.0,0.0,0.0,0.0,0.0,0.0,-5.4394,0.0,0.0,0.0,-5.582,0.0,0.0,0.0,0.0,0.0,0.0,0.0,0.0,0.0,0.0,0.0,0.0,0.0,0.0,0.0,0.0,0.0,0.0,0.0,0.0,0.0,0.0,0.0,0.0,0.0,0.0,0.0,0.0,0.0,0.0,0.0,0.0,0.0,0.0,0.0,0.0,0.0,0.0,0.0,0.0,0.0,0.0,0.0,0.0,0.0,0.0,0.0,0.0,0.0,0.0,0.0,0.0,0.0,0.0,0.0,0.0,0.0,0.0,0.0,0.0,0.0,0.0,0.0,0.0,0.0,0.0,0.0,0.0,0.0,0.0,0.0,0.0,0.0,0.0,0.0,0.0,0.0,0.0,0.0,0.0,0.0,0.0,0.0,0.0,0.0,0.0,0.0,0.0,0.0,0.0,0.0,0.0,0.0,0.0,0.0,0.0,0.0,0.0,0.0,0.0,0.0,0.0,0.0,0.0,0.0,0.0,0.0,0.0,0.0,0.0,-5.4301,-5.5729,-5.5037,-5.4959,-5.5688,0.0,0.0,0.0,0.0,0.0,0.0,0.0,0.0,0.0,0.0,0.0,0.0,0.0,0.0,0.0,0.0,0.0,0.0,0.0,0.0,0.0,0.0,0.0,0.0,0.0,0.0,0.0,0.0,0.0,0.0,0.0,0.0,0.0,0.0,0.0,0.0,0.0,0.0,0.0,0.0,0.0,0.0,0.0,0.0,0.0,0.0,0.0,0.0,0.0,0.0,0.0,0.0,0.0,0.0,0.0,0.0,0.0,0.0,0.0,0.0,0.0,0.0,0.0,0.0,0.0,0.0,0.0,0.0,0.0,0.0,0.0,0.0,0.0,0.0,0.0,0.0,0.0,0.0,0.0,0.0,0.0,0.0,0.0,0.0,0.0,0.0,0.0,0.0,0.0,0.0,0.0,0.0,0.0,0.0,0.0,0.0,0.0,0.0,0.0,0.0,0.0,0.0,0.0,0.0,0.0,0.0,0.0,0.0,0.0,0.0,0.0,0.0,-5.5547,-5.5346,-5.5611,0.0,0.0,0.0,0.0,0.0,0.0,0.0,0.0,0.0,0.0,0.0,0.0,0.0,0.0,0.0,0.0,0.0,0.0,0.0,0.0,0.0,0.0,0.0,0.0,0.0,0.0,0.0,0.0,0.0,0.0,0.0,0.0,0.0,0.0,0.0,0.0,0.0,0.0,0.0,0.0,0.0,0.0,0.0,0.0,0.0,0.0,0.0,0.0,0.0,0.0,0.0,0.0,0.0,0.0,0.0,0.0,0.0,0.0,0.0,0.0,0.0,0.0,0.0,0.0,0.0,0.0,0.0,0.0,0.0,0.0,0.0,0.0,0.0,0.0,0.0,0.0,0.0,0.0,0.0,0.0,0.0,0.0,0.0,0.0,0.0,0.0,0.0,0.0,0.0,0.0,0.0,0.0,0.0,0.0,0.0,0.0,0.0,0.0,0.0,0.0,0.0,0.0,0.0,0.0,0.0,0.0,0.0,0.0,0.0,0.0,-5.5266,-5.8711,-5.8711,0.0,-5.7453,0.0,0.0,0.0,0.0,0.0,0.0,0.0,0.0,0.0,0.0,0.0,0.0,0.0,0.0,0.0,0.0,0.0,0.0,0.0,0.0,0.0,0.0,0.0,0.0,0.0,0.0,0.0,0.0,0.0,0.0,0.0,0.0,0.0,0.0,0.0,0.0,0.0,0.0,0.0,0.0,0.0,0.0,0.0,0.0,0.0,0.0,0.0,0.0,0.0,0.0,0.0,0.0,0.0,0.0,0.0,0.0,0.0,0.0,0.0,0.0,0.0,0.0,0.0,0.0,0.0,0.0,0.0,0.0,0.0,0.0,0.0,0.0,0.0,0.0,0.0,0.0,0.0,0.0,0.0,0.0,0.0,0.0,0.0,0.0,0.0,0.0,0.0,0.0,0.0,0.0,0.0,0.0,0.0,0.0,0.0,0.0,0.0,0.0,0.0,0.0,0.0,0.0,0.0,0.0,0.0,0.0,0.0,0.0,0.0,0.0,-5.5015,-5.8225,-5.8705,-5.8061,0.0,0.0,0.0,0.0,0.0,0.0,0.0,0.0,0.0,0.0,0.0,0.0,0.0,0.0,0.0,0.0,0.0,0.0,0.0,0.0,0.0,0.0,0.0,0.0,0.0,0.0,0.0,0.0,0.0,0.0,0.0,0.0,0.0,0.0,0.0,0.0,0.0,0.0,0.0,0.0,0.0,0.0,0.0,0.0,0.0,0.0,0.0,0.0,0.0,0.0,0.0,0.0,0.0,0.0,0.0,0.0,0.0,0.0,0.0,0.0,0.0,0.0,0.0,0.0,0.0,0.0,0.0,0.0,0.0,0.0,0.0,0.0,0.0,0.0,0.0,0.0,0.0,0.0,0.0,0.0,0.0,0.0,0.0,0.0,0.0,0.0,0.0,0.0,0.0,0.0,0.0,0.0,0.0,0.0,0.0,0.0,0.0,0.0,0.0,0.0,0.0,0.0,0.0,0.0,0.0,0.0,0.0,0.0,0.0,0.0,-5.3719,-5.5263,-5.8211,-5.8187,-5.7346,-5.585,0.0,0.0,0.0,0.0,0.0,0.0,0.0,0.0,0.0,0.0,0.0,0.0,0.0,0.0,0.0,0.0,0.0,0.0,0.0,0.0,0.0,0.0,0.0,0.0,0.0,0.0,0.0,0.0,0.0,0.0,0.0,0.0,0.0,0.0,0.0,0.0,0.0,0.0,0.0,0.0,0.0,0.0,0.0,0.0,0.0,0.0,0.0,0.0,0.0,0.0,0.0,0.0,0.0,0.0,0.0,0.0,0.0,0.0,0.0,0.0,0.0,0.0,0.0,0.0,0.0,0.0,0.0,0.0,0.0,0.0,0.0,0.0,0.0,0.0,0.0,0.0,0.0,0.0,0.0,0.0,0.0,0.0,0.0,0.0,0.0,0.0,0.0,0.0,0.0,0.0,0.0,0.0,0.0,0.0,0.0,0.0,0.0,0.0,0.0,0.0,0.0,0.0,0.0,0.0,0.0,0.0,0.0,0.0,-5.6707,-5.5551,-5.6592,-5.9999,-5.7824,-5.6818,0.0,0.0,0.0,0.0,0.0,0.0,0.0,0.0,0.0,0.0,0.0,0.0,0.0,0.0,0.0,0.0,0.0,0.0,0.0,0.0,0.0,0.0,0.0,0.0,0.0,0.0,0.0,0.0,0.0,0.0,0.0,0.0,0.0,0.0,0.0,0.0,0.0,0.0,0.0,0.0,0.0,0.0,0.0,0.0,0.0,0.0,0.0,0.0,0.0,0.0,0.0,0.0,0.0,0.0,0.0,0.0,0.0,0.0,0.0,0.0,0.0,0.0,0.0,0.0,0.0,0.0,0.0,0.0,0.0,0.0,0.0,0.0,0.0,0.0,0.0,0.0,0.0,0.0,0.0,0.0,0.0,0.0,0.0,0.0,0.0,0.0,0.0,0.0,0.0,0.0,0.0,0.0,0.0,0.0,0.0,0.0,0.0,0.0,0.0,0.0,0.0,0.0,0.0,0.0,0.0,0.0,0.0,0.0,0.0,-5.3204,-5.4947,-5.6464,-5.775,-5.7419,-5.7153,0.0,0.0,0.0,0.0,0.0,0.0,0.0,0.0,0.0,0.0,0.0,0.0,0.0,0.0,0.0,0.0,0.0,0.0,0.0,0.0,0.0,0.0,0.0,0.0,0.0,0.0,0.0,0.0,0.0,0.0,0.0,0.0,0.0,0.0,0.0,0.0,0.0,0.0,0.0,0.0,0.0,0.0,0.0,0.0,0.0,0.0,0.0,0.0,0.0,0.0,0.0,0.0,0.0,0.0,0.0,0.0,0.0,0.0,0.0,0.0,0.0,0.0,0.0,0.0,0.0,0.0,0.0,0.0,0.0,0.0,0.0,0.0,0.0,0.0,0.0,0.0,0.0,0.0,0.0,0.0,0.0,0.0,0.0,0.0,0.0,0.0,0.0,0.0,0.0,0.0,0.0,0.0,0.0,0.0,0.0,0.0,0.0,0.0,0.0,0.0,0.0,0.0,0.0,0.0,0.0,0.0,0.0,0.0,0.0,-5.2747,0.0,-5.7536,-5.7319,-5.7319,-5.6863,0.0,0.0,0.0,0.0,0.0,0.0,0.0,0.0,0.0,0.0,0.0,0.0,0.0,0.0,0.0,0.0,0.0,0.0,0.0,0.0,0.0,0.0,0.0,0.0,0.0,0.0,0.0,0.0,0.0,0.0,0.0,0.0,0.0,0.0,0.0,0.0,0.0,0.0,0.0,0.0,0.0,0.0,0.0,0.0,0.0,0.0,0.0,0.0,0.0,0.0,0.0,0.0,0.0,0.0,0.0,0.0,0.0,0.0,0.0,0.0,0.0,0.0,0.0,0.0,0.0,0.0,0.0,0.0,0.0,0.0,0.0,0.0,0.0,0.0,0.0,0.0,0.0,0.0,0.0,0.0,0.0,0.0,0.0,0.0,0.0,0.0,0.0,0.0,0.0,0.0,0.0,0.0,0.0,0.0,0.0,0.0,0.0,0.0,0.0,0.0,0.0,0.0,0.0,0.0,0.0,0.0,0.0,0.0,-5.2714,-5.6199,-5.8697,-5.9661,-5.918,-5.75,-5.582,0.0,0.0,0.0,0.0,0.0,0.0,0.0,0.0,0.0,0.0,0.0,0.0,0.0,0.0,0.0,0.0,0.0,0.0,0.0,0.0,0.0,0.0,0.0,0.0,0.0,0.0,0.0,0.0,0.0,0.0,0.0,0.0,0.0,0.0,0.0,0.0,0.0,0.0,0.0,0.0,0.0,0.0,0.0,0.0,0.0,0.0,0.0,0.0,0.0,0.0,0.0,0.0,0.0,0.0,0.0,0.0,0.0,0.0,0.0,0.0,0.0,0.0,0.0,0.0,0.0,0.0,0.0,0.0,0.0,0.0,0.0,0.0,0.0,0.0,0.0,0.0,0.0,0.0,0.0,0.0,0.0,0.0,0.0,0.0,0.0,0.0,0.0,0.0,0.0,0.0,0.0,0.0,0.0,0.0,0.0,0.0,0.0,0.0,0.0,0.0,0.0,0.0,0.0,0.0,0.0,0.0,0.0,0.0,0.0,-5.4799,-5.726,-5.8825,-5.9101,-5.75,-5.664,0.0,0.0,0.0,0.0,0.0,0.0,0.0,0.0,0.0,0.0,0.0,0.0,0.0,0.0,0.0,0.0,0.0,0.0,0.0,0.0,0.0,0.0,0.0,0.0,0.0,0.0,0.0,0.0,0.0,0.0,0.0,0.0,0.0,0.0,0.0,0.0,0.0,0.0,0.0,0.0,0.0,0.0,0.0,0.0,0.0,0.0,0.0,0.0,0.0,0.0,0.0,0.0,0.0,0.0,0.0,0.0,0.0,0.0,0.0,0.0,0.0,0.0,0.0,0.0,0.0,0.0,0.0,0.0,0.0,0.0,0.0,0.0,0.0,0.0,0.0,0.0,0.0,0.0,0.0,0.0,0.0,0.0,0.0,0.0,0.0,0.0,0.0,0.0,0.0,0.0,0.0,0.0,0.0,0.0,0.0,0.0,0.0,0.0,0.0,0.0,0.0,0.0,0.0,0.0,0.0,0.0,0.0,0.0,0.0,-5.7146,-5.8992,-6.0126,-6.0358,-5.8679,-5.733,-5.6445,0.0,0.0,0.0,0.0,0.0,0.0,0.0,0.0,0.0,0.0,0.0,0.0,0.0,0.0,0.0,0.0,0.0,0.0,0.0,0.0,0.0,0.0,0.0,0.0,0.0,0.0,0.0,0.0,0.0,0.0,0.0,0.0,0.0,0.0,0.0,0.0,0.0,0.0,0.0,0.0,0.0,0.0,0.0,0.0,0.0,0.0,0.0,0.0,0.0,0.0,0.0,0.0,0.0,0.0,0.0,0.0,0.0,0.0,0.0,0.0,0.0,0.0,0.0,0.0,0.0,0.0,0.0,0.0,0.0,0.0,0.0,0.0,0.0,0.0,0.0,0.0,0.0,0.0,0.0,0.0,0.0,0.0,0.0,0.0,0.0,0.0,0.0,0.0,0.0,0.0,0.0,0.0,0.0,0.0,0.0,0.0,0.0,0.0,0.0,0.0,0.0,0.0,0.0,0.0,0.0,0.0,0.0,0.0,-6.2445,-6.3528,-6.3618,-6.2639,-6.0834,-5.8133,0.0,0.0,0.0,0.0,0.0,0.0,0.0,0.0,0.0,0.0,0.0,0.0,0.0,0.0,0.0,0.0,0.0,0.0,0.0,0.0,0.0,0.0,0.0,0.0,0.0,0.0,0.0,0.0,0.0,0.0,0.0,0.0,0.0,0.0,0.0,0.0,0.0,0.0,0.0,0.0,0.0,0.0,0.0,0.0,0.0,0.0,0.0,0.0,0.0,0.0,0.0,0.0,0.0,0.0,0.0,0.0,0.0,0.0,0.0,0.0,0.0,0.0,0.0,0.0,0.0,0.0,0.0,0.0,0.0,0.0,0.0,0.0,0.0,0.0,0.0,0.0,0.0,0.0,0.0,0.0,0.0,0.0,0.0,0.0,0.0,0.0,0.0,0.0,0.0,0.0,0.0,0.0,0.0,0.0,0.0,0.0,0.0,0.0,0.0,0.0,0.0,0.0,0.0,0.0,0.0,0.0,0.0,0.0,0.0,-6.5438,-6.8436,-6.8886,-6.6544,-6.3323,-6.0555,0.0,0.0,0.0,0.0,0.0,0.0,0.0,0.0,0.0,0.0,0.0,0.0,0.0,0.0,0.0,0.0,0.0,0.0,0.0,0.0,0.0,0.0,0.0,0.0,0.0,0.0,0.0,0.0,0.0,0.0,0.0,0.0,0.0,0.0,0.0,0.0,0.0,0.0,0.0,0.0,0.0,0.0,0.0,0.0,0.0,0.0,0.0,0.0,0.0,0.0,0.0,0.0,0.0,0.0,0.0,0.0,0.0,0.0,0.0,0.0,0.0,0.0,0.0,0.0,0.0,0.0,0.0,0.0,0.0,0.0,0.0,0.0,0.0,0.0,0.0,0.0,0.0,0.0,0.0,0.0,0.0,0.0,0.0,0.0,0.0,0.0,0.0,0.0,0.0,0.0,0.0,0.0,0.0,0.0,0.0,0.0,0.0,0.0,0.0,0.0,0.0,0.0,0.0,0.0,0.0,0.0,0.0,0.0,-6.5248,-6.7639,-7.189,-7.3307,-7.1668,-6.7112,-6.2927,0.0,0.0,0.0,0.0,0.0,0.0,0.0,0.0,0.0,0.0,0.0,0.0,0.0,0.0,0.0,0.0,0.0,0.0,0.0,0.0,0.0,0.0,0.0,0.0,0.0,0.0,0.0,0.0,0.0,0.0,0.0,0.0,0.0,0.0,0.0,0.0,0.0,0.0,0.0,0.0,0.0,0.0,0.0,0.0,0.0,0.0,0.0,0.0,0.0,0.0,0.0,0.0,0.0,0.0,0.0,0.0,0.0,0.0,0.0,0.0,0.0,0.0,0.0,0.0,0.0,0.0,0.0,0.0,0.0,0.0,0.0,0.0,0.0,0.0,0.0,0.0,0.0,0.0,0.0,0.0,0.0,0.0,0.0,0.0,0.0,0.0,0.0,0.0,0.0,0.0,0.0,0.0,0.0,0.0,0.0,0.0,0.0,0.0,0.0,0.0,0.0,0.0,0.0,0.0,0.0,0.0,0.0,0.0,-6.7614,-6.9451,-7.4212,-7.6675,-7.6348,-7.0974,-6.519,0.0,0.0,0.0,0.0,0.0,0.0,0.0,0.0,0.0,0.0,0.0,0.0,0.0,0.0,0.0,0.0,0.0,0.0,0.0,0.0,0.0,0.0,0.0,0.0,0.0,0.0,0.0,0.0,0.0,0.0,0.0,0.0,0.0,0.0,0.0,0.0,0.0,0.0,0.0,0.0,0.0,0.0,0.0,0.0,0.0,0.0,0.0,0.0,0.0,0.0,0.0,0.0,0.0,0.0,0.0,0.0,0.0,0.0,0.0,0.0,0.0,0.0,0.0,0.0,0.0,0.0,0.0,0.0,0.0,0.0,0.0,0.0,0.0,0.0,0.0,0.0,0.0,0.0,0.0,0.0,0.0,0.0,0.0,0.0,0.0,0.0,0.0,0.0,0.0,0.0,0.0,0.0,0.0,0.0,0.0,0.0,0.0,0.0,0.0,0.0,0.0,0.0,0.0,0.0,0.0,0.0,0.0,0.0,-6.8932,-7.1613,-7.555,-7.6976,-7.5662,-7.0636,-6.6372,0.0,0.0,0.0,0.0,0.0,0.0,0.0,0.0,0.0,0.0,0.0,0.0,0.0,0.0,0.0,0.0,0.0,0.0,0.0,0.0,0.0,0.0,0.0,0.0,0.0,0.0,0.0,0.0,0.0,0.0,0.0,0.0,0.0,0.0,0.0,0.0,0.0,0.0,0.0,0.0,0.0,0.0,0.0,0.0,0.0,0.0,0.0,0.0,-5.7821,0.0,0.0,0.0,0.0,0.0,0.0,0.0,0.0,0.0,0.0,0.0,0.0,0.0,0.0,0.0,0.0,0.0,0.0,0.0,0.0,0.0,0.0,0.0,0.0,0.0,0.0,0.0,0.0,0.0,0.0,0.0,0.0,0.0,0.0,0.0,0.0,0.0,0.0,0.0,0.0,0.0,0.0,0.0,0.0,0.0,0.0,0.0,0.0,0.0,0.0,0.0,0.0,0.0,0.0,0.0,0.0,0.0,0.0,0.0,-6.9232,-7.2184,-7.5582,-7.6982,-7.6022,-7.1565,-6.7485,0.0,0.0,0.0,0.0,0.0,0.0,0.0,0.0,0.0,0.0,0.0,0.0,0.0,0.0,0.0,0.0,0.0,0.0,0.0,0.0,0.0,0.0,0.0,0.0,0.0,0.0,0.0,0.0,0.0,0.0,0.0,0.0,0.0,0.0,0.0,0.0,0.0,0.0,0.0,0.0,0.0,0.0,0.0,0.0,0.0,0.0,0.0,0.0,0.0,0.0,0.0,0.0,0.0,0.0,0.0,0.0,0.0,0.0,0.0,0.0,0.0,0.0,0.0,0.0,0.0,0.0,0.0,0.0,0.0,0.0,0.0,0.0,0.0,0.0,0.0,0.0,0.0,0.0,0.0,0.0,0.0,0.0,0.0,0.0,0.0,0.0,0.0,0.0,0.0,0.0,0.0,0.0,0.0,0.0,0.0,0.0,0.0,0.0,0.0,0.0,0.0,0.0,0.0,0.0,0.0,0.0,0.0,-6.5705,-6.9342,-7.2548,-7.5286,-7.6678,-7.6602,-7.2329,-6.8087,-6.4067,0.0,0.0,0.0,0.0,0.0,0.0,0.0,0.0,0.0,0.0,0.0,0.0,0.0,0.0,0.0,0.0,0.0,0.0,0.0,0.0,0.0,0.0,0.0,0.0,0.0,0.0,0.0,0.0,0.0,0.0,0.0,0.0,0.0,0.0,0.0,0.0,0.0,0.0,-5.4354,-5.6614,0.0,0.0,0.0,0.0,0.0,0.0,0.0,0.0,-5.7317,0.0,0.0,0.0,0.0,0.0,0.0,0.0,0.0,0.0,0.0,0.0,0.0,0.0,0.0,0.0,0.0,0.0,0.0,0.0,0.0,0.0,0.0,0.0,0.0,0.0,0.0,0.0,0.0,0.0,0.0,0.0,0.0,0.0,0.0,0.0,0.0,0.0,0.0,0.0,0.0,0.0,0.0,0.0,0.0,0.0,0.0,0.0,0.0,0.0,0.0,0.0,0.0,0.0,0.0,0.0,0.0,-6.5445,-6.7132,-7.0241,-7.4799,-7.5658,-7.5766,-7.5081,-7.0613,-6.6892,-6.4139,0.0,0.0,0.0,0.0,0.0,0.0,0.0,0.0,0.0,0.0,0.0,0.0,0.0,0.0,0.0,0.0,0.0,0.0,0.0,0.0,0.0,0.0,0.0,0.0,0.0,0.0,0.0,0.0,0.0,0.0,0.0,0.0,0.0,0.0,0.0,0.0,0.0,0.0,0.0,-6.0287,-6.1589,0.0,0.0,0.0,0.0,0.0,0.0,0.0,0.0,-5.7837,0.0,0.0,0.0,0.0,0.0,0.0,0.0,0.0,0.0,0.0,0.0,0.0,0.0,0.0,0.0,0.0,0.0,0.0,0.0,0.0,0.0,0.0,0.0,0.0,0.0,0.0,0.0,0.0,0.0,0.0,0.0,0.0,0.0,0.0,0.0,0.0,0.0,0.0,0.0,0.0,0.0,0.0,0.0,0.0,0.0,0.0,0.0,0.0,0.0,0.0,0.0,0.0,0.0,0.0,0.0,-6.5613,-6.8347,-7.1367,-7.4726,-7.5129,-7.5005,-7.4334,-7.0191,-6.6863,0.0,0.0,0.0,0.0,0.0,0.0,0.0,0.0,0.0,0.0,0.0,0.0,0.0,0.0,0.0,0.0,0.0,0.0,0.0,0.0,0.0,0.0,0.0,0.0,0.0,0.0,0.0,0.0,0.0,0.0,0.0,0.0,0.0,0.0,0.0,0.0,0.0,0.0,0.0,0.0,-6.0752,-6.2072,-6.2022,0.0,0.0,0.0,0.0,0.0,0.0,-5.8518,-5.7977,0.0,0.0,0.0,0.0,0.0,0.0,0.0,0.0,0.0,0.0,0.0,0.0,0.0,0.0,0.0,0.0,0.0,0.0,0.0,0.0,0.0,0.0,0.0,0.0,0.0,0.0,0.0,0.0,0.0,0.0,0.0,0.0,0.0,0.0,0.0,0.0,0.0,0.0,0.0,0.0,0.0,0.0,0.0,0.0,0.0,0.0,0.0,0.0,0.0,0.0,0.0,0.0,0.0,0.0,0.0,-6.5109,-6.8995,-7.2108,-7.4265,-7.4649,-7.4464,-7.3753,-6.9756,-6.6621,0.0,0.0,0.0,0.0,0.0,0.0,0.0,0.0,0.0,0.0,0.0,0.0,0.0,0.0,0.0,0.0,0.0,0.0,0.0,0.0,0.0,0.0,0.0,0.0,0.0,0.0,0.0,0.0,0.0,0.0,0.0,0.0,0.0,0.0,0.0,0.0,0.0,0.0,0.0,0.0,0.0,-6.2816,-6.313,-6.3207,0.0,0.0,0.0,0.0,-5.9887,-5.9589,0.0,0.0,0.0,0.0,0.0,0.0,0.0,0.0,0.0,0.0,0.0,0.0,0.0,0.0,0.0,0.0,0.0,0.0,0.0,0.0,0.0,0.0,0.0,0.0,0.0,0.0,0.0,0.0,0.0,0.0,0.0,0.0,0.0,0.0,0.0,0.0,0.0,0.0,0.0,0.0,0.0,0.0,0.0,0.0,0.0,0.0,0.0,0.0,0.0,0.0,0.0,0.0,0.0,0.0,0.0,0.0,-6.5079,-6.8629,-7.1773,-7.4523,-7.4857,-7.4391,-7.3117,-6.839,-6.5099,0.0,0.0,0.0,0.0,0.0,0.0,0.0,0.0,0.0,0.0,0.0,0.0,0.0,0.0,0.0,0.0,0.0,0.0,0.0,0.0,0.0,0.0,0.0,0.0,0.0,0.0,0.0,0.0,0.0,0.0,0.0,0.0,0.0,0.0,0.0,0.0,0.0,0.0,0.0,0.0,0.0,-6.6203,-6.4177,-6.5068,-6.4817,0.0,0.0,-6.1448,-6.1448,-6.2904,0.0,0.0,0.0,0.0,0.0,0.0,0.0,0.0,0.0,0.0,0.0,0.0,0.0,0.0,0.0,0.0,0.0,0.0,0.0,0.0,0.0,0.0,0.0,0.0,0.0,0.0,0.0,0.0,0.0,0.0,0.0,0.0,0.0,0.0,0.0,0.0,0.0,0.0,0.0,0.0,0.0,0.0,0.0,0.0,0.0,0.0,0.0,0.0,0.0,0.0,0.0,0.0,0.0,0.0,0.0,-6.2687,-6.5252,-6.9379,-7.2566,-7.4719,-7.4915,-7.4087,-7.2378,-6.79,-6.467,0.0,0.0,0.0,0.0,0.0,0.0,0.0,0.0,0.0,0.0,0.0,0.0,0.0,0.0,0.0,0.0,0.0,0.0,0.0,0.0,0.0,0.0,0.0,0.0,0.0,0.0,0.0,0.0,0.0,0.0,0.0,0.0,0.0,0.0,0.0,0.0,0.0,0.0,0.0,0.0,0.0,0.0,-6.4237,-6.5054,0.0,0.0,0.0,-6.3392,-6.2504,0.0,0.0,0.0,0.0,0.0,0.0,0.0,0.0,0.0,0.0,0.0,0.0,0.0,0.0,0.0,0.0,0.0,0.0,0.0,0.0,0.0,0.0,0.0,0.0,0.0,0.0,0.0,0.0,0.0,0.0,0.0,0.0,0.0,0.0,0.0,0.0,0.0,0.0,0.0,0.0,0.0,0.0,0.0,0.0,0.0,0.0,0.0,0.0,0.0,0.0,0.0,0.0,0.0,0.0,0.0,0.0,0.0,-6.5348,-6.9793,-7.2999,-7.4819,-7.4478,-7.346,-7.1717,-6.7448,0.0,0.0,0.0,0.0,0.0,0.0,0.0,0.0,0.0,0.0,0.0,0.0,0.0,0.0,0.0,0.0,0.0,0.0,0.0,0.0,0.0,0.0,0.0,0.0,0.0,0.0,0.0,-4.8793,0.0,0.0,0.0,0.0,0.0,0.0,0.0,0.0,0.0,0.0,0.0,0.0,0.0,0.0,-6.3284,-6.4188,-6.5002,-6.5238,0.0,0.0,-6.4865,-6.3641,-6.4479,-6.4186,0.0,0.0,0.0,0.0,0.0,0.0,0.0,0.0,0.0,0.0,0.0,0.0,0.0,0.0,0.0,0.0,0.0,0.0,0.0,0.0,0.0,0.0,0.0,0.0,0.0,0.0,0.0,0.0,0.0,0.0,0.0,0.0,0.0,0.0,0.0,0.0,0.0,0.0,0.0,0.0,0.0,0.0,0.0,0.0,0.0,0.0,0.0,0.0,0.0,0.0,0.0,0.0,0.0,0.0,-6.2851,-6.5338,-6.9179,-7.2355,-7.4743,-7.3378,-7.2206,-7.1485,-6.6842,-6.3534,0.0,0.0,0.0,0.0,0.0,0.0,0.0,0.0,0.0,0.0,0.0,0.0,0.0,0.0,0.0,0.0,0.0,0.0,0.0,0.0,0.0,0.0,0.0,0.0,0.0,0.0,0.0,0.0,0.0,0.0,0.0,0.0,0.0,0.0,0.0,0.0,0.0,0.0,0.0,0.0,0.0,-6.3696,-6.4255,-6.5441,-6.6252,0.0,-6.5613,-6.5195,-6.4988,-6.7773,-6.7819,-6.1298,0.0,0.0,0.0,0.0,0.0,0.0,0.0,0.0,0.0,0.0,0.0,0.0,0.0,0.0,0.0,0.0,0.0,0.0,0.0,0.0,0.0,0.0,0.0,0.0,0.0,0.0,0.0,0.0,0.0,0.0,0.0,0.0,0.0,0.0,0.0,0.0,0.0,0.0,0.0,0.0,0.0,0.0,0.0,0.0,0.0,0.0,0.0,0.0,0.0,0.0,0.0,0.0,0.0,-6.2044,-6.4544,-6.7944,-7.0593,-7.2431,-7.1996,-7.0894,-6.9201,-6.6295,-6.3356,0.0,0.0,0.0,0.0,0.0,0.0,0.0,0.0,0.0,0.0,0.0,0.0,0.0,0.0,0.0,0.0,0.0,0.0,0.0,0.0,0.0,0.0,0.0,0.0,0.0,0.0,0.0,0.0,-5.1604,-5.2812,-5.4507,0.0,0.0,0.0,0.0,0.0,0.0,0.0,0.0,0.0,0.0,-6.274,-6.4299,-6.529,0.0,0.0,-6.5841,-6.6001,-6.5263,-6.6207,-6.5886,-6.2412,-6.1408,0.0,0.0,0.0,0.0,0.0,0.0,0.0,0.0,0.0,0.0,0.0,0.0,0.0,0.0,0.0,0.0,0.0,0.0,0.0,0.0,0.0,0.0,0.0,0.0,0.0,0.0,0.0,0.0,0.0,0.0,0.0,0.0,0.0,0.0,0.0,0.0,0.0,0.0,0.0,0.0,0.0,0.0,0.0,0.0,0.0,0.0,0.0,0.0,0.0,0.0,0.0,0.0,-6.1697,-6.4432,-6.7318,-6.9814,-7.1883,-7.1294,-7.0017,-6.8066,-6.6145,-6.3535,0.0,0.0,0.0,0.0,0.0,0.0,0.0,0.0,0.0,0.0,0.0,0.0,0.0,0.0,0.0,0.0,0.0,0.0,0.0,0.0,0.0,0.0,0.0,0.0,0.0,0.0,0.0,0.0,-5.3242,-5.4674,-5.5837,0.0,0.0,0.0,0.0,0.0,0.0,0.0,0.0,0.0,0.0,-6.2437,-6.4095,-6.4822,-6.5062,-6.4816,-6.5365,-6.5546,-6.4887,-6.5113,-6.4548,-6.2276,0.0,0.0,0.0,0.0,0.0,0.0,0.0,0.0,0.0,0.0,0.0,0.0,0.0,0.0,0.0,0.0,0.0,0.0,0.0,0.0,0.0,0.0,0.0,0.0,0.0,0.0,0.0,-5.5791,0.0,0.0,-5.5985,0.0,0.0,0.0,0.0,0.0,0.0,0.0,0.0,0.0,0.0,0.0,0.0,0.0,0.0,0.0,0.0,0.0,0.0,0.0,0.0,0.0,0.0,-6.1927,-6.5197,-6.7549,-7.0345,-7.3421,-7.1425,-6.9731,-6.8691,-6.6494,-6.4036,-6.1427,0.0,0.0,0.0,0.0,0.0,0.0,0.0,0.0,0.0,0.0,0.0,0.0,0.0,0.0,0.0,0.0,0.0,0.0,0.0,0.0,0.0,0.0,0.0,0.0,0.0,0.0,-5.2983,-5.4764,-5.5874,0.0,0.0,0.0,0.0,0.0,0.0,0.0,0.0,0.0,-5.6677,-6.0429,-6.3215,-6.3524,-6.4001,-6.4405,-6.465,-6.4045,-6.3604,-6.3922,-6.5188,-6.4758,0.0,0.0,0.0,0.0,0.0,0.0,0.0,0.0,0.0,0.0,0.0,0.0,0.0,0.0,0.0,0.0,0.0,0.0,0.0,0.0,0.0,0.0,0.0,0.0,0.0,0.0,0.0,-5.9499,-5.9266,0.0,0.0,0.0,0.0,0.0,0.0,0.0,0.0,0.0,0.0,0.0,-6.3514,-6.3511,0.0,0.0,0.0,0.0,0.0,0.0,0.0,0.0,0.0,0.0,0.0,0.0,-6.1155,-6.2907,-6.6308,-6.8593,-6.9565,-6.8914,-6.8095,-6.7154,-6.5766,-6.3885,-6.1453,0.0,0.0,0.0,0.0,0.0,0.0,0.0,0.0,0.0,0.0,0.0,0.0,0.0,0.0,0.0,0.0,0.0,0.0,0.0,0.0,0.0,0.0,0.0,0.0,0.0,-5.2723,0.0,0.0,0.0,0.0,0.0,0.0,0.0,0.0,0.0,0.0,-5.4406,-5.6196,-5.8629,-6.0661,-6.2261,-6.3162,-6.3781,-6.4215,0.0,0.0,0.0,0.0,0.0,0.0,0.0,0.0,0.0,0.0,0.0,0.0,0.0,0.0,-6.3873,-5.853,-5.6638,-5.5702,-5.5411,0.0,0.0,0.0,0.0,0.0,0.0,0.0,0.0,0.0,0.0,0.0,0.0,0.0,0.0,-6.1127,0.0,-6.1179,0.0,0.0,0.0,0.0,0.0,0.0,0.0,0.0,-6.4513,-6.5874,-6.6891,-6.6914,-6.6596,0.0,-6.4626,-6.1562,0.0,0.0,0.0,0.0,0.0,0.0,0.0,0.0,-6.073,-6.1708,-6.559,-6.796,-6.8403,-6.8282,-6.7766,-6.6788,-6.5262,-6.3715,-6.2222,-6.0165,-5.8199,0.0,0.0,0.0,0.0,0.0,0.0,0.0,0.0,0.0,0.0,0.0,0.0,0.0,0.0,0.0,0.0,0.0,0.0,0.0,0.0,0.0,0.0,0.0,-5.393,0.0,0.0,0.0,0.0,0.0,0.0,0.0,0.0,0.0,-5.4318,-5.573,-5.7725,-6.0071,-6.1316,-6.2252,-6.302,0.0,0.0,0.0,0.0,0.0,0.0,0.0,-6.3023,-6.323,-6.3764,-6.4246,-6.4361,-6.6134,-6.7256,-6.6397,0.0,0.0,-6.2023,-6.0268,-5.938,-5.8771,-5.7863,-5.7566,-5.871,-5.8593,-5.8131,0.0,0.0,0.0,0.0,0.0,0.0,0.0,0.0,-6.1883,-6.1875,0.0,-6.1952,0.0,0.0,0.0,0.0,-6.1038,-6.3319,0.0,0.0,-6.9331,-7.0892,-6.9533,-6.9505,-6.9466,-6.9303,-6.7103,-6.5468,-6.4301,-6.0567,0.0,0.0,0.0,0.0,0.0,0.0,-6.0683,-6.1641,-6.5615,-6.8489,-6.9957,-6.9396,-6.8612,-6.7597,-6.5107,-6.3676,-6.3558,-6.2246,-6.1119,-6.0237,-5.8116,0.0,0.0,0.0,0.0,0.0,0.0,0.0,0.0,0.0,0.0,0.0,0.0,0.0,0.0,0.0,0.0,0.0,0.0,0.0,0.0,-5.3582,0.0,0.0,0.0,0.0,0.0,0.0,0.0,0.0,0.0,-5.5309,-5.448,-5.7377,-5.9988,-6.0799,0.0,0.0,0.0,0.0,-6.2391,-6.1281,-6.1776,-6.2352,-6.2234,-6.3878,-6.4728,-6.3541,0.0,0.0,-6.4917,-6.667,-6.7436,-6.5122,-6.7064,-6.8871,-6.91,-6.7059,-6.5231,-6.3939,-6.2681,-6.197,-6.1456,-6.1474,-6.1098,-7.0206,0.0,0.0,0.0,0.0,-6.402,-6.5874,-6.8922,-6.8582,-6.8203,-6.7823,-6.7498,0.0,0.0,0.0,0.0,0.0,0.0,-6.6174,-6.7985,-7.0567,-7.2122,-7.2824,-7.3438,-7.34,-7.2786,-7.2066,-7.1043,-6.9675,-6.7392,-6.3856,-5.916,0.0,0.0,0.0,0.0,-6.0236,-6.2509,-6.5999,-6.8035,-6.8413,-6.8879,-6.8345,-6.6814,-6.5973,-6.4993,-6.3778,-6.3267,-6.2399,-6.1157,-5.9371,0.0,0.0,0.0,0.0,0.0,0.0,0.0,0.0,0.0,0.0,0.0,0.0,0.0,0.0,0.0,0.0,0.0,0.0,0.0,-5.4246,-5.5277,-5.5818,0.0,0.0,0.0,0.0,0.0,0.0,0.0,0.0,0.0,-5.9212,-5.9218,-5.9741,0.0,0.0,-6.1796,-6.16,-6.1966,-6.2204,-6.2197,-6.2805,0.0,-6.3836,-6.4581,-6.5213,-6.5398,-6.6638,-6.7691,-6.8145,-6.8773,-6.8931,-6.7819,-6.8878,-6.979,-6.9244,-6.7285,-6.5416,-6.4499,-6.4035,-6.4125,-6.482,-6.4752,-6.4197,-7.6665,-7.1468,-6.8505,-6.7498,-6.7862,-6.7387,-6.9111,-7.2144,-7.131,-7.0863,-7.071,-7.0234,-6.8956,-6.7112,-6.6852,0.0,0.0,0.0,-6.8808,-7.0799,-7.2135,-7.3442,-7.4715,-7.5233,-7.5233,-7.4698,-7.4354,-7.3717,-7.2783,-7.0887,-6.7782,-6.3494,0.0,-5.859,-5.9679,-6.0234,-6.1144,-6.2568,-6.6064,-6.7744,-6.7343,-6.7823,-6.7393,-6.6015,-6.5872,-6.5344,-6.4305,-6.4284,-6.3551,-6.2002,-6.073,-5.8629,0.0,0.0,0.0,0.0,0.0,0.0,0.0,0.0,0.0,0.0,0.0,-5.1406,-5.0212,0.0,0.0,0.0,-5.2836,-5.4264,-5.5857,-5.6212,0.0,0.0,0.0,0.0,0.0,0.0,0.0,-5.8864,-6.0542,-6.1888,-6.2021,-6.198,-6.2461,-6.3905,-6.3256,-6.2737,-6.2925,0.0,-6.3069,-6.305,-6.3669,-6.4239,-6.4658,-6.4977,-6.5422,-6.603,-6.6886,-6.7688,-6.8443,-6.8658,-6.8599,-6.84,-6.8958,-6.9205,-6.8201,-6.711,-6.641,-6.6089,-6.6027,-6.6318,-6.6837,-6.6448,-6.5844,-8.2452,-7.9869,-7.3127,-7.0706,-7.1164,-7.0273,-7.0934,-7.2491,-7.1718,-7.1312,-7.1278,-7.1249,-7.0715,-6.9813,-6.9189,0.0,-6.9943,-7.0743,-7.1788,-7.3165,-7.3951,-7.4736,-7.548,-7.5518,-7.5518,-7.548,-7.4698,-7.4316,-7.4197,-7.1994,-7.0231,-6.8861,-6.5628,-6.3052,-6.1366,-6.2453,-6.2788,-6.2179,-6.5839,-6.7443,-6.6819,-6.6681,-6.6189,-6.5384,-6.5308,-6.522,-6.5023,-6.5194,-6.448,-6.2794,-6.2082,-6.0252,-5.6971,0.0,0.0,0.0,0.0,0.0,0.0,0.0,0.0,0.0,0.0,0.0,0.0,0.0,0.0,-5.1692,-5.3776,0.0,-5.6993,-5.6764,0.0,0.0,0.0,-6.0158,-6.0966,-6.2458,-6.3207,-6.2611,0.0,0.0,-6.3361,-6.4978,-6.6773,-6.8244,-6.6323,-6.4997,-6.5619,-6.5031,-6.449,-6.3615,-6.4386,-6.4985,-6.4911,-6.5183,-6.5594,-6.5988,-6.6101,-6.6505,-6.7018,-6.7064,-6.7057,-6.7103,-6.759,-6.7683,-6.6355,-6.7083,-6.8039,-6.7827,-6.8087,-6.81,-6.7343,-6.6771,-6.6217,-8.3562,-8.176,-7.9223,-7.733,-7.5906,-7.5397,-7.578,-7.6738,-7.6716,-7.6251,-7.5481,-7.5705,-7.5001,-7.3537,-7.2764,-7.2481,-7.265,-7.2688,-7.3234,-7.4152,-7.4877,-7.5327,-7.5518,-7.5518,-7.5518,-7.548,-7.5327,-7.5195,-7.5136,-7.3926,-7.2302,-7.0355,-6.8815,-6.6297,-6.2863,-6.1903,-6.2069,-6.3273,-6.4824,-6.6263,-6.7539,-6.7591,-6.7178,-6.6345,-6.6259,-6.5906,-6.5264,-6.521,-6.4715,-6.3695,-6.2734,-6.0736,-5.7506,-5.6356,0.0,0.0,0.0,0.0,0.0,0.0,0.0,0.0,0.0,-5.0489,-4.925,0.0,-5.2202,0.0,-5.3982,-5.6746,-5.8635,-5.8694,0.0,0.0,-6.0789,-6.1663,-6.2151,-6.4089,-6.4731,-6.2999,-6.4248,-6.5328,-6.5431,-6.6114,-6.7332,-6.9266,-6.7232,-6.5128,-6.4222,-6.4743,-6.4692,-6.3596,-6.4777,-6.582,-6.5119,-6.5688,-6.6171,-6.6454,-6.6298,-6.647,-6.7243,-6.6711,-6.6301,-6.6494,-6.6558,-6.6436,-6.6129,-6.642,-6.6582,-6.6647,-6.7098,-6.7257,-6.6579,-6.597,-6.56,-8.4846,-8.3628,-8.269,-8.1385,-7.9801,-7.8138,-7.8048,-7.8946,-7.8276,-7.7689,-7.7174,-7.7313,-7.6688,-7.554,-7.5449,-7.5009,-7.434,-7.4578,-7.4599,-7.4551,-7.5255,-7.5583,-7.5518,-7.5518,-7.5518,-7.5518,-7.5518,-7.5518,-7.548,-7.5004,-7.3952,-7.2395,-7.1893,-6.9865,-6.6367,-6.3874,-6.3346,-6.4704,-6.47,-6.5595,-6.7256,-6.698,-6.6418,-6.5653,-6.5192,-6.4354,-6.3147,-6.3157,-6.2742,-6.1901,-6.1669,-6.0428,-5.7916,-5.6407,-5.4802,0.0,0.0,0.0,0.0,0.0,0.0,0.0,0.0,0.0,0.0,0.0,-5.3201,-5.3624,-5.5998,-5.796,-5.904,-5.9133,-5.9565,-6.0694,-6.1864,-6.2947,-6.3664,-6.552,-6.6132,-6.4575,-6.5457,-6.6207,-6.6297,-6.6758,-6.7483,-6.8638,-6.7297,-6.5913,-6.5173,-6.5547,-6.543,-6.4124,-6.4811,-6.5124,-6.3989,-6.4233,-6.4679,-6.4713,-6.4774,-6.5168,-6.6257,-6.5929,-6.5639,-6.6113,-6.591,-6.5505,-6.5205,-6.5448,-6.5546,-6.5351,-6.574,-6.6129,-6.6129,-6.5852,-6.5638,-8.6183,-8.5462,-8.4572,-8.3669,-8.2689,-7.9659,-7.8919,-7.972,-7.8233,-7.7624,-7.7691,-7.7575,-7.7164,-7.6548,-7.7379,-7.6869,-7.5485,-7.6062,-7.5786,-7.4793,-7.5449,-7.5692,-7.557,-7.548,-7.5518,-7.5518,-7.5518,-7.5518,-7.5518,-7.5518,-7.5064,-7.4267,-7.4228,-7.2874,-7.0136,-6.6902,-6.5387,-6.5693,-6.5117,-6.5383,-6.6485,-6.5698,-6.4926,-6.4171,-6.3317,-6.2037,-6.0369,-6.0468,-6.008,-5.9019,-5.9851,-5.9657,-5.8048,-5.6009,-5.4906,0.0,-5.2125,0.0,0.0,0.0,0.0,0.0,0.0,0.0,0.0,-5.2883,-5.4495,-5.7464,-5.8502,-5.9034,-5.9231,-5.9299,-5.9965,-6.1715,-6.2984,-6.419,-6.5407,-6.6688,-6.7135,-6.6276,-6.6624,-6.677,-6.6325,-6.7016,-6.7485,-6.7293,-6.7011,-6.664,-6.6558,-6.642,-6.5997,-6.4936,-6.4381,-6.3722,-6.2634,-6.2381,-6.2454,-6.2381,-6.2756,-6.3435,-6.4971,-6.4937,-6.4978,-6.555,-6.526,-6.4551,-6.3811,-6.4188,-6.4414,-6.3929,-6.4285,-6.4915,-6.5546,-6.5708,-6.5691,-8.75,-8.7242,-8.5783,-8.4482,-8.334,-8.1353,-7.9884,-7.8907,-7.9391,-7.9299,-7.8807,-7.8757,-7.8325,-7.7651,-7.7777,-7.7341,-7.6438,-7.63,-7.6157,-7.6014,-7.5748,-7.566,-7.574,-7.5583,-7.5518,-7.5518,-7.5518,-7.5518,-7.5518,-7.5518,-7.4751,-7.3353,-7.3325,-7.2422,-7.0576,0.0,0.0,0.0,-6.5741,-6.6275,-6.5731,-6.4965,-6.4166,-6.3338,-6.2473,0.0,-5.9639,-6.0198,-5.9573,-5.7458,-5.8493,0.0,0.0,0.0,0.0,0.0,0.0,0.0,0.0,0.0,0.0,0.0,-5.4411,-5.4206,-5.3549,-5.4158,-5.6002,-5.9149,-5.9054,-5.9595,-6.1604,-6.1778,-6.254,-6.4391,-6.5059,-6.5867,-6.7048,-6.7308,-6.7007,-6.6224,-6.6612,-6.6551,-6.5699,-6.6642,-6.7319,-6.6914,-6.6865,-6.6493,-6.5617,-6.5785,-6.5303,-6.3724,-6.3051,-6.2555,-6.1911,-6.2076,-6.2116,-6.1957,-6.2156,-6.3001,-6.4362,-6.4505,-6.4321,-6.4519,-6.4099,-6.3407,-6.2035,-6.2374,-6.3015,-6.2837,-6.2934,-6.3271,-6.4203,-6.4412,-6.4365,-8.7887,-8.7732,-8.62,-8.4987,0.0,-8.265,-8.1117,-7.9492,-7.9031,-7.868,-7.8508,-7.8889,-7.8659,-7.7933,-7.8389,-7.7903,-7.6678,-7.6516,-7.6433,-7.6389,-7.6096,-7.5928,-7.5818,-7.5692,-7.5599,-7.5518,-7.5518,-7.5518,-7.5518,-7.5518,-7.5085,-7.4304,-7.4266,-7.365,-7.2405,-7.0302,-6.7945,-6.5312,-6.5907,-6.6233,-6.6113,-6.5335,-6.4503,-6.3691,-6.2401,0.0,0.0,0.0,0.0,0.0,0.0,0.0,0.0,-5.78,0.0,-5.7039,-5.6724,-5.6667,-5.6848,-5.6548,-5.6466,-5.6733,-5.7228,-5.7005,-5.5696,-5.6702,-5.847,-6.0938,-6.0809,-6.1299,-6.2968,-6.3196,-6.3788,-6.5177,-6.5533,-6.5965,-6.6692,-6.6754,-6.626,-6.5454,-6.5493,-6.5456,-6.4911,-6.5422,-6.6062,-6.6308,-6.6066,-6.5705,-6.5305,-6.5227,-6.4601,-6.2962,-6.2308,-6.187,-6.1539,-6.1547,-6.1669,-6.1499,-6.175,-6.2596,-6.3983,-6.4334,-6.4346,-6.431,-6.4215,-6.3597,-6.2189,-6.2157,-6.2428,-6.2444,-6.2317,-6.2284,-6.2811,-6.276,-6.2597,-8.8169,-8.8026,-8.6387,-8.5195,-8.4291,-8.331,-8.1892,-8.0125,-7.8448,0.0,0.0,-7.8646,-7.862,-7.8166,-7.8641,-7.8154,-7.6959,-7.6747,-7.6604,-7.6454,-7.64,-7.6224,-7.5914,-7.5825,-7.5724,-7.5549,-7.5535,-7.5518,-7.5518,-7.5518,-7.5518,-7.5518,-7.5518,-7.4983,-7.3913,-7.1773,-6.9648,-6.7668,-6.6531,-6.6175,-6.6548,-6.5846,-6.5016,-6.4107,-6.2539,-6.0878,-5.9146,-5.857,-5.7975,-5.7275,-5.822,-5.8613,-5.8332,-5.792,-5.7353,-5.6606,-5.604,-5.6126,-5.6902,-5.6522,-5.7118,-5.9011,-5.9554,-5.9358,-5.8116,-5.9335,-6.0777,-6.2204,-6.2485,-6.2902,-6.3615,-6.3997,-6.4482,-6.5314,-6.5561,-6.5779,-6.6086,-6.6024,-6.5713,-6.483,-6.4722,-6.4562,-6.4599,-6.4734,-6.4974,-6.5624,-6.5436,-6.4884,-6.4935,-6.4533,-6.3785,-6.2586,-6.1917,-6.1499,-6.121,-6.1161,-6.1152,-6.1359,-6.1517,-6.2122,-6.3409,-6.4169,-6.4279,-6.351,-6.3943,-6.326,-6.1867,-6.14,-6.1765,-6.1765,-6.1469,-6.1233,-6.1169,-6.0757,-6.0469,-8.9281,-8.9087,-8.67,-8.5195,-8.4291,-8.265,-8.0979,-7.9298,-7.8984,-7.8906,-7.8889,-7.8318,-7.8437,-7.8942,-7.7671,-7.735,-7.7766,-7.6982,-7.6633,-7.6642,-7.6377,-7.6273,-7.627,-7.5971,-7.5764,-7.5718,-7.5583,-7.5518,-7.5518,-7.5518,-7.5518,-7.5518,-7.5518,-7.475,-7.327,-7.2138,-7.1153,-7.0258,-6.8655,-6.7127,-6.5729,-6.5728,-6.4944,-6.3349,-6.2323,-6.0654,-5.8326,-5.8836,-5.8094,-5.5975,-5.7354,-5.8048,-5.7723,-5.8886,-5.9335,-5.8769,-5.9479,-5.9601,-5.8764,-5.8406,-5.8381,-5.8713,-5.8847,-5.9358,-6.0564,-6.0927,-6.1313,-6.182,-6.249,-6.2911,-6.2837,-6.42,-6.5242,-6.5423,-6.6089,-6.6605,-6.6598,-6.6183,-6.5806,-6.5615,-6.538,-6.5033,-6.5044,-6.5401,-6.5569,-6.5612,-6.5494,-6.5303,-6.4428,-6.3346,-6.2663,-6.2274,-6.1669,-6.121,-6.1119,-6.1119,-6.1351,-6.1947,-6.1525,-6.1708,-6.3178,-6.3684,-6.3245,-6.1135,-6.188,-6.1308,-5.8844,-5.8717,-5.9473,-5.9678,-5.9425,-5.914,-5.914,-5.8338,-5.8151,-8.9507,-8.9235,-8.7292,-8.5894,-8.5,-8.3233,-8.1796,-8.0581,-8.0611,-8.0329,-7.9843,-7.9456,-7.9563,-7.9835,-7.8679,-7.8067,-7.7969,-7.7069,-7.6681,-7.6669,-7.6526,-7.6443,-7.6389,-7.6236,-7.5988,-7.5795,-7.5708,-7.5616,-7.5518,-7.5518,-7.5497,-7.5493,-7.4669,-7.4052,-7.375,-7.1558,-7.0532,-7.0729,-6.9464,-6.82,-6.6989,-6.6574,-6.5726,-6.4355,-6.3532,-6.2585,-6.1435,-6.1298,-6.0634,-5.9331,-6.0075,-6.0118,-5.9363,-6.0005,-6.0082,-5.9399,-5.9791,-5.9849,-5.9234,-5.9336,-5.9536,-5.9816,-5.9632,-6.0166,-6.1748,-6.1105,-6.093,-6.1594,-6.2397,-6.292,-6.3064,-6.467,-6.5526,-6.5113,-6.5466,-6.5796,-6.5966,-6.5361,-6.4897,-6.4788,-6.4597,-6.4548,-6.4831,-6.4939,-6.5301,-6.5695,-6.5621,-6.4945,-6.4287,-6.3343,-6.2547,-6.2274,-6.1628,-6.1169,-6.1119,-6.1119,-6.1417,-6.2089,-6.1583,-6.1781,-6.2951,-6.3221,-6.2288,-6.0999,-6.1087,-6.0514,-5.8346,-5.8448,-5.8781,-5.8829,-5.8567,-5.8332,-5.8128,-5.7109,-5.6721,-8.939,-8.9079,-8.7409,-8.6205,-8.5272,-8.3757,-8.2728,-8.2116,-8.1951,-8.1485,-8.0874,-8.0631,-8.065,-8.0766,-7.9562,-7.8755,-7.8228,-7.7218,-7.6713,-7.6713,-7.6713,-7.6603,-7.6465,-7.6433,-7.6197,-7.5899,-7.581,-7.5692,-7.5497,-7.5327,-7.5115,-7.4915,-7.3932,-7.3597,-7.3852,-7.1452,-7.0356,-7.0676,-7.0011,-6.9153,-6.8215,-6.7467,-6.6666,-6.5749,-6.4908,-6.4397,-6.4206,-6.3571,-6.3053,-6.2658,-6.2443,-6.1929,-6.1077,-6.0817,-6.0367,-5.9698,-5.9677,-5.9609,-5.94,-5.97,-6.0071,-6.0366,-6.0066,-6.0377,-6.1385,-6.0618,-6.0404,-6.1494,-6.2365,-6.2899,-6.3057,-6.4511,-6.5164,-6.424,-6.4403,-6.4769,-6.5012,-6.4602,-6.4099,-6.3924,-6.3836,-6.3986,-6.4144,-6.4187,-6.4663,-6.56,-6.5178,-6.4498,-6.418,-6.3526,-6.2851,-6.243,-6.175,-6.1293,-6.121,-6.1161,-6.1483,-6.2255,-6.1682,-6.2013,-6.2875,-6.2756,-6.1655,-6.0816,-6.0514,-5.9775,-5.8597,-5.8239,-5.8116,-5.7789,-5.7328,-5.7082,-5.6452,-5.5664,-5.5219,-8.9079,-8.8186,-8.6593,-8.5311,-8.4495,-8.3524,-8.3058,-8.2864,-8.2203,-8.1892,-8.165,-8.0951,-8.1028,-8.1387,-7.9212,-7.8556,-7.9011,-7.754,-7.6808,-7.6808,-7.6769,-7.6762,-7.6651,-7.6485,-7.6297,-7.6043,-7.5861,-7.5625,-7.5323,-7.4694,-7.3951,-7.3433,-7.3986,-7.3584,-7.2395,-7.2587,-7.2149,-7.0909,-7.0666,-6.9787,-6.8306,-6.8139,-6.7635,-6.6666,-6.5765,-6.4917,-6.432,-6.4259,-6.3893,-6.3075,-6.2372,-6.186,-6.168,-6.0933,-6.0317,-6.0013,-6.0182,-6.0114,-5.9715,-5.9494,-5.9364,-5.9189,-5.9126,-5.9261,-5.9586,-5.9417,-5.9992,-6.1422,-6.2617,-6.2572,-6.1744,-6.3207,-6.3693,-6.2443,-6.3297,-6.4108,-6.422,-6.4713,-6.482,-6.4037,-6.3751,-6.3747,-6.3302,-6.3823,-6.4575,-6.5234,-6.4809,-6.4322,-6.418,-6.36,-6.3114,-6.2813,-6.2189,-6.1709,-6.1628,-6.1334,-6.1883,-6.2837,-6.2056,-6.2255,-6.3173,-6.253,-6.0887,-6.0101,-5.9411,-5.8639,-5.7497,-5.68,-5.6616,-5.6061,-5.5451,-5.4635,-5.3456,-5.3109,-5.365,-8.8613,-8.8186,-8.6982,-8.5972,-8.5117,-8.4223,-8.3563,-8.3019,-8.2242,-8.1892,-8.1892,-8.1504,-8.1252,-8.1,-7.9489,-7.8754,-7.8497,-7.7357,-7.6839,-7.6839,-7.6798,-7.6801,-7.6762,-7.6651,-7.6221,-7.5553,-7.5426,-7.5,-7.4365,-7.4048,-7.3745,-7.3476,-7.3769,-7.3538,-7.2927,-7.2659,-7.2261,-7.1706,-7.1112,-7.0469,-6.9854,-6.9313,-6.8306,-6.6963,-6.6421,-6.5803,-6.5023,-6.5025,-6.4918,-6.4586,-6.4321,-6.3911,-6.3359,-6.2489,-6.1691,-6.1018,-6.0403,-6.0187,-6.043,-5.9719,-5.9402,-5.9714,-5.934,-5.9267,-5.9736,-5.9458,-5.9657,-6.0433,-6.114,-6.1325,-6.1154,-6.2652,-6.3194,-6.2267,-6.2978,-6.3754,-6.3938,-6.331,-6.2786,-6.2642,-6.2324,-6.2383,-6.2952,-6.4002,-6.4787,-6.4908,-6.4533,-6.4323,-6.4287,-6.3858,-6.36,-6.3452,-6.2928,-6.2386,-6.2183,-6.2394,-6.2937,-6.3567,-6.3325,-6.34,-6.3387,-6.2442,-6.0724,-5.9407,-5.8732,-5.7965,-5.6981,-5.6265,-5.5848,-5.497,-5.4201,-5.3541,-5.293,-5.2407,-5.2348,-8.8341,-8.7875,-8.7254,-8.6632,-8.601,-8.5117,-8.4408,-8.3738,-8.2932,-8.2573,-8.2553,-8.2563,-8.1922,-8.0776,-7.9826,-7.9019,-7.8318,-7.7371,-7.6794,-7.6638,-7.6534,-7.6494,-7.6473,-7.6388,-7.6041,-7.5487,-7.5244,-7.4444,-7.3304,-7.3266,-7.3097,-7.2737,-7.2791,-7.2624,-7.2251,-7.1824,-7.1692,-7.1491,-7.1066,-7.0871,-7.0769,-7.0022,-6.881,-6.7338,-6.6925,-6.633,-6.5467,-6.5523,-6.5622,-6.5624,-6.5513,-6.514,-6.45,-6.3577,-6.2703,-6.1984,-6.1149,-6.0861,-6.1385,-6.0301,-5.9853,-6.0302,-5.9702,-5.942,-5.9738,-5.9553,-5.9586,-6.0098,-6.0277,-6.0576,-6.1,-6.2249,-6.2737,-6.2153,-6.275,-6.3346,-6.3373,-6.2292,-6.1845,-6.1918,-6.1606,-6.1357,-6.249,-6.3576,-6.4215,-6.4251,-6.4358,-6.4358,-6.4323,-6.4073,-6.3856,-6.3854,-6.3552,-6.3346,-6.296,-6.3024,-6.3768,-6.3956,-6.3685,-6.3233,-6.3264,-6.171,-6.0546,-5.9211,-5.8308,-5.7574,-5.6957,-5.6303,-5.5139,-5.4243,-5.3163,-5.218,-5.1601,-5.1092,-5.0522,-8.8536,-8.7147,-8.702,-8.6943,-8.6865,-8.5972,-8.5553,-8.5279,-8.4543,-8.4164,-8.4012,-8.4005,-8.3191,-8.1529,-8.0051,-7.936,-7.9084,-7.7667,-7.6626,-7.6045,-7.583,-7.5735,-7.5651,-7.5588,-7.576,-7.583,-7.5177,-7.398,-7.2328,-7.2289,-7.153,-7.0165,-7.0908,-7.0456,-6.9517,-7.0426,-7.0671,-7.008,-7.0398,-7.0752,-7.0717,-6.9931,-6.8977,-6.8009,-6.7261,-6.6368,-6.5558,-6.5523,-6.5663,-6.5795,-6.509,-6.4616,-6.4526,-6.3573,-6.2915,-6.275,-6.2543,-6.2459,-6.2357,-6.1362,-6.0715,-6.0714,-5.9985,-5.9347,-5.9647,-5.9591,-5.996,-6.0948,-6.0848,-6.0873,-6.135,-6.2165,-6.2332,-6.1883,-6.23,-6.2714,-6.2672,-6.2498,-6.2427,-6.2291,-6.1776,-6.1467,-6.1848,-6.2264,-6.2926,-6.3415,-6.3974,-6.4358,-6.4217,-6.4037,-6.3856,-6.3814,-6.4045,-6.4412,-6.4063,-6.3804,-6.3667,-6.3525,-6.3166,-6.2571,-6.16,-6.067,-5.9882,-5.9104,-5.8371,-5.7653,-5.7103,-5.6039,-5.4582,-5.3074,-5.1023,-5.0006,-5.0171,-4.9009,-4.8578,-8.7564,-8.703,-8.703,-8.703,-8.6914,-8.6049,-8.569,-8.5592,-8.4717,-8.4309,-8.4161,-8.3706,-8.2831,-8.1624,-8.0123,-7.9124,-7.8513,-7.7504,-7.6883,-7.6568,-7.5989,-7.5702,-7.5596,-7.5028,-7.4399,-7.4082,-7.3811,-7.2773,-7.124,-7.1093,-7.0516,-6.9717,-7.0144,-6.9943,-6.9208,-6.9687,-6.9772,-6.9001,-6.91,-6.9169,-6.9184,-6.8848,-6.823,-6.7376,-6.6963,-6.6368,-6.5413,-6.5523,-6.5622,-6.5676,-6.5513,-6.5384,-6.5152,-6.4307,-6.3732,-6.3611,-6.2994,-6.2855,-6.3204,-6.2421,-6.174,-6.1704,-6.128,-6.0849,-6.0886,-6.0789,-6.1019,-6.17,-6.1826,-6.2086,-6.2738,-6.2978,-6.2842,-6.2614,-6.2718,-6.3064,-6.3093,-6.2465,-6.1803,-6.1858,-6.1339,-6.0722,-6.0765,-6.1599,-6.2609,-6.282,-6.3694,-6.4218,-6.4216,-6.4036,-6.3856,-6.3818,-6.3915,-6.3965,-6.3942,-6.4069,-6.3937,-6.3233,-6.2647,-6.2444,-6.1775,-6.0842,-6.0058,-5.9576,-5.8701,-5.7969,-5.7425,-5.538,-5.3944,-5.256,-5.0442,-4.8987,-4.8909,-4.8364,-4.8154,-8.703,-8.703,-8.703,-8.703,-8.6904,-8.636,-8.6117,-8.6019,-8.5325,-8.4882,-8.4432,-8.3424,-8.2444,-8.1413,-7.9849,-7.8754,-7.8106,-7.7425,-7.6982,-7.6629,-7.5702,-7.5255,-7.5123,-7.4265,-7.3601,-7.3195,-7.2694,-7.177,-7.053,-7.0136,-6.9589,-6.8878,-6.9299,-6.9048,-6.8451,-6.8721,-6.8598,-6.814,-6.8164,-6.823,-6.8177,-6.7894,-6.7467,-6.6834,-6.6498,-6.6085,-6.5413,-6.5518,-6.5552,-6.5622,-6.5769,-6.5756,-6.5475,-6.4982,-6.4617,-6.4505,-6.3932,-6.3733,-6.4175,-6.346,-6.2834,-6.2694,-6.2181,-6.1864,-6.1768,-6.1609,-6.1731,-6.2077,-6.2523,-6.2967,-6.3519,-6.3728,-6.3659,-6.352,-6.3415,-6.3518,-6.3754,-6.257,-6.1903,-6.1782,-6.1129,-6.0299,-5.9976,-6.116,-6.1828,-6.1974,-6.3201,-6.4004,-6.4073,-6.3999,-6.3995,-6.4129,-6.4364,-6.416,-6.3927,-6.3822,-6.3482,-6.2731,-6.2118,-6.2065,-6.1643,-6.0836,-6.0356,-5.9837,-5.9263,-5.8517,-5.7089,-5.4996,-5.3497,-5.2322,-5.0353,-4.8559,-4.8364,-4.8201,-4.8017,-8.6953,-8.6846,-8.6992,-8.6865,-8.6749,-8.6749,-8.6835,-8.6528,-8.6386,-8.5578,-8.4559,-8.3321,-8.2031,-8.1021,-7.908,-7.815,-7.7762,-7.7193,-7.6671,-7.6087,-7.501,-7.4528,-7.4455,-7.3423,-7.316,-7.3587,-7.2375,-7.1223,-7.0212,-6.9517,-6.8777,-6.8115,-6.8037,-6.7726,-6.6705,-6.7265,-6.7384,-6.7371,-6.7704,-6.7985,-6.8062,-6.7223,-6.6757,-6.6628,-6.5917,-6.549,-6.5413,-6.5413,-6.5488,-6.5552,-6.5537,-6.5465,-6.5435,-6.5417,-6.5456,-6.5238,-6.5253,-6.5322,-6.523,-6.4419,-6.3856,-6.3664,-6.2725,-6.2165,-6.2144,-6.1871,-6.1794,-6.2153,-6.2595,-6.3176,-6.3444,-6.3985,-6.4427,-6.4393,-6.4113,-6.39,-6.3755,-6.3054,-6.2389,-6.1953,-6.1134,-6.055,-6.0452,-6.0804,-6.1117,-6.1397,-6.2522,-6.3641,-6.3818,-6.3923,-6.4198,-6.4537,-6.4772,-6.4611,-6.4013,-6.3422,-6.2791,-6.216,-6.1663,-6.1316,-6.0652,-5.9987,-6.037,-6.0065,-5.9882,-5.9105,-5.7335,-5.5323,-5.3602,-5.22,-5.0067,-4.8465,-4.8336,-4.8252,-4.7881,-8.5813,-8.5369,-8.5894,-8.5738,-8.535,-8.5855,-8.5716,-8.4991,-8.4868,-8.4249,-8.3252,-8.2171,-8.0667,-7.9128,-7.8201,-7.7125,-7.5658,-7.59,-7.6347,-7.6401,-7.5101,-7.4386,-7.409,-7.2769,-7.1863,-7.1559,-7.1075,-7.0083,-6.8977,-6.8505,-6.7985,-6.7301,-6.7204,-6.7027,-6.6727,-6.6539,-6.6417,-6.6383,-6.6293,-6.6253,-6.6253,-6.6009,-6.5826,-6.5788,-6.5543,-6.5383,-6.5321,-6.5321,-6.5352,-6.5398,-6.5429,-6.5459,-6.545,-6.545,-6.5444,-6.5398,-6.5398,-6.5413,-6.536,-6.5077,-6.4791,-6.4638,-6.4116,-6.3766,-6.3478,-6.3218,-6.3317,-6.3641,-6.3584,-6.3563,-6.4475,-6.4266,-6.4245,-6.4567,-6.3869,-6.3657,-6.3861,-6.3099,-6.2161,-6.1529,-6.069,-5.9991,-5.975,-6.0169,-6.0858,-6.0917,-6.2237,-6.3305,-6.3374,-6.387,-6.4157,-6.4117,-6.4525,-6.4793,-6.3976,-6.3328,-6.2791,-6.1991,-6.1278,-6.0869,-6.012,-5.9783,-6.0173,-6.021,-6.0051,-5.9144,-5.7352,-5.5589,-5.3779,-5.2031,-5.0105,-4.918,-4.8742,-4.8381,-4.7944,-8.4816,-8.4132,-8.4863,-8.4923,-8.4447,-8.494,-8.4738,-8.4106,-8.39,-8.3119,-8.1928,-8.0733,-7.9121,-7.7445,-7.7101,-7.6027,-7.4488,-7.5252,-7.5855,-7.5915,-7.4648,-7.389,-7.3719,-7.2393,-7.1216,-7.0505,-7.0141,-6.9294,-6.8028,-6.7656,-6.7283,-6.6868,-6.6814,-6.6798,-6.6771,-6.6344,-6.608,-6.5951,-6.5705,-6.5459,-6.5383,-6.5368,-6.5352,-6.5337,-6.5321,-6.5305,-6.528,-6.5248,-6.521,-6.5274,-6.5398,-6.5532,-6.5566,-6.5566,-6.5523,-6.5465,-6.542,-6.536,-6.522,-6.5155,-6.504,-6.4833,-6.4766,-6.468,-6.4411,-6.4196,-6.433,-6.4314,-6.3826,-6.3629,-6.4188,-6.4108,-6.3892,-6.4214,-6.3834,-6.3623,-6.3823,-6.3155,-6.2411,-6.1665,-6.0845,-6.0137,-6.0056,-6.0277,-6.1006,-6.1186,-6.2167,-6.306,-6.3132,-6.357,-6.3721,-6.3939,-6.4459,-6.4343,-6.37,-6.3183,-6.2769,-6.191,-6.0994,-6.0647,-6.0173,-5.9968,-6.0065,-5.9853,-5.9655,-5.8727,-5.7066,-5.5279,-5.3466,-5.1763,-5.0212,-4.9216,-4.8518,-4.8261,-4.8029,-8.4068,-8.3384,-8.4085,-8.4379,-8.4243,-8.4134,-8.3924,-8.3785,-8.3432,-8.2301,-8.0723,-7.9392,-7.7817,-7.637,-7.5797,-7.5057,-7.4422,-7.4875,-7.4858,-7.4177,-7.3331,-7.2945,-7.2789,-7.2212,-7.1452,-7.052,-6.9752,-6.8882,-6.7992,-6.7286,-6.6798,-6.6795,-6.6792,-6.682,-6.6732,-6.6465,-6.617,-6.5992,-6.5731,-6.5503,-6.5436,-6.5344,-6.5388,-6.5324,-6.5286,-6.5232,-6.5161,-6.5111,-6.5095,-6.5194,-6.542,-6.5594,-6.569,-6.5731,-6.5703,-6.5566,-6.5523,-6.5314,-6.4985,-6.4955,-6.4833,-6.4482,-6.4704,-6.4845,-6.465,-6.4577,-6.434,-6.3991,-6.3646,-6.3265,-6.3076,-6.3318,-6.3578,-6.3621,-6.3869,-6.3897,-6.3602,-6.3227,-6.2672,-6.2217,-6.1379,-6.0812,-6.1069,-6.1268,-6.1534,-6.1847,-6.2453,-6.2797,-6.3023,-6.3333,-6.3635,-6.3958,-6.4315,-6.4284,-6.3748,-6.3498,-6.3128,-6.2571,-6.1521,-6.0861,-6.044,-6.0194,-5.9979,-5.9661,-5.9056,-5.8087,-5.6826,-5.5055,-5.3377,-5.1837,-5.0379,-4.9108,-4.8534,-4.8457,-4.8491,-8.4932,-8.4209,-8.4318,-8.4029,-8.3466,-8.3231,-8.2677,-8.1978,-8.1662,-8.0696,-7.9188,-7.8596,-7.726,-7.5375,-7.5221,-7.446,-7.3557,-7.3618,-7.3217,-7.2443,-7.2142,-7.2001,-7.2212,-7.2501,-7.19,-7.0575,-6.9718,-6.8847,-6.7992,-6.7247,-6.6834,-6.6798,-6.6798,-6.6792,-6.6727,-6.6368,-6.614,-6.6013,-6.5692,-6.5818,-6.6162,-6.5689,-6.5642,-6.6074,-6.5601,-6.527,-6.5095,-6.5073,-6.509,-6.5139,-6.539,-6.5537,-6.558,-6.5649,-6.5622,-6.5494,-6.5474,-6.5383,-6.5155,-6.492,-6.4705,-6.4708,-6.4812,-6.486,-6.473,-6.5051,-6.4696,-6.4129,-6.3993,-6.3808,-6.304,-6.3342,-6.3786,-6.3833,-6.3933,-6.3856,-6.36,-6.3265,-6.2813,-6.2352,-6.2226,-6.2122,-6.2058,-6.2354,-6.2695,-6.2789,-6.2908,-6.2855,-6.2959,-6.3339,-6.379,-6.3669,-6.3855,-6.4042,-6.4011,-6.3764,-6.3477,-6.3224,-6.2318,-6.1283,-6.0828,-6.0407,-6.0194,-5.9902,-5.8803,-5.7783,-5.6465,-5.4897,-5.3375,-5.1733,-5.0162,-4.877,-4.9141,-4.925,-4.9145,-8.4738,-8.3944,-8.3891,-8.3524,-8.2898,-8.2378,-8.1708,-8.1092,-8.0795,-8.0042,-7.8952,-7.8448,-7.7077,-7.5117,-7.5078,-7.4023,-7.249,-7.3096,-7.2738,-7.1684,-7.1931,-7.1979,-7.1946,-7.2312,-7.1822,-7.0639,-7.0021,-6.9142,-6.8149,-6.7507,-6.7133,-6.6873,-6.6798,-6.6787,-6.6755,-6.6451,-6.6204,-6.6157,-6.6138,-6.6413,-6.6621,-6.6621,-6.6666,-6.6799,-6.62,-6.553,-6.5086,-6.5123,-6.5236,-6.5245,-6.5435,-6.558,-6.5676,-6.5728,-6.566,-6.5494,-6.5465,-6.536,-6.5019,-6.4741,-6.4672,-6.4775,-6.4957,-6.5136,-6.525,-6.5551,-6.5307,-6.4975,-6.4731,-6.4162,-6.3617,-6.3649,-6.4001,-6.4354,-6.4064,-6.3781,-6.36,-6.3414,-6.3076,-6.2829,-6.2837,-6.3064,-6.2882,-6.3444,-6.368,-6.3756,-6.362,-6.3266,-6.2989,-6.3457,-6.3733,-6.3581,-6.3539,-6.373,-6.3876,-6.3735,-6.3555,-6.3302,-6.2663,-6.1649,-6.0745,-6.0269,-5.9718,-5.9189,-5.8346,-5.7355,-5.5938,-5.4512,-5.2846,-5.1248,-4.9681,-4.9052,-4.928,-4.9472,-4.9472,-8.4358,-8.3571,-8.3328,-8.3141,-8.2944,-8.1746,-8.1184,-8.0965,-8.0702,-8.0075,-7.9225,-7.8634,-7.7169,-7.5217,-7.5098,-7.3974,-7.2189,-7.3229,-7.2619,-7.195,-7.1899,-7.2104,-7.1803,-7.2088,-7.1683,-7.0834,-7.0541,-6.9504,-6.8397,-6.7985,-6.7429,-6.694,-6.6792,-6.6766,-6.6672,-6.6522,-6.6384,-6.6351,-6.6791,-6.7038,-6.7166,-6.7514,-6.7753,-6.773,-6.6709,-6.5901,-6.5369,-6.5286,-6.5436,-6.5528,-6.569,-6.6024,-6.6229,-6.623,-6.6127,-6.5991,-6.592,-6.5536,-6.4924,-6.4764,-6.459,-6.4799,-6.5053,-6.5427,-6.5779,-6.5998,-6.5988,-6.5613,-6.5193,-6.4859,-6.4475,-6.4056,-6.4212,-6.4741,-6.4277,-6.3919,-6.3777,-6.374,-6.3555,-6.3209,-6.3396,-6.3768,-6.3994,-6.4281,-6.4465,-6.4432,-6.4221,-6.3786,-6.3342,-6.3321,-6.3402,-6.3285,-6.3353,-6.3489,-6.3597,-6.3634,-6.3489,-6.3268,-6.2625,-6.1683,-6.0312,-5.9608,-5.894,-5.8257,-5.7668,-5.6665,-5.5411,-5.3845,-5.2487,-5.135,-5.0115,-4.954,-4.9158,-4.9281,-4.9359,-8.6914,-8.6049,-8.4527,-8.4231,-8.4288,-8.2053,-8.1244,-8.1738,-8.0882,-7.9833,-7.8658,-7.8322,-7.7262,-7.5659,-7.5028,-7.4589,-7.3644,-7.3164,-7.2181,-7.1503,-7.1433,-7.1666,-7.1807,-7.2309,-7.2228,-7.1354,-7.0069,-6.9345,-6.8788,-6.7837,-6.6982,-6.6901,-6.6752,-6.6724,-6.6644,-6.6507,-6.6251,-6.6313,-6.6873,-6.7564,-6.7947,-6.8129,-6.8448,-6.8655,-6.7305,-6.6336,-6.5973,-6.5617,-6.5719,-6.6253,-6.671,-6.718,-6.7603,-6.7692,-6.7547,-6.7242,-6.6704,-6.63,-6.596,-6.5179,-6.4702,-6.5234,-6.5423,-6.5437,-6.597,-6.6482,-6.6265,-6.5917,-6.596,-6.6066,-6.5653,-6.5119,-6.5049,-6.5128,-6.5161,-6.505,-6.4905,-6.4648,-6.4312,-6.417,-6.4591,-6.5091,-6.4807,-6.5014,-6.5083,-6.5105,-6.473,-6.4277,-6.3872,-6.34,-6.3283,-6.3255,-6.3167,-6.334,-6.3563,-6.36,-6.3489,-6.3446,-6.2915,-6.2195,-6.0811,-5.9734,-5.9351,-5.8277,-5.7132,-5.6028,-5.4989,-5.4022,-5.2779,-5.1708,-5.0629,-5.0081,-4.9618,-4.9502,-4.9277,-8.7664,-8.6622,-8.4863,-8.443,-8.4532,-8.2462,-8.1611,-8.1834,-8.1383,-8.0179,-7.8777,-7.8063,-7.6744,-7.5287,-7.4148,-7.3395,-7.3035,-7.2611,-7.229,-7.2146,-7.2016,-7.1844,-7.1949,-7.2182,-7.2033,-7.1505,-7.0844,-7.0212,-6.9481,-6.8499,-6.7754,-6.7231,-6.6917,-6.6585,-6.6711,-6.6772,-6.6901,-6.6999,-6.752,-6.8292,-6.8899,-6.8935,-6.8896,-6.9176,-6.8263,-6.7594,-6.7162,-6.6963,-6.7242,-6.7812,-6.8231,-6.8347,-6.8372,-6.8358,-6.8262,-6.7897,-6.724,-6.6697,-6.6276,-6.5973,-6.5732,-6.6191,-6.6468,-6.6875,-6.7244,-6.7632,-6.7511,-6.7203,-6.742,-6.7683,-6.7501,-6.6585,-6.6246,-6.6391,-6.6144,-6.5997,-6.5851,-6.5593,-6.5293,-6.5156,-6.5483,-6.559,-6.5607,-6.5631,-6.547,-6.536,-6.5227,-6.4774,-6.4241,-6.3809,-6.3489,-6.3362,-6.311,-6.3186,-6.3489,-6.3563,-6.3526,-6.3552,-6.3532,-6.2867,-6.1911,-6.0962,-6.0084,-5.8729,-5.7322,-5.5914,-5.4884,-5.3923,-5.2938,-5.1517,-5.0592,-5.035,-5.0015,-4.9474,-4.9251,-8.753,-8.6286,-8.4713,-8.4189,-8.411,-8.2566,-8.1757,-8.1805,-8.1652,-8.0352,-7.9006,-7.7454,-7.6194,-7.4486,-7.3144,-7.2018,-7.1747,-7.201,-7.2597,-7.3028,-7.2365,-7.2249,-7.2231,-7.1881,-7.1753,-7.1728,-7.1236,-7.0835,-7.0416,-6.9592,-6.8559,-6.8053,-6.7353,-6.7041,-6.6951,-6.7226,-6.7464,-6.7472,-6.7944,-6.8828,-6.9548,-6.9618,-6.9498,-6.9342,-6.9191,-6.8655,-6.8139,-6.806,-6.8577,-6.954,-6.9746,-6.9374,-6.8907,-6.8702,-6.8507,-6.8204,-6.7493,-6.7187,-6.7093,-6.6844,-6.6796,-6.7523,-6.7947,-6.8415,-6.8717,-6.8703,-6.8636,-6.8749,-6.8853,-6.9048,-6.9346,-6.8384,-6.7903,-6.7905,-6.7268,-6.6839,-6.6727,-6.6614,-6.6428,-6.619,-6.6308,-6.6371,-6.617,-6.6085,-6.5831,-6.557,-6.5481,-6.5205,-6.4607,-6.4048,-6.3626,-6.3296,-6.3017,-6.311,-6.3452,-6.36,-6.3526,-6.3592,-6.3789,-6.3315,-6.2615,-6.1509,-6.0337,-5.8956,-5.7512,-5.6217,-5.4989,-5.3997,-5.2829,-5.1265,-5.0618,-5.0481,-4.9995,-4.9392,-4.9307,-8.7181,-8.5473,-8.4261,-8.371,-8.3308,-8.1569,-8.125,-8.1614,-8.1079,-7.9378,-7.7367,-7.7067,-7.571,-7.3976,-7.3468,-7.3,-7.2524,-7.2786,-7.3085,-7.3245,-7.264,-7.2366,-7.2375,-7.1904,-7.1891,-7.1997,-7.1445,-7.0973,-7.0968,-6.9857,-6.9135,-6.8903,-6.8482,-6.8014,-6.7484,-6.7569,-6.759,-6.7666,-6.7965,-6.864,-6.9756,-6.996,-6.9836,-6.969,-6.9648,-6.9226,-6.8548,-6.8371,-6.8719,-6.9488,-6.9617,-6.9788,-6.9896,-7.0162,-6.9841,-6.9054,-6.8225,-6.7905,-6.8171,-6.7524,-6.7825,-6.865,-6.9041,-6.8888,-6.9092,-6.9131,-6.9338,-6.9594,-6.9787,-6.9849,-6.9084,-6.9003,-6.8633,-6.8285,-6.7973,-6.7764,-6.7902,-6.7788,-6.7566,-6.7187,-6.7271,-6.7161,-6.6908,-6.6576,-6.6296,-6.5965,-6.5702,-6.5282,-6.465,-6.4005,-6.3442,-6.3086,-6.2821,-6.306,-6.3417,-6.3563,-6.3563,-6.356,-6.3658,-6.3546,-6.2765,-6.1676,-6.044,-5.9177,-5.795,-5.6672,-5.5451,-5.42,-5.3094,-5.1827,-5.1251,-5.0684,-5.0161,-4.9662,-4.9547,-8.6192,-8.5048,-8.3663,-8.314,-8.2963,-8.1765,-8.1385,-8.1614,-8.085,-7.9054,-7.7079,-7.6031,-7.4672,-7.3024,-7.2315,-7.2297,-7.2709,-7.344,-7.3631,-7.3613,-7.3129,-7.2811,-7.2842,-7.2297,-7.2376,-7.2481,-7.1929,-7.1655,-7.2057,-7.0451,-6.9696,-6.9356,-6.8751,-6.7977,-6.7667,-6.7522,-6.781,-6.8042,-6.8236,-6.897,-7.0468,-7.0521,-7.0413,-7.0363,-7.0337,-7.0119,-6.9962,-6.982,-7.0037,-7.0397,-7.0501,-7.064,-7.08,-7.085,-7.0604,-6.9611,-6.8921,-6.8697,-6.9247,-6.8863,-6.9551,-6.9867,-7.0238,-7.0435,-7.0319,-7.0351,-7.0361,-7.0659,-7.0738,-7.0775,-7.0392,-7.0123,-6.9892,-6.9611,-6.913,-6.8893,-6.9,-6.8818,-6.842,-6.8087,-6.7946,-6.7758,-6.7529,-6.7161,-6.6779,-6.6397,-6.6009,-6.5367,-6.4714,-6.4005,-6.3315,-6.3141,-6.2871,-6.306,-6.3336,-6.3405,-6.3474,-6.3474,-6.3683,-6.357,-6.3188,-6.2226,-6.0976,-5.9598,-5.8384,-5.6553,-5.5531,-5.4186,-5.3308,-5.2355,-5.1428,-5.0685,-5.0322,-5.0039,-4.9783,-8.5021,-8.4392,-8.2887,-8.233,-8.232,-8.1423,-8.0964,-8.085,-8.0009,-7.8175,-7.6012,-7.4819,-7.3433,-7.2091,-7.1633,-7.1749,-7.2539,-7.3784,-7.418,-7.4363,-7.3845,-7.3548,-7.3291,-7.3198,-7.3082,-7.3152,-7.2741,-7.2807,-7.2427,-7.1145,-7.0495,-7.0176,-6.8878,-6.815,-6.8258,-6.8345,-6.8576,-6.8759,-6.8914,-6.9639,-7.0651,-7.1124,-7.1026,-7.0988,-7.1026,-7.1035,-7.0706,-7.091,-7.1037,-7.1142,-7.1151,-7.121,-7.1292,-7.1298,-7.0801,-6.9926,-6.9552,-6.9477,-6.9901,-7.0451,-7.0867,-7.112,-7.1876,-7.1911,-7.1696,-7.1459,-7.1665,-7.1811,-7.1769,-7.1604,-7.1397,-7.1167,-7.1002,-7.0865,-7.0257,-6.9707,-6.9564,-6.9282,-6.8788,-6.8534,-6.8478,-6.8274,-6.7994,-6.7638,-6.727,-6.6862,-6.6482,-6.5273,-6.461,-6.3843,-6.3315,-6.3161,-6.3106,-6.3102,-6.3254,-6.3307,-6.3299,-6.3246,-6.3587,-6.3786,-6.3436,-6.2985,-6.1245,-5.9184,-5.727,-5.5577,-5.4819,-5.4045,-5.289,-5.1922,-5.1238,-5.0572,-4.9926,-4.9583,-4.9408,-8.3867,-8.2733,-8.1768,-8.1154,-8.06,-7.9169,-7.8481,-7.8404,-7.7602,-7.573,-7.3777,-7.3649,-7.2803,-7.1737,-7.2058,-7.2956,-7.3782,-7.4254,-7.4694,-7.5017,-7.4434,-7.385,-7.357,-7.3644,-7.3712,-7.3767,-7.326,-7.2828,-7.252,-7.1619,-7.1162,-7.1009,-7.0689,-7.0515,-6.9585,-6.9314,-6.9905,-6.9788,-6.9275,-6.9438,-7.0286,-7.0988,-7.0899,-7.064,-7.0794,-7.0999,-7.0634,-7.0982,-7.1291,-7.128,-7.1181,-7.1108,-7.109,-7.0953,-7.0836,-7.0537,-7.0354,-7.0391,-7.09,-7.1331,-7.185,-7.2198,-7.2659,-7.2443,-7.2277,-7.2226,-7.2255,-7.1988,-7.213,-7.2219,-7.2108,-7.1769,-7.1583,-7.1246,-7.0807,-7.0129,-6.9782,-6.9447,-6.8993,-6.8607,-6.8399,-6.8461,-6.8334,-6.8033,-6.7678,-6.7312,-6.6735,-6.5607,-6.4497,-6.3718,-6.3183,-6.3057,-6.3003,-6.3068,-6.2885,-6.2969,-6.2759,-6.2797,-6.298,-6.3343,-6.2674,-6.1768,-6.0141,-5.8059,-5.6184,-5.4746,-5.3984,-5.3155,-5.2193,-5.143,-5.0656,-4.9983,-4.9358,-4.9094,-4.8827,-8.209,-8.1761,-8.0327,-7.9538,-7.9062,-7.7809,-7.7258,-7.6991,-7.5844,-7.4431,-7.3237,-7.3307,-7.2829,-7.2259,-7.3219,-7.3844,-7.4144,-7.4666,-7.5178,-7.5068,-7.4443,-7.3962,-7.4192,-7.41,-7.4102,-7.4109,-7.4092,-7.3577,-7.2851,-7.188,-7.1363,-7.1317,-7.093,-7.0359,-7.0253,-6.9692,-6.975,-7.0068,-7.0556,-7.102,-7.1383,-7.1614,-7.1533,-7.0789,-7.1137,-7.1021,-7.0943,-7.1021,-7.1291,-7.1396,-7.1588,-7.1926,-7.2095,-7.2336,-7.2558,-7.2494,-7.2355,-7.2117,-7.1887,-7.2199,-7.262,-7.2964,-7.3156,-7.3172,-7.2879,-7.2807,-7.2789,-7.261,-7.2667,-7.2695,-7.2545,-7.2219,-7.213,-7.1835,-7.1308,-7.0982,-7.041,-6.9555,-6.9146,-6.8725,-6.8375,-6.8324,-6.8293,-6.8069,-6.7888,-6.7792,-6.7146,-6.6072,-6.4742,-6.3465,-6.3119,-6.2892,-6.2881,-6.2923,-6.262,-6.2415,-6.1931,-6.174,-6.1243,-6.1405,-6.0968,-5.9942,-5.8358,-5.7002,-5.5338,-5.4088,-5.3155,-5.2247,-5.1375,-5.0712,-5.0096,-4.9358,-4.8695,-4.8166,-4.7929,-7.9862,-8.007,-7.867,-7.7882,-7.7473,-7.6382,-7.5897,-7.5883,-7.4278,-7.3246,-7.2795,-7.2724,-7.2778,-7.3269,-7.4138,-7.4289,-7.4038,-7.5082,-7.5157,-7.4689,-7.409,-7.379,-7.3968,-7.4082,-7.4375,-7.4131,-7.4792,-7.4351,-7.321,-7.2158,-7.159,-7.1313,-7.0909,-7.0553,-7.033,-7.0137,-7.0155,-7.0915,-7.1953,-7.2354,-7.234,-7.2302,-7.1924,-7.149,-7.1291,-7.1291,-7.1291,-7.1291,-7.1291,-7.1446,-7.2093,-7.2508,-7.2738,-7.3306,-7.3688,-7.3665,-7.3619,-7.3391,-7.3137,-7.3215,-7.3403,-7.3427,-7.3466,-7.3554,-7.3391,-7.329,-7.3261,-7.3108,-7.3037,-7.3037,-7.2927,-7.2573,-7.2516,-7.2343,-7.2005,-7.1751,-7.1417,-7.0485,-6.9368,-6.8589,-6.8247,-6.8023,-6.7986,-6.7934,-6.7974,-6.8151,-6.7541,-6.6422,-6.5017,-6.3385,-6.3072,-6.2923,-6.2923,-6.2923,-6.2731,-6.2229,-6.1554,-6.0793,-6.0357,-5.9479,-5.9012,-5.8088,-5.6675,-5.5385,-5.4147,-5.3136,-5.2089,-5.1266,-5.0544,-5.0152,-4.9643,-4.8784,-4.8055,-4.7504,-4.7096,-7.6883,-7.6901,-7.6643,-7.6315,-7.5879,-7.4213,-7.392,-7.4372,-7.2711,-7.21,-7.215,-7.1737,-7.3061,-7.4254,-7.4392,-7.4563,-7.4931,-7.4899,-7.4623,-7.4053,-7.3399,-7.3266,-7.3578,-7.4189,-7.4731,-7.4334,-7.5042,-7.4917,-7.3906,-7.2805,-7.2048,-7.1433,-7.1396,-7.1378,-7.1436,-7.1455,-7.1573,-7.2194,-7.2995,-7.3006,-7.2726,-7.2469,-7.2119,-7.1568,-7.133,-7.1291,-7.1291,-7.1291,-7.1407,-7.1446,-7.2181,-7.28,-7.3159,-7.382,-7.4196,-7.4212,-7.4293,-7.4212,-7.419,-7.4056,-7.3963,-7.3752,-7.3665,-7.3893,-7.3893,-7.3616,-7.3503,-7.3464,-7.3294,-7.3145,-7.3037,-7.2955,-7.2779,-7.261,-7.2307,-7.2043,-7.1669,-7.1201,-7.0082,-6.8764,-6.8192,-6.8028,-6.7815,-6.7754,-6.8007,-6.8214,-6.6794,-6.567,-6.4551,-6.3204,-6.3115,-6.3,-6.3,-6.3034,-6.2992,-6.2522,-6.1922,-6.0814,-5.996,-5.8405,-5.6987,-5.5876,-5.4753,-5.3868,-5.2646,-5.1821,-5.1127,-5.0481,-4.9973,-4.9754,-4.9213,-4.8407,-4.782,-4.7388,-4.6996,-7.6371,-7.5817,-7.4741,-7.4386,-7.45,-7.3678,-7.3384,-7.3418,-7.2733,-7.2702,-7.3195,-7.366,-7.4214,-7.4869,-7.5485,-7.5304,-7.5324,-7.5779,-7.5105,-7.4434,-7.3908,-7.3516,-7.371,-7.3974,-7.4421,-7.4428,-7.5277,-7.4956,-7.3278,-7.3186,-7.2879,-7.2463,-7.2374,-7.2763,-7.2935,-7.2938,-7.3164,-7.3482,-7.3812,-7.3836,-7.3673,-7.3133,-7.2701,-7.2054,-7.1424,-7.133,-7.1291,-7.1291,-7.1601,-7.1988,-7.2375,-7.2814,-7.3341,-7.4057,-7.4407,-7.4502,-7.4694,-7.4919,-7.4819,-7.4615,-7.4296,-7.453,-7.4487,-7.4487,-7.4428,-7.4229,-7.393,-7.3752,-7.3501,-7.3278,-7.3145,-7.3037,-7.2899,-7.2723,-7.2537,-7.2275,-7.2006,-7.1647,-7.1099,-6.9916,-6.8822,-6.8137,-6.7897,-6.7652,-6.7947,-6.8082,-6.6447,-6.4937,-6.3934,-6.3216,-6.3124,-6.3152,-6.3189,-6.352,-6.3555,-6.3028,-6.233,-6.1109,-5.9767,-5.7911,-5.6133,-5.3767,-5.2687,-5.1877,-5.1457,-5.0871,-5.0279,-4.9725,-4.9462,-4.9382,-4.8786,-4.8009,-4.7529,-4.717,-4.6633,-7.5575,-7.4882,-7.3221,-7.2734,-7.3021,-7.3021,-7.3206,-7.3421,-7.3289,-7.368,-7.444,-7.4867,-7.4932,-7.5066,-7.5322,-7.5399,-7.5172,-7.5594,-7.5408,-7.479,-7.4141,-7.3937,-7.3963,-7.407,-7.425,-7.4444,-7.4903,-7.4611,-7.3433,-7.3694,-7.3798,-7.3745,-7.3681,-7.4048,-7.3931,-7.4276,-7.4318,-7.4462,-7.4664,-7.451,-7.435,-7.4034,-7.3212,-7.2546,-7.1943,-7.1573,-7.1418,-7.133,-7.1523,-7.1988,-7.2402,-7.2793,-7.3407,-7.4073,-7.4634,-7.497,-7.5268,-7.5643,-7.5456,-7.4915,-7.4657,-7.4979,-7.4939,-7.4939,-7.4899,-7.4636,-7.4207,-7.3872,-7.3591,-7.3357,-7.3225,-7.3118,-7.2918,-7.2779,-7.2667,-7.2443,-7.2532,-7.2328,-7.1845,-7.1151,-7.0172,-6.9307,-6.813,-6.7794,-6.7335,-6.7446,-6.6542,-6.5079,-6.3849,-6.3299,-6.3136,-6.3227,-6.3377,-6.385,-6.4281,-6.4011,-6.361,-6.2063,-6.0478,-5.7966,-5.5882,-5.3413,-5.1704,-5.1461,-5.0985,-5.0077,-4.9578,-4.9297,-4.9167,-4.9042,-4.8377,-4.7593,-4.6846,-4.6439,-4.5847,-7.417,-7.3936,-7.2358,-7.1598,-7.1714,-7.2105,-7.3119,-7.4296,-7.434,-7.4635,-7.5071,-7.4232,-7.4178,-7.4719,-7.4926,-7.477,-7.5043,-7.5534,-7.5404,-7.47,-7.453,-7.4318,-7.4233,-7.424,-7.4335,-7.4131,-7.452,-7.4614,-7.395,-7.398,-7.4444,-7.5195,-7.5195,-7.514,-7.4403,-7.4671,-7.486,-7.4868,-7.5255,-7.5047,-7.4774,-7.4672,-7.3845,-7.3198,-7.2529,-7.2119,-7.1743,-7.1341,-7.1534,-7.1833,-7.2336,-7.2711,-7.3064,-7.414,-7.4952,-7.5671,-7.6246,-7.6588,-7.6555,-7.5474,-7.5323,-7.551,-7.5475,-7.5247,-7.4977,-7.4636,-7.4274,-7.392,-7.3591,-7.3346,-7.3252,-7.3172,-7.2972,-7.2816,-7.2733,-7.2705,-7.2788,-7.2593,-7.203,-7.1872,-7.1646,-7.0981,-6.9307,-6.7981,-6.7075,-6.6598,-6.6204,-6.5271,-6.4218,-6.3649,-6.3583,-6.3669,-6.3923,-6.4533,-6.5091,-6.5373,-6.4805,-6.3231,-6.1326,-5.8953,-5.625,-5.3691,-5.2352,-5.1515,-5.068,-4.9943,-4.9399,-4.8975,-4.8989,-4.8987,-4.797,-4.7164,-4.6408,-4.5865,-4.5587,-7.4091,-7.4019,-7.2289,-7.1922,-7.2385,-7.2925,-7.3983,-7.5311,-7.5964,-7.6255,-7.5874,-7.5034,-7.5096,-7.5457,-7.5246,-7.5213,-7.5991,-7.621,-7.6102,-7.5296,-7.5212,-7.4697,-7.46,-7.4788,-7.4746,-7.446,-7.4569,-7.4522,-7.4054,-7.4219,-7.4795,-7.5523,-7.6232,-7.6303,-7.5967,-7.5954,-7.595,-7.5723,-7.5803,-7.5736,-7.5485,-7.517,-7.4765,-7.4121,-7.3323,-7.2666,-7.2211,-7.1753,-7.1623,-7.1999,-7.254,-7.2811,-7.338,-7.4449,-7.5193,-7.5914,-7.6568,-7.7182,-7.7388,-7.7036,-7.6731,-7.6481,-7.6062,-7.5666,-7.5131,-7.4636,-7.4252,-7.392,-7.3566,-7.3346,-7.3225,-7.3236,-7.3081,-7.2966,-7.2865,-7.2855,-7.2791,-7.2388,-7.2012,-7.2226,-7.215,-7.1029,-6.9573,-6.8578,-6.7625,-6.7166,-6.6882,-6.6391,-6.5407,-6.4693,-6.4406,-6.442,-6.4672,-6.5329,-6.5835,-6.6346,-6.6346,-6.5121,-6.2871,-6.0295,-5.7493,-5.4719,-5.2919,-5.2094,-5.0904,-4.9805,-4.9232,-4.8816,-4.9066,-4.8888,-4.7887,-4.7344,-4.6899,-4.6347,-4.5923,-7.3963,-7.3579,-7.218,-7.2258,-7.3264,-7.3596,-7.4757,-7.6593,-7.7855,-7.7872,-7.6922,-7.6293,-7.5851,-7.5747,-7.5647,-7.569,-7.6646,-7.6978,-7.6978,-7.6193,-7.6189,-7.6058,-7.5996,-7.563,-7.5482,-7.5118,-7.4916,-7.4799,-7.4724,-7.4756,-7.5385,-7.6189,-7.677,-7.6756,-7.6638,-7.6513,-7.6371,-7.6181,-7.6109,-7.6029,-7.5929,-7.5743,-7.5464,-7.4945,-7.4257,-7.3497,-7.284,-7.2347,-7.2024,-7.2506,-7.2794,-7.3104,-7.3894,-7.4637,-7.5427,-7.6251,-7.7177,-7.7962,-7.8485,-7.8042,-7.7602,-7.728,-7.6865,-7.6045,-7.5153,-7.4523,-7.4099,-7.3727,-7.3589,-7.3647,-7.3691,-7.3665,-7.3818,-7.371,-7.3713,-7.3738,-7.3287,-7.2923,-7.2541,-7.2722,-7.2425,-7.1194,-6.993,-6.914,-6.8283,-6.7984,-6.7686,-6.7178,-6.6735,-6.6075,-6.5406,-6.5373,-6.5608,-6.6232,-6.6926,-6.7571,-6.7375,-6.6848,-6.4629,-6.2038,-5.9491,-5.6884,-5.4743,-5.2509,-5.1068,-4.9859,-4.9023,-4.8702,-4.8813,-4.8643,-4.7979,-4.7489,-4.7299,-4.6732,-4.6069,-7.3613,-7.2832,-7.1986,-7.2647,-7.4019,-7.4206,-7.5735,-7.8152,-7.9343,-7.9036,-7.7798,-7.7128,-7.6297,-7.538,-7.5478,-7.5741,-7.6093,-7.6809,-7.7056,-7.7137,-7.7134,-7.7492,-7.7482,-7.6899,-7.6687,-7.6202,-7.5775,-7.5443,-7.558,-7.5713,-7.621,-7.677,-7.6978,-7.709,-7.7011,-7.6986,-7.6726,-7.6493,-7.6552,-7.6427,-7.627,-7.6309,-7.6022,-7.5629,-7.5152,-7.4421,-7.3682,-7.3013,-7.2832,-7.2899,-7.2936,-7.34,-7.4016,-7.4723,-7.5851,-7.7017,-7.8157,-7.8809,-7.9388,-7.8723,-7.8293,-7.7846,-7.6878,-7.5975,-7.5238,-7.4601,-7.406,-7.3915,-7.3836,-7.426,-7.4521,-7.4833,-7.5145,-7.5097,-7.5122,-7.4798,-7.4285,-7.3825,-7.3354,-7.3117,-7.2804,-7.18,-7.0412,-6.9509,-6.8737,-6.8862,-6.8669,-6.875,-6.8237,-6.7467,-6.6874,-6.6368,-6.6682,-6.7203,-6.7875,-6.845,-6.858,-6.8109,-6.6378,-6.3971,-6.1464,-5.8704,-5.6035,-5.3574,-5.1345,-4.9929,-4.8994,-4.8561,-4.854,-4.8215,-4.7953,-4.7575,-4.7287,-4.6512,-4.5708,-7.3154,-7.288,-7.2608,-7.319,-7.4369,-7.5851,-7.7134,-7.8028,-7.7854,-7.7818,-7.8446,-7.6363,-7.6056,-7.6668,-7.596,-7.6091,-7.6487,-7.7004,-7.7534,-7.7737,-7.7896,-7.8571,-7.8762,-7.8588,-7.823,-7.7584,-7.6864,-7.6189,-7.6398,-7.6543,-7.6657,-7.7056,-7.7101,-7.7309,-7.7619,-7.7785,-7.7307,-7.7057,-7.7224,-7.7067,-7.6787,-7.6803,-7.6568,-7.6448,-7.5885,-7.5223,-7.4707,-7.4001,-7.3769,-7.3675,-7.4237,-7.4721,-7.4823,-7.5664,-7.6746,-7.7911,-7.8437,-7.875,-7.9581,-7.9052,-7.8466,-7.8138,-7.7109,-7.6498,-7.5705,-7.4934,-7.4225,-7.4163,-7.4448,-7.4935,-7.5384,-7.5745,-7.6254,-7.6587,-7.6381,-7.5732,-7.5215,-7.4731,-7.4169,-7.2882,-7.2572,-7.1627,-7.0263,-6.9569,-6.8994,-6.9397,-6.9624,-6.9702,-6.9562,-6.8753,-6.8227,-6.7698,-6.7796,-6.8355,-6.8554,-6.9042,-6.9319,-6.9176,-6.7399,-6.5402,-6.2731,-5.9947,-5.7073,-5.4316,-5.1673,-5.0007,-4.8874,-4.8529,-4.8207,-4.833,-4.813,-4.7702,-4.7232,-4.6388,-4.537,-7.3231,-7.2932,-7.3299,-7.389,-7.4912,-7.6433,-7.7382,-7.7647,-7.7377,-7.7984,-7.8821,-7.6908,-7.6469,-7.7229,-7.6599,-7.6409,-7.6926,-7.7028,-7.7486,-7.8174,-7.8452,-7.9242,-7.9711,-7.9862,-7.9488,-7.8897,-7.8369,-7.7734,-7.7422,-7.7038,-7.7028,-7.7098,-7.7101,-7.7599,-7.8082,-7.8472,-7.8459,-7.8246,-7.817,-7.8098,-7.7828,-7.7453,-7.741,-7.7228,-7.6565,-7.6081,-7.5638,-7.4895,-7.4739,-7.4586,-7.5217,-7.5508,-7.5718,-7.6588,-7.7051,-7.8031,-7.8453,-7.8446,-7.8684,-7.8473,-7.8257,-7.7929,-7.7053,-7.6642,-7.6119,-7.5459,-7.5022,-7.4786,-7.5247,-7.572,-7.6177,-7.6667,-7.7394,-7.8066,-7.7376,-7.6684,-7.616,-7.5636,-7.435,-7.28,-7.174,-7.085,-7.0017,-6.9413,-6.9114,-6.9376,-6.9702,-7.0025,-7.0048,-6.9777,-6.9382,-6.9026,-6.9144,-6.9461,-6.9602,-6.9804,-7.0123,-6.9853,-6.8188,-6.6114,-6.3655,-6.0506,-5.7086,-5.425,-5.1696,-5.0167,-4.8761,-4.8115,-4.7783,-4.7925,-4.7868,-4.7271,-4.6746,-4.6242,-4.5069,-7.3514,-7.2897,-7.3873,-7.4783,-7.562,-7.6253,-7.6919,-7.751,-7.7746,-7.8612,-7.9107,-7.7929,-7.7341,-7.7718,-7.7065,-7.6774,-7.697,-7.7008,-7.7518,-7.841,-7.8688,-7.9439,-8.0266,-8.0344,-8.0371,-8.0428,-7.9966,-7.8984,-7.8233,-7.758,-7.7051,-7.7137,-7.7101,-7.7606,-7.8579,-7.91,-7.9349,-7.9837,-7.9656,-7.9501,-7.9059,-7.8642,-7.8213,-7.8078,-7.7422,-7.6673,-7.5998,-7.5697,-7.5656,-7.5586,-7.5623,-7.602,-7.6457,-7.6903,-7.7278,-7.7624,-7.8097,-7.8272,-7.8136,-7.7971,-7.7861,-7.7391,-7.6532,-7.6826,-7.6718,-7.572,-7.511,-7.5542,-7.6075,-7.667,-7.7175,-7.7716,-7.8377,-7.8745,-7.8444,-7.7392,-7.6386,-7.568,-7.4521,-7.3137,-7.2232,-7.1342,-7.0597,-7.0046,-6.9493,-6.9534,-6.9545,-6.9969,-7.0242,-7.0229,-7.0299,-7.0069,-7.0263,-7.0403,-7.0642,-7.0825,-7.107,-7.0435,-6.8877,-6.6806,-6.4418,-6.0779,-5.6836,-5.4061,-5.1421,-4.9935,-4.8668,-4.815,-4.7612,-4.7361,-4.7158,-4.6632,-4.6139,-4.5628,-4.4546,-7.2466,-7.2926,-7.4533,-7.5677,-7.6367,-7.6575,-7.6989,-7.7578,-7.6983,-7.7907,-7.9018,-7.773,-7.7388,-7.8279,-7.7274,-7.6865,-7.6894,-7.7024,-7.7589,-7.8403,-7.8924,-7.9755,-8.0934,-8.113,-8.1204,-8.0918,-8.0506,-7.9818,-7.8862,-7.7862,-7.7316,-7.7851,-7.7578,-7.7729,-7.8994,-7.9483,-7.9896,-8.0885,-8.0952,-8.0386,-7.9598,-7.8876,-7.8277,-7.8058,-7.7515,-7.7046,-7.6565,-7.6586,-7.6588,-7.656,-7.649,-7.6557,-7.6642,-7.6732,-7.6993,-7.7356,-7.7577,-7.7833,-7.7932,-7.7772,-7.7738,-7.7857,-7.7565,-7.7804,-7.7342,-7.5895,-7.5507,-7.6291,-7.7039,-7.7678,-7.8136,-7.8675,-7.9074,-7.9262,-7.9394,-7.8027,-7.6662,-7.5727,-7.4789,-7.377,-7.2862,-7.2066,-7.1298,-7.0624,-7.0085,-6.9741,-6.9464,-6.9616,-7.0026,-7.0227,-7.0797,-7.0788,-7.1122,-7.1336,-7.1505,-7.1634,-7.1738,-7.1063,-6.9599,-6.7465,-6.4956,-6.0746,-5.6464,-5.3696,-5.1202,-5.011,-4.9196,-4.8401,-4.7868,-4.7362,-4.6635,-4.6168,-4.5354,-4.4757,-4.3563,-7.2616,-7.3499,-7.4903,-7.5798,-7.614,-7.6202,-7.6432,-7.6681,-7.6534,-7.7407,-7.8602,-7.7334,-7.7196,-7.8318,-7.7257,-7.6816,-7.6846,-7.6944,-7.7554,-7.8347,-7.92,-8.0109,-8.0934,-8.1444,-8.1286,-8.0964,-8.0004,-7.9278,-7.9033,-7.7914,-7.7333,-7.781,-7.7419,-7.7737,-7.9003,-7.9221,-7.9963,-8.1508,-8.1602,-8.0969,-7.9948,-7.9356,-7.8653,-7.8305,-7.7659,-7.7188,-7.702,-7.7004,-7.6938,-7.6861,-7.676,-7.666,-7.6643,-7.662,-7.6676,-7.6944,-7.72,-7.7354,-7.7522,-7.7602,-7.7551,-7.7611,-7.7703,-7.7561,-7.7419,-7.6274,-7.698,-7.7738,-7.8542,-7.9205,-7.8615,-7.8867,-7.8897,-7.8985,-7.9271,-7.877,-7.7997,-7.7334,-7.6009,-7.4632,-7.3743,-7.2891,-7.2064,-7.1252,-7.0822,-7.1057,-7.0608,-7.0347,-7.0534,-7.0574,-7.103,-7.1579,-7.1986,-7.1834,-7.162,-7.187,-7.2198,-7.1321,-7.0209,-6.6628,-6.3274,-5.9657,-5.6102,-5.3725,-5.1937,-5.1075,-5.0139,-4.8925,-4.8062,-4.7516,-4.6686,-4.5837,-4.4888,-4.3973,-4.2995,-7.3045,-7.3956,-7.4957,-7.5418,-7.547,-7.5456,-7.5521,-7.574,-7.6268,-7.6991,-7.769,-7.6883,-7.7128,-7.7427,-7.7114,-7.6918,-7.683,-7.6852,-7.7472,-7.8097,-7.8994,-7.9553,-8.0147,-8.0698,-8.0697,-8.022,-7.9296,-7.9167,-7.9118,-7.784,-7.7137,-7.7254,-7.738,-7.7539,-7.8135,-7.8569,-7.9317,-8.042,-8.077,-8.0734,-8.0336,-8.0004,-7.9182,-7.8376,-7.7646,-7.7178,-7.7132,-7.7044,-7.7026,-7.6999,-7.691,-7.6738,-7.6632,-7.6563,-7.6538,-7.6695,-7.7113,-7.699,-7.6769,-7.6962,-7.6918,-7.69,-7.7053,-7.711,-7.7036,-7.7398,-7.8131,-7.873,-7.9514,-7.9642,-7.9034,-7.8838,-7.8844,-7.8915,-7.9204,-7.9453,-7.9008,-7.8587,-7.7194,-7.563,-7.4873,-7.4004,-7.3231,-7.2347,-7.2146,-7.2335,-7.2131,-7.194,-7.1733,-7.1625,-7.1784,-7.2471,-7.3054,-7.2729,-7.2281,-7.2397,-7.2871,-7.159,-7.0015,-6.5733,-6.2027,-5.9697,-5.713,-5.4343,-5.2806,-5.1908,-5.0558,-4.92,-4.8418,-4.7768,-4.6391,-4.5335,-4.4763,-4.3856,-4.2702,-7.2134,-7.3087,-7.4063,-7.4534,-7.4593,-7.4561,-7.4955,-7.5563,-7.568,-7.6173,-7.6756,-7.6902,-7.7174,-7.793,-7.7075,-7.6746,-7.6837,-7.6865,-7.6965,-7.7443,-7.8383,-7.8752,-7.912,-7.9792,-7.9912,-7.9393,-7.8908,-7.9218,-7.8936,-7.7816,-7.7749,-7.8846,-7.7458,-7.7578,-7.8252,-7.8569,-7.8768,-7.9677,-7.9873,-7.9756,-7.9402,-7.9159,-7.9198,-7.8422,-7.7569,-7.769,-7.7769,-7.7377,-7.7568,-7.7573,-7.7295,-7.6934,-7.6806,-7.6728,-7.6604,-7.6614,-7.7035,-7.7125,-7.698,-7.7053,-7.7139,-7.7291,-7.7416,-7.7245,-7.7318,-7.7561,-7.8091,-7.8339,-7.8898,-7.8989,-7.8708,-7.8989,-7.9099,-7.9147,-7.9348,-7.933,-7.9081,-7.8822,-7.8148,-7.7338,-7.6747,-7.6101,-7.5551,-7.4807,-7.4292,-7.4157,-7.3378,-7.3129,-7.2757,-7.2652,-7.2568,-7.3386,-7.4163,-7.417,-7.3934,-7.3481,-7.3419,-7.2042,-6.9933,-6.6016,-6.292,-6.0962,-5.8377,-5.5371,-5.3665,-5.2668,-5.1252,-4.9787,-4.8865,-4.8023,-4.6095,-4.487,-4.4437,-4.3489,-4.2222]},{"header":{"parameterUnit":"m.s-1","parameterCategory":1,"la1":31.0,"la2":29.5877,"lo1":-88.7671,"lo2":-86.6584,"dy":0.0162,"dx":0.0185,"nx":115,"ny":88,"refTime":"2024-05-13T12:00:00:Z","depth":0,"parameterNumber":3,"parameterNumberName":"V-component_of_WINDS"},"data":[0.0,0.0,0.0,0.0,0.0,0.0,0.0,0.0,0.0,0.0,0.0,0.0,0.0,0.0,0.0,0.0,0.0,0.0,0.0,0.0,0.0,0.0,0.0,0.0,0.0,0.0,0.0,0.0,0.0,0.0,0.0,0.0,0.0,0.0,0.0,0.0,0.0,0.0,0.0,0.0,0.0,0.0,0.0,0.0,0.0,0.0,0.0,0.0,0.0,0.0,0.0,0.0,0.0,0.0,0.0,0.0,0.0,0.0,0.0,0.0,0.0,0.0,0.0,0.0,0.0,0.0,0.0,0.0,0.0,0.0,0.0,0.0,0.0,0.0,0.0,0.0,0.0,0.0,0.0,0.0,0.0,0.0,0.0,0.0,0.0,0.0,0.0,0.0,0.0,0.0,0.0,0.0,0.0,0.0,0.0,0.0,0.0,0.0,0.0,0.0,0.0,0.0,0.0,0.0,0.0,0.0,0.0,0.0,0.0,0.0,0.0,0.0,0.0,0.0,0.0,0.0,0.0,0.0,0.0,0.0,0.0,0.0,0.0,0.0,0.0,0.0,0.0,0.0,0.0,0.0,0.0,0.0,0.0,0.0,0.0,0.0,0.0,0.0,0.0,0.0,0.0,0.0,0.0,0.0,0.0,0.0,0.0,0.0,0.0,0.0,0.0,0.0,0.0,0.0,0.0,0.0,0.0,0.0,0.0,0.0,0.0,0.0,0.0,0.0,0.0,0.0,0.0,0.0,0.0,0.0,0.0,0.0,0.0,0.0,0.0,0.0,0.0,0.0,0.0,0.0,0.0,0.0,0.0,0.0,0.0,0.0,0.0,0.0,0.0,0.0,0.0,0.0,0.0,0.0,0.0,0.0,0.0,0.0,0.0,0.0,0.0,0.0,0.0,0.0,0.0,0.0,0.0,0.0,0.0,0.0,0.0,0.0,0.0,0.0,0.0,0.0,0.0,0.0,0.0,0.0,0.0,0.0,0.0,0.0,0.0,0.0,0.0,0.0,0.0,0.0,0.0,0.0,0.0,0.0,0.0,0.0,0.0,0.0,0.0,0.0,0.0,0.0,0.0,0.0,0.0,0.0,0.0,0.0,0.0,0.0,0.0,0.0,0.0,0.0,0.0,0.0,0.0,0.0,0.0,0.0,0.0,0.0,0.0,0.0,0.0,0.0,0.0,0.0,0.0,0.0,0.0,0.0,0.0,0.0,0.0,0.0,0.0,0.0,0.0,0.0,0.0,0.0,0.0,0.0,0.0,0.0,0.0,0.0,0.0,0.0,0.0,0.0,0.0,0.0,0.0,0.0,0.0,0.0,0.0,0.0,0.0,0.0,0.0,0.0,0.0,0.0,0.0,0.0,0.0,0.0,0.0,0.0,0.0,0.0,0.0,0.0,0.0,0.0,0.0,0.0,0.0,0.0,0.0,0.0,0.0,0.0,0.0,0.0,0.0,0.0,0.0,0.0,0.0,0.0,0.0,0.0,0.0,0.0,0.0,0.0,0.0,0.0,0.0,0.0,0.0,0.0,0.0,0.0,0.0,0.0,0.0,0.0,0.0,0.0,0.0,0.0,0.0,0.0,0.0,0.0,0.0,0.0,0.0,0.0,0.0,0.0,0.0,0.0,0.0,0.0,0.0,0.0,0.0,0.0,0.0,0.0,0.0,0.0,0.0,0.0,0.0,0.0,0.0,0.0,0.0,0.0,0.0,0.0,0.0,0.0,0.0,0.0,0.0,0.0,0.0,0.0,0.0,0.0,0.0,0.0,0.0,0.0,0.0,0.0,0.0,0.0,0.0,0.0,0.0,0.0,0.0,0.0,0.0,0.0,0.0,0.0,0.0,0.0,0.0,0.0,0.0,0.0,0.0,0.0,0.0,0.0,0.0,0.0,0.0,0.0,0.0,0.0,0.0,0.0,0.0,0.0,0.0,0.0,0.0,0.0,0.0,0.0,0.0,0.0,0.0,0.0,0.0,0.0,0.0,0.0,0.0,0.0,0.0,0.0,0.0,0.0,0.0,0.0,0.0,0.0,0.0,0.0,0.0,0.0,0.0,0.0,0.0,0.0,0.0,0.0,0.0,0.0,0.0,0.0,0.0,0.0,0.0,0.0,0.0,0.0,0.0,0.0,0.0,0.0,0.0,0.0,0.0,0.0,0.0,0.0,0.0,0.0,0.0,0.0,0.0,0.0,0.0,0.0,0.0,0.0,0.0,0.0,0.0,0.0,0.0,0.0,0.0,0.0,0.0,0.0,0.0,0.0,0.0,0.0,0.0,0.0,0.0,0.0,0.0,0.0,0.0,0.0,0.0,0.0,0.0,0.0,0.0,0.0,0.0,0.0,0.0,0.0,0.0,0.0,0.0,0.0,0.0,0.0,0.0,0.0,0.0,0.0,0.0,0.0,0.0,0.0,0.0,0.0,0.0,0.0,0.0,0.0,0.0,0.0,0.0,0.0,0.0,0.0,0.0,0.0,0.0,0.0,0.0,0.0,0.0,0.0,0.0,0.0,0.0,0.0,0.0,0.0,0.0,0.0,0.0,0.0,0.0,0.0,0.0,0.0,0.0,0.0,0.0,0.0,0.0,0.0,0.0,0.0,0.0,0.0,0.0,0.0,0.0,0.0,0.0,0.0,0.0,0.0,0.0,0.0,0.0,0.0,0.0,0.0,0.0,0.0,0.0,0.0,0.0,0.0,0.0,0.0,0.0,0.0,0.0,0.0,0.0,0.0,0.0,0.0,0.0,0.0,0.0,0.0,0.0,0.0,0.0,0.0,0.0,0.0,0.0,0.0,0.0,0.0,0.0,0.0,0.0,0.0,0.0,0.0,0.0,0.0,0.0,0.0,0.0,0.0,0.0,0.0,0.0,0.0,0.0,0.0,0.0,0.0,0.0,0.0,0.0,0.0,0.0,0.0,0.0,0.0,0.0,0.0,0.0,0.0,0.0,0.0,0.0,0.0,0.0,0.0,0.0,0.0,0.0,0.0,0.0,0.0,0.0,0.0,0.0,0.0,0.0,0.0,0.0,0.0,0.0,0.0,0.0,0.0,0.0,0.0,0.0,0.0,0.0,0.0,0.0,0.0,0.0,0.0,0.0,0.0,0.0,0.0,0.0,0.0,0.0,0.0,0.0,0.0,0.0,0.0,0.0,0.0,0.0,0.0,0.0,0.0,0.0,0.0,0.0,0.0,0.0,0.0,0.0,0.0,0.0,0.0,0.0,0.0,0.0,0.0,0.0,0.0,0.0,0.0,0.0,0.0,0.0,0.0,0.0,0.0,0.0,0.0,0.0,0.0,0.0,0.0,0.0,0.0,0.0,0.0,0.0,0.0,0.0,0.0,0.0,0.0,0.0,0.0,0.0,0.0,0.0,0.0,0.0,0.0,0.0,0.0,0.0,0.0,0.0,0.0,0.0,0.0,0.0,0.0,0.0,0.0,0.0,0.0,0.0,0.0,0.0,0.0,0.0,0.0,0.0,0.0,0.0,0.0,0.0,0.0,0.0,0.0,0.0,0.0,0.0,0.0,0.0,0.0,0.0,0.0,0.0,0.0,0.0,0.0,0.0,0.0,0.0,0.0,0.0,0.0,0.0,0.0,0.0,0.0,0.0,0.0,0.0,0.0,0.0,0.0,0.0,0.0,0.0,0.0,0.0,0.0,0.0,0.0,0.0,0.0,0.0,0.0,0.0,0.0,0.0,0.0,0.0,0.0,0.0,0.0,0.0,0.0,0.0,0.0,0.0,0.0,0.0,0.0,0.0,0.0,0.0,0.0,0.0,0.0,0.0,0.0,0.0,0.0,0.0,0.0,0.0,0.0,0.0,0.0,0.0,0.0,0.0,0.0,0.0,0.0,0.0,0.0,0.0,0.0,0.0,0.0,0.0,0.0,0.0,0.0,0.0,0.0,0.0,0.0,0.0,0.0,0.0,0.0,0.0,0.0,0.0,0.0,0.0,0.0,0.0,0.0,0.0,0.0,0.0,0.0,0.0,0.0,0.0,0.0,0.0,0.0,0.0,0.0,0.0,0.0,0.0,0.0,0.0,0.0,0.0,0.0,0.0,0.0,0.0,0.0,0.0,0.0,0.0,0.0,0.0,0.0,0.0,0.0,0.0,0.0,0.0,0.0,0.0,0.0,0.0,0.0,0.0,0.0,0.0,0.0,0.0,0.0,0.0,0.0,0.0,0.0,0.0,0.0,0.0,0.0,0.0,0.0,0.0,0.0,0.0,0.0,0.0,0.0,0.0,0.0,0.3863,0.0,0.0,0.0,0.0,0.0,0.0,0.0,0.0,0.0,0.0,0.0,0.0,0.0,0.0,0.0,0.0,0.0,0.0,0.0,0.0,0.0,0.0,0.0,0.0,0.0,0.0,0.0,0.0,0.0,0.0,0.0,0.0,0.0,0.0,0.0,0.0,0.0,0.0,0.0,0.0,0.0,0.0,0.0,0.0,0.0,0.0,0.0,0.0,0.0,0.0,0.0,0.0,0.0,0.0,0.0,0.0,0.0,0.0,0.0,0.0,0.0,0.0,0.0,0.0,0.0,0.0,0.0,0.0,0.0,0.0,0.0,0.0,0.0,0.0,0.0,0.0,0.0,0.0,0.0,0.0,0.0,0.0,0.0,0.0,0.0,0.0,0.0,0.0,0.0,0.0,0.0,0.0,0.0,0.0,0.0,0.0,0.0,0.0,0.0,0.0,0.0,0.0,0.0,0.0,0.0,0.0,0.0,0.0,0.0,0.0,0.0,0.0,0.0,0.0,0.35,0.1216,0.042,0.042,0.1276,0.0,0.0,0.0,0.0,0.0,0.0,0.0,0.0,0.0,0.0,0.0,0.0,0.0,0.0,0.0,0.0,0.0,0.0,0.0,0.0,0.0,0.0,0.0,0.0,0.0,0.0,0.0,0.0,0.0,0.0,0.0,0.0,0.0,0.0,0.0,0.0,0.0,0.0,0.0,0.0,0.0,0.0,0.0,0.0,0.0,0.0,0.0,0.0,0.0,0.0,0.0,0.0,0.0,0.0,0.0,0.0,0.0,0.0,0.0,0.0,0.0,0.0,0.0,0.0,0.0,0.0,0.0,0.0,0.0,0.0,0.0,0.0,0.0,0.0,0.0,0.0,0.0,0.0,0.0,0.0,0.0,0.0,0.0,0.0,0.0,0.0,0.0,0.0,0.0,0.0,0.0,0.0,0.0,0.0,0.0,0.0,0.0,0.0,0.0,0.0,0.0,0.0,0.0,0.0,0.0,0.0,0.0,0.0,0.0,0.0,0.0,0.0,0.0,0.0785,0.2428,0.0,0.0,0.0,0.0,0.0,0.0,0.0,0.0,0.0,0.0,0.0,0.0,0.0,0.0,0.0,0.0,0.0,0.0,0.0,0.0,0.0,0.0,0.0,0.0,0.0,0.0,0.0,0.0,0.0,0.0,0.0,0.0,0.0,0.0,0.0,0.0,0.0,0.0,0.0,0.0,0.0,0.0,0.0,0.0,0.0,0.0,0.0,0.0,0.0,0.0,0.0,0.0,0.0,0.0,0.0,0.0,0.0,0.0,0.0,0.0,0.0,0.0,0.0,0.0,0.0,0.0,0.0,0.0,0.0,0.0,0.0,0.0,0.0,0.0,0.0,0.0,0.0,0.0,0.0,0.0,0.0,0.0,0.0,0.0,0.0,0.0,0.0,0.0,0.0,0.0,0.0,0.0,0.0,0.0,0.0,0.0,0.0,0.0,0.0,0.0,0.0,0.0,0.0,0.0,0.0,0.0,0.0,0.0,0.0,0.0,0.3078,0.0,0.0,0.0,0.232,0.0,0.0,0.0,0.0,0.0,0.0,0.0,0.0,0.0,0.0,0.0,0.0,0.0,0.0,0.0,0.0,0.0,0.0,0.0,0.0,0.0,0.0,0.0,0.0,0.0,0.0,0.0,0.0,0.0,0.0,0.0,0.0,0.0,0.0,0.0,0.0,0.0,0.0,0.0,0.0,0.0,0.0,0.0,0.0,0.0,0.0,0.0,0.0,0.0,0.0,0.0,0.0,0.0,0.0,0.0,0.0,0.0,0.0,0.0,0.0,0.0,0.0,0.0,0.0,0.0,0.0,0.0,0.0,0.0,0.0,0.0,0.0,0.0,0.0,0.0,0.0,0.0,0.0,0.0,0.0,0.0,0.0,0.0,0.0,0.0,0.0,0.0,0.0,0.0,0.0,0.0,0.0,0.0,0.0,0.0,0.0,0.0,0.0,0.0,0.0,0.0,0.0,0.0,0.0,0.0,0.0,0.0,0.0,0.0,0.0,0.4451,0.1398,0.2307,0.2725,0.0,0.0,0.0,0.0,0.0,0.0,0.0,0.0,0.0,0.0,0.0,0.0,0.0,0.0,0.0,0.0,0.0,0.0,0.0,0.0,0.0,0.0,0.0,0.0,0.0,0.0,0.0,0.0,0.0,0.0,0.0,0.0,0.0,0.0,0.0,0.0,0.0,0.0,0.0,0.0,0.0,0.0,0.0,0.0,0.0,0.0,0.0,0.0,0.0,0.0,0.0,0.0,0.0,0.0,0.0,0.0,0.0,0.0,0.0,0.0,0.0,0.0,0.0,0.0,0.0,0.0,0.0,0.0,0.0,0.0,0.0,0.0,0.0,0.0,0.0,0.0,0.0,0.0,0.0,0.0,0.0,0.0,0.0,0.0,0.0,0.0,0.0,0.0,0.0,0.0,0.0,0.0,0.0,0.0,0.0,0.0,0.0,0.0,0.0,0.0,0.0,0.0,0.0,0.0,0.0,0.0,0.0,0.0,0.0,0.0,0.6418,0.4774,0.1906,0.3304,0.3633,0.2316,0.0,0.0,0.0,0.0,0.0,0.0,0.0,0.0,0.0,0.0,0.0,0.0,0.0,0.0,0.0,0.0,0.0,0.0,0.0,0.0,0.0,0.0,0.0,0.0,0.0,0.0,0.0,0.0,0.0,0.0,0.0,0.0,0.0,0.0,0.0,0.0,0.0,0.0,0.0,0.0,0.0,0.0,0.0,0.0,0.0,0.0,0.0,0.0,0.0,0.0,0.0,0.0,0.0,0.0,0.0,0.0,0.0,0.0,0.0,0.0,0.0,0.0,0.0,0.0,0.0,0.0,0.0,0.0,0.0,0.0,0.0,0.0,0.0,0.0,0.0,0.0,0.0,0.0,0.0,0.0,0.0,0.0,0.0,0.0,0.0,0.0,0.0,0.0,0.0,0.0,0.0,0.0,0.0,0.0,0.0,0.0,0.0,0.0,0.0,0.0,0.0,0.0,0.0,0.0,0.0,0.0,0.0,0.0,0.7088,0.5471,0.3152,0.0327,0.1767,0.2543,0.0,0.0,0.0,0.0,0.0,0.0,0.0,0.0,0.0,0.0,0.0,0.0,0.0,0.0,0.0,0.0,0.0,0.0,0.0,0.0,0.0,0.0,0.0,0.0,0.0,0.0,0.0,0.0,0.0,0.0,0.0,0.0,0.0,0.0,0.0,0.0,0.0,0.0,0.0,0.0,0.0,0.0,0.0,0.0,0.0,0.0,0.0,0.0,0.0,0.0,0.0,0.0,0.0,0.0,0.0,0.0,0.0,0.0,0.0,0.0,0.0,0.0,0.0,0.0,0.0,0.0,0.0,0.0,0.0,0.0,0.0,0.0,0.0,0.0,0.0,0.0,0.0,0.0,0.0,0.0,0.0,0.0,0.0,0.0,0.0,0.0,0.0,0.0,0.0,0.0,0.0,0.0,0.0,0.0,0.0,0.0,0.0,0.0,0.0,0.0,0.0,0.0,0.0,0.0,0.0,0.0,0.0,0.0,0.0,0.6768,0.4324,0.2589,0.1638,0.2193,0.1996,0.0,0.0,0.0,0.0,0.0,0.0,0.0,0.0,0.0,0.0,0.0,0.0,0.0,0.0,0.0,0.0,0.0,0.0,0.0,0.0,0.0,0.0,0.0,0.0,0.0,0.0,0.0,0.0,0.0,0.0,0.0,0.0,0.0,0.0,0.0,0.0,0.0,0.0,0.0,0.0,0.0,0.0,0.0,0.0,0.0,0.0,0.0,0.0,0.0,0.0,0.0,0.0,0.0,0.0,0.0,0.0,0.0,0.0,0.0,0.0,0.0,0.0,0.0,0.0,0.0,0.0,0.0,0.0,0.0,0.0,0.0,0.0,0.0,0.0,0.0,0.0,0.0,0.0,0.0,0.0,0.0,0.0,0.0,0.0,0.0,0.0,0.0,0.0,0.0,0.0,0.0,0.0,0.0,0.0,0.0,0.0,0.0,0.0,0.0,0.0,0.0,0.0,0.0,0.0,0.0,0.0,0.0,0.0,0.0,0.5253,0.0,0.2198,0.1689,0.1689,0.1179,0.0,0.0,0.0,0.0,0.0,0.0,0.0,0.0,0.0,0.0,0.0,0.0,0.0,0.0,0.0,0.0,0.0,0.0,0.0,0.0,0.0,0.0,0.0,0.0,0.0,0.0,0.0,0.0,0.0,0.0,0.0,0.0,0.0,0.0,0.0,0.0,0.0,0.0,0.0,0.0,0.0,0.0,0.0,0.0,0.0,0.0,0.0,0.0,0.0,0.0,0.0,0.0,0.0,0.0,0.0,0.0,0.0,0.0,0.0,0.0,0.0,0.0,0.0,0.0,0.0,0.0,0.0,0.0,0.0,0.0,0.0,0.0,0.0,0.0,0.0,0.0,0.0,0.0,0.0,0.0,0.0,0.0,0.0,0.0,0.0,0.0,0.0,0.0,0.0,0.0,0.0,0.0,0.0,0.0,0.0,0.0,0.0,0.0,0.0,0.0,0.0,0.0,0.0,0.0,0.0,0.0,0.0,0.0,0.5192,0.2392,0.2499,0.1758,0.0,0.0,0.0,0.0,0.0,0.0,0.0,0.0,0.0,0.0,0.0,0.0,0.0,0.0,0.0,0.0,0.0,0.0,0.0,0.0,0.0,0.0,0.0,0.0,0.0,0.0,0.0,0.0,0.0,0.0,0.0,0.0,0.0,0.0,0.0,0.0,0.0,0.0,0.0,0.0,0.0,0.0,0.0,0.0,0.0,0.0,0.0,0.0,0.0,0.0,0.0,0.0,0.0,0.0,0.0,0.0,0.0,0.0,0.0,0.0,0.0,0.0,0.0,0.0,0.0,0.0,0.0,0.0,0.0,0.0,0.0,0.0,0.0,0.0,0.0,0.0,0.0,0.0,0.0,0.0,0.0,0.0,0.0,0.0,0.0,0.0,0.0,0.0,0.0,0.0,0.0,0.0,0.0,0.0,0.0,0.0,0.0,0.0,0.0,0.0,0.0,0.0,0.0,0.0,0.0,0.0,0.0,0.0,0.0,0.0,0.0,0.0,0.0777,0.0812,0.0578,0.0,0.0,0.0,0.0,0.0,0.0,0.0,0.0,0.0,0.0,0.0,0.0,0.0,0.0,0.0,0.0,0.0,0.0,0.0,0.0,0.0,0.0,0.0,0.0,0.0,0.0,0.0,0.0,0.0,0.0,0.0,0.0,0.0,0.0,0.0,0.0,0.0,0.0,0.0,0.0,0.0,0.0,0.0,0.0,0.0,0.0,0.0,0.0,0.0,0.0,0.0,0.0,0.0,0.0,0.0,0.0,0.0,0.0,0.0,0.0,0.0,0.0,0.0,0.0,0.0,0.0,0.0,0.0,0.0,0.0,0.0,0.0,0.0,0.0,0.0,0.0,0.0,0.0,0.0,0.0,0.0,0.0,0.0,0.0,0.0,0.0,0.0,0.0,0.0,0.0,0.0,0.0,0.0,0.0,0.0,0.0,0.0,0.0,0.0,0.0,0.0,0.0,0.0,0.0,0.0,0.0,0.0,0.0,0.0,0.0,0.0,0.0,0.2183,0.1931,0.1903,0.1976,0.1921,0.1251,0.0,0.0,0.0,0.0,0.0,0.0,0.0,0.0,0.0,0.0,0.0,0.0,0.0,0.0,0.0,0.0,0.0,0.0,0.0,0.0,0.0,0.0,0.0,0.0,0.0,0.0,0.0,0.0,0.0,0.0,0.0,0.0,0.0,0.0,0.0,0.0,0.0,0.0,0.0,0.0,0.0,0.0,0.0,0.0,0.0,0.0,0.0,0.0,0.0,0.0,0.0,0.0,0.0,0.0,0.0,0.0,0.0,0.0,0.0,0.0,0.0,0.0,0.0,0.0,0.0,0.0,0.0,0.0,0.0,0.0,0.0,0.0,0.0,0.0,0.0,0.0,0.0,0.0,0.0,0.0,0.0,0.0,0.0,0.0,0.0,0.0,0.0,0.0,0.0,0.0,0.0,0.0,0.0,0.0,0.0,0.0,0.0,0.0,0.0,0.0,0.0,0.0,0.0,0.0,0.0,0.0,0.0,0.0,0.0,0.6013,0.5767,0.5636,0.5618,0.5189,0.3556,0.0,0.0,0.0,0.0,0.0,0.0,0.0,0.0,0.0,0.0,0.0,0.0,0.0,0.0,0.0,0.0,0.0,0.0,0.0,0.0,0.0,0.0,0.0,0.0,0.0,0.0,0.0,0.0,0.0,0.0,0.0,0.0,0.0,0.0,0.0,0.0,0.0,0.0,0.0,0.0,0.0,0.0,0.0,0.0,0.0,0.0,0.0,0.0,0.0,0.0,0.0,0.0,0.0,0.0,0.0,0.0,0.0,0.0,0.0,0.0,0.0,0.0,0.0,0.0,0.0,0.0,0.0,0.0,0.0,0.0,0.0,0.0,0.0,0.0,0.0,0.0,0.0,0.0,0.0,0.0,0.0,0.0,0.0,0.0,0.0,0.0,0.0,0.0,0.0,0.0,0.0,0.0,0.0,0.0,0.0,0.0,0.0,0.0,0.0,0.0,0.0,0.0,0.0,0.0,0.0,0.0,0.0,0.0,0.0,0.9561,1.2067,1.1992,0.9278,0.6656,0.4766,0.0,0.0,0.0,0.0,0.0,0.0,0.0,0.0,0.0,0.0,0.0,0.0,0.0,0.0,0.0,0.0,0.0,0.0,0.0,0.0,0.0,0.0,0.0,0.0,0.0,0.0,0.0,0.0,0.0,0.0,0.0,0.0,0.0,0.0,0.0,0.0,0.0,0.0,0.0,0.0,0.0,0.0,0.0,0.0,0.0,0.0,0.0,0.0,0.0,0.0,0.0,0.0,0.0,0.0,0.0,0.0,0.0,0.0,0.0,0.0,0.0,0.0,0.0,0.0,0.0,0.0,0.0,0.0,0.0,0.0,0.0,0.0,0.0,0.0,0.0,0.0,0.0,0.0,0.0,0.0,0.0,0.0,0.0,0.0,0.0,0.0,0.0,0.0,0.0,0.0,0.0,0.0,0.0,0.0,0.0,0.0,0.0,0.0,0.0,0.0,0.0,0.0,0.0,0.0,0.0,0.0,0.0,0.0,0.8952,1.1167,1.6102,1.76,1.5479,1.0255,0.6683,0.0,0.0,0.0,0.0,0.0,0.0,0.0,0.0,0.0,0.0,0.0,0.0,0.0,0.0,0.0,0.0,0.0,0.0,0.0,0.0,0.0,0.0,0.0,0.0,0.0,0.0,0.0,0.0,0.0,0.0,0.0,0.0,0.0,0.0,0.0,0.0,0.0,0.0,0.0,0.0,0.0,0.0,0.0,0.0,0.0,0.0,0.0,0.0,0.0,0.0,0.0,0.0,0.0,0.0,0.0,0.0,0.0,0.0,0.0,0.0,0.0,0.0,0.0,0.0,0.0,0.0,0.0,0.0,0.0,0.0,0.0,0.0,0.0,0.0,0.0,0.0,0.0,0.0,0.0,0.0,0.0,0.0,0.0,0.0,0.0,0.0,0.0,0.0,0.0,0.0,0.0,0.0,0.0,0.0,0.0,0.0,0.0,0.0,0.0,0.0,0.0,0.0,0.0,0.0,0.0,0.0,0.0,0.0,1.1315,1.1934,1.8503,2.1986,2.1712,1.4601,0.9089,0.0,0.0,0.0,0.0,0.0,0.0,0.0,0.0,0.0,0.0,0.0,0.0,0.0,0.0,0.0,0.0,0.0,0.0,0.0,0.0,0.0,0.0,0.0,0.0,0.0,0.0,0.0,0.0,0.0,0.0,0.0,0.0,0.0,0.0,0.0,0.0,0.0,0.0,0.0,0.0,0.0,0.0,0.0,0.0,0.0,0.0,0.0,0.0,0.0,0.0,0.0,0.0,0.0,0.0,0.0,0.0,0.0,0.0,0.0,0.0,0.0,0.0,0.0,0.0,0.0,0.0,0.0,0.0,0.0,0.0,0.0,0.0,0.0,0.0,0.0,0.0,0.0,0.0,0.0,0.0,0.0,0.0,0.0,0.0,0.0,0.0,0.0,0.0,0.0,0.0,0.0,0.0,0.0,0.0,0.0,0.0,0.0,0.0,0.0,0.0,0.0,0.0,0.0,0.0,0.0,0.0,0.0,0.0,1.262,1.5549,1.9891,2.2072,2.1696,1.4692,1.0438,0.0,0.0,0.0,0.0,0.0,0.0,0.0,0.0,0.0,0.0,0.0,0.0,0.0,0.0,0.0,0.0,0.0,0.0,0.0,0.0,0.0,0.0,0.0,0.0,0.0,0.0,0.0,0.0,0.0,0.0,0.0,0.0,0.0,0.0,0.0,0.0,0.0,0.0,0.0,0.0,0.0,0.0,0.0,0.0,0.0,0.0,0.0,0.0,0.8191,0.0,0.0,0.0,0.0,0.0,0.0,0.0,0.0,0.0,0.0,0.0,0.0,0.0,0.0,0.0,0.0,0.0,0.0,0.0,0.0,0.0,0.0,0.0,0.0,0.0,0.0,0.0,0.0,0.0,0.0,0.0,0.0,0.0,0.0,0.0,0.0,0.0,0.0,0.0,0.0,0.0,0.0,0.0,0.0,0.0,0.0,0.0,0.0,0.0,0.0,0.0,0.0,0.0,0.0,0.0,0.0,0.0,0.0,0.0,1.3144,1.6748,2.0076,2.1621,2.0993,1.5212,1.1142,0.0,0.0,0.0,0.0,0.0,0.0,0.0,0.0,0.0,0.0,0.0,0.0,0.0,0.0,0.0,0.0,0.0,0.0,0.0,0.0,0.0,0.0,0.0,0.0,0.0,0.0,0.0,0.0,0.0,0.0,0.0,0.0,0.0,0.0,0.0,0.0,0.0,0.0,0.0,0.0,0.0,0.0,0.0,0.0,0.0,0.0,0.0,0.0,0.0,0.0,0.0,0.0,0.0,0.0,0.0,0.0,0.0,0.0,0.0,0.0,0.0,0.0,0.0,0.0,0.0,0.0,0.0,0.0,0.0,0.0,0.0,0.0,0.0,0.0,0.0,0.0,0.0,0.0,0.0,0.0,0.0,0.0,0.0,0.0,0.0,0.0,0.0,0.0,0.0,0.0,0.0,0.0,0.0,0.0,0.0,0.0,0.0,0.0,0.0,0.0,0.0,0.0,0.0,0.0,0.0,0.0,0.0,0.9893,1.34,1.7417,1.9821,2.0815,2.0346,1.5374,1.1089,0.7725,0.0,0.0,0.0,0.0,0.0,0.0,0.0,0.0,0.0,0.0,0.0,0.0,0.0,0.0,0.0,0.0,0.0,0.0,0.0,0.0,0.0,0.0,0.0,0.0,0.0,0.0,0.0,0.0,0.0,0.0,0.0,0.0,0.0,0.0,0.0,0.0,0.0,0.0,-0.2551,0.173,0.0,0.0,0.0,0.0,0.0,0.0,0.0,0.0,1.0558,0.0,0.0,0.0,0.0,0.0,0.0,0.0,0.0,0.0,0.0,0.0,0.0,0.0,0.0,0.0,0.0,0.0,0.0,0.0,0.0,0.0,0.0,0.0,0.0,0.0,0.0,0.0,0.0,0.0,0.0,0.0,0.0,0.0,0.0,0.0,0.0,0.0,0.0,0.0,0.0,0.0,0.0,0.0,0.0,0.0,0.0,0.0,0.0,0.0,0.0,0.0,0.0,0.0,0.0,0.0,0.0,1.0292,1.0633,1.3892,2.013,2.0096,1.9683,1.8894,1.3406,0.9327,0.6741,0.0,0.0,0.0,0.0,0.0,0.0,0.0,0.0,0.0,0.0,0.0,0.0,0.0,0.0,0.0,0.0,0.0,0.0,0.0,0.0,0.0,0.0,0.0,0.0,0.0,0.0,0.0,0.0,0.0,0.0,0.0,0.0,0.0,0.0,0.0,0.0,0.0,0.0,0.0,0.4679,0.5524,0.0,0.0,0.0,0.0,0.0,0.0,0.0,0.0,1.2162,0.0,0.0,0.0,0.0,0.0,0.0,0.0,0.0,0.0,0.0,0.0,0.0,0.0,0.0,0.0,0.0,0.0,0.0,0.0,0.0,0.0,0.0,0.0,0.0,0.0,0.0,0.0,0.0,0.0,0.0,0.0,0.0,0.0,0.0,0.0,0.0,0.0,0.0,0.0,0.0,0.0,0.0,0.0,0.0,0.0,0.0,0.0,0.0,0.0,0.0,0.0,0.0,0.0,0.0,0.0,0.944,1.1898,1.5577,2.0548,1.9955,1.8875,1.7503,1.3326,0.9248,0.0,0.0,0.0,0.0,0.0,0.0,0.0,0.0,0.0,0.0,0.0,0.0,0.0,0.0,0.0,0.0,0.0,0.0,0.0,0.0,0.0,0.0,0.0,0.0,0.0,0.0,0.0,0.0,0.0,0.0,0.0,0.0,0.0,0.0,0.0,0.0,0.0,0.0,0.0,0.0,0.6452,0.8241,1.3325,0.0,0.0,0.0,0.0,0.0,0.0,1.5543,1.3852,0.0,0.0,0.0,0.0,0.0,0.0,0.0,0.0,0.0,0.0,0.0,0.0,0.0,0.0,0.0,0.0,0.0,0.0,0.0,0.0,0.0,0.0,0.0,0.0,0.0,0.0,0.0,0.0,0.0,0.0,0.0,0.0,0.0,0.0,0.0,0.0,0.0,0.0,0.0,0.0,0.0,0.0,0.0,0.0,0.0,0.0,0.0,0.0,0.0,0.0,0.0,0.0,0.0,0.0,0.0,0.8211,1.271,1.673,2.016,1.9479,1.8135,1.6182,1.2457,0.8401,0.0,0.0,0.0,0.0,0.0,0.0,0.0,0.0,0.0,0.0,0.0,0.0,0.0,0.0,0.0,0.0,0.0,0.0,0.0,0.0,0.0,0.0,0.0,0.0,0.0,0.0,0.0,0.0,0.0,0.0,0.0,0.0,0.0,0.0,0.0,0.0,0.0,0.0,0.0,0.0,0.0,1.016,1.3563,1.3003,0.0,0.0,0.0,0.0,1.5558,1.6806,0.0,0.0,0.0,0.0,0.0,0.0,0.0,0.0,0.0,0.0,0.0,0.0,0.0,0.0,0.0,0.0,0.0,0.0,0.0,0.0,0.0,0.0,0.0,0.0,0.0,0.0,0.0,0.0,0.0,0.0,0.0,0.0,0.0,0.0,0.0,0.0,0.0,0.0,0.0,0.0,0.0,0.0,0.0,0.0,0.0,0.0,0.0,0.0,0.0,0.0,0.0,0.0,0.0,0.0,0.0,0.0,0.8135,1.2101,1.5912,1.9186,1.8664,1.726,1.5042,0.8094,0.4196,0.0,0.0,0.0,0.0,0.0,0.0,0.0,0.0,0.0,0.0,0.0,0.0,0.0,0.0,0.0,0.0,0.0,0.0,0.0,0.0,0.0,0.0,0.0,0.0,0.0,0.0,0.0,0.0,0.0,0.0,0.0,0.0,0.0,0.0,0.0,0.0,0.0,0.0,0.0,0.0,0.0,0.8275,1.4964,1.2869,1.0992,0.0,0.0,1.7838,1.7838,2.2353,0.0,0.0,0.0,0.0,0.0,0.0,0.0,0.0,0.0,0.0,0.0,0.0,0.0,0.0,0.0,0.0,0.0,0.0,0.0,0.0,0.0,0.0,0.0,0.0,0.0,0.0,0.0,0.0,0.0,0.0,0.0,0.0,0.0,0.0,0.0,0.0,0.0,0.0,0.0,0.0,0.0,0.0,0.0,0.0,0.0,0.0,0.0,0.0,0.0,0.0,0.0,0.0,0.0,0.0,0.0,0.3971,0.6211,1.278,1.7171,1.889,1.8592,1.7189,1.4561,0.8563,0.4168,0.0,0.0,0.0,0.0,0.0,0.0,0.0,0.0,0.0,0.0,0.0,0.0,0.0,0.0,0.0,0.0,0.0,0.0,0.0,0.0,0.0,0.0,0.0,0.0,0.0,0.0,0.0,0.0,0.0,0.0,0.0,0.0,0.0,0.0,0.0,0.0,0.0,0.0,0.0,0.0,0.0,0.0,1.4168,1.4273,0.0,0.0,0.0,1.8702,1.7407,0.0,0.0,0.0,0.0,0.0,0.0,0.0,0.0,0.0,0.0,0.0,0.0,0.0,0.0,0.0,0.0,0.0,0.0,0.0,0.0,0.0,0.0,0.0,0.0,0.0,0.0,0.0,0.0,0.0,0.0,0.0,0.0,0.0,0.0,0.0,0.0,0.0,0.0,0.0,0.0,0.0,0.0,0.0,0.0,0.0,0.0,0.0,0.0,0.0,0.0,0.0,0.0,0.0,0.0,0.0,0.0,0.0,0.457,1.333,1.8201,1.8654,1.8569,1.7297,1.4673,0.9855,0.0,0.0,0.0,0.0,0.0,0.0,0.0,0.0,0.0,0.0,0.0,0.0,0.0,0.0,0.0,0.0,0.0,0.0,0.0,0.0,0.0,0.0,0.0,0.0,0.0,0.0,0.0,-1.1097,0.0,0.0,0.0,0.0,0.0,0.0,0.0,0.0,0.0,0.0,0.0,0.0,0.0,0.0,1.1586,1.3278,1.5381,1.748,0.0,0.0,1.9368,1.855,2.4188,2.6014,0.0,0.0,0.0,0.0,0.0,0.0,0.0,0.0,0.0,0.0,0.0,0.0,0.0,0.0,0.0,0.0,0.0,0.0,0.0,0.0,0.0,0.0,0.0,0.0,0.0,0.0,0.0,0.0,0.0,0.0,0.0,0.0,0.0,0.0,0.0,0.0,0.0,0.0,0.0,0.0,0.0,0.0,0.0,0.0,0.0,0.0,0.0,0.0,0.0,0.0,0.0,0.0,0.0,0.0,0.3844,0.4712,1.3212,1.804,1.8636,1.8295,1.7335,1.5766,1.0961,0.6118,0.0,0.0,0.0,0.0,0.0,0.0,0.0,0.0,0.0,0.0,0.0,0.0,0.0,0.0,0.0,0.0,0.0,0.0,0.0,0.0,0.0,0.0,0.0,0.0,0.0,0.0,0.0,0.0,0.0,0.0,0.0,0.0,0.0,0.0,0.0,0.0,0.0,0.0,0.0,0.0,0.0,1.0588,1.3146,1.556,1.8218,0.0,2.053,2.0556,2.3253,2.938,3.0817,2.1857,0.0,0.0,0.0,0.0,0.0,0.0,0.0,0.0,0.0,0.0,0.0,0.0,0.0,0.0,0.0,0.0,0.0,0.0,0.0,0.0,0.0,0.0,0.0,0.0,0.0,0.0,0.0,0.0,0.0,0.0,0.0,0.0,0.0,0.0,0.0,0.0,0.0,0.0,0.0,0.0,0.0,0.0,0.0,0.0,0.0,0.0,0.0,0.0,0.0,0.0,0.0,0.0,0.0,0.3591,0.4301,1.2593,1.7356,1.8059,1.7701,1.6775,1.5421,1.1615,0.7078,0.0,0.0,0.0,0.0,0.0,0.0,0.0,0.0,0.0,0.0,0.0,0.0,0.0,0.0,0.0,0.0,0.0,0.0,0.0,0.0,0.0,0.0,0.0,0.0,0.0,0.0,0.0,0.0,-0.3439,-0.2883,-0.3931,0.0,0.0,0.0,0.0,0.0,0.0,0.0,0.0,0.0,0.0,1.0851,1.5957,1.803,0.0,0.0,2.2591,2.2244,2.2711,2.6749,2.7122,1.9379,1.7972,0.0,0.0,0.0,0.0,0.0,0.0,0.0,0.0,0.0,0.0,0.0,0.0,0.0,0.0,0.0,0.0,0.0,0.0,0.0,0.0,0.0,0.0,0.0,0.0,0.0,0.0,0.0,0.0,0.0,0.0,0.0,0.0,0.0,0.0,0.0,0.0,0.0,0.0,0.0,0.0,0.0,0.0,0.0,0.0,0.0,0.0,0.0,0.0,0.0,0.0,0.0,0.0,0.3503,0.4223,1.2325,1.6922,1.7673,1.7116,1.6406,1.548,1.2857,0.9071,0.0,0.0,0.0,0.0,0.0,0.0,0.0,0.0,0.0,0.0,0.0,0.0,0.0,0.0,0.0,0.0,0.0,0.0,0.0,0.0,0.0,0.0,0.0,0.0,0.0,0.0,0.0,0.0,-0.2034,-0.1193,-0.1584,0.0,0.0,0.0,0.0,0.0,0.0,0.0,0.0,0.0,0.0,1.2278,1.6129,1.7521,1.9118,2.1845,2.0924,2.0352,2.1632,2.3941,2.3893,1.8891,0.0,0.0,0.0,0.0,0.0,0.0,0.0,0.0,0.0,0.0,0.0,0.0,0.0,0.0,0.0,0.0,0.0,0.0,0.0,0.0,0.0,0.0,0.0,0.0,0.0,0.0,0.0,-0.9775,0.0,0.0,-0.7495,0.0,0.0,0.0,0.0,0.0,0.0,0.0,0.0,0.0,0.0,0.0,0.0,0.0,0.0,0.0,0.0,0.0,0.0,0.0,0.0,0.0,0.0,0.3584,0.4488,1.2367,1.6888,1.7627,1.6736,1.6259,1.6412,1.4817,1.2447,0.918,0.0,0.0,0.0,0.0,0.0,0.0,0.0,0.0,0.0,0.0,0.0,0.0,0.0,0.0,0.0,0.0,0.0,0.0,0.0,0.0,0.0,0.0,0.0,0.0,0.0,0.0,-0.857,-0.5092,-0.1646,0.0,0.0,0.0,0.0,0.0,0.0,0.0,0.0,0.0,0.0495,0.9503,1.4958,1.242,1.3021,1.5017,1.7853,1.4492,1.3955,2.0692,2.2208,2.2377,0.0,0.0,0.0,0.0,0.0,0.0,0.0,0.0,0.0,0.0,0.0,0.0,0.0,0.0,0.0,0.0,0.0,0.0,0.0,0.0,0.0,0.0,0.0,0.0,0.0,0.0,0.0,-0.7108,-0.708,0.0,0.0,0.0,0.0,0.0,0.0,0.0,0.0,0.0,0.0,0.0,0.0485,0.0762,0.0,0.0,0.0,0.0,0.0,0.0,0.0,0.0,0.0,0.0,0.0,0.0,0.3406,0.4192,1.1766,1.6151,1.6621,1.6148,1.5878,1.6122,1.5713,1.3579,0.9527,0.0,0.0,0.0,0.0,0.0,0.0,0.0,0.0,0.0,0.0,0.0,0.0,0.0,0.0,0.0,0.0,0.0,0.0,0.0,0.0,0.0,0.0,0.0,0.0,0.0,-0.3687,0.0,0.0,0.0,0.0,0.0,0.0,0.0,0.0,0.0,0.0,-0.3685,-0.1288,0.2239,0.4907,0.7369,0.9722,1.3121,1.6607,0.0,0.0,0.0,0.0,0.0,0.0,0.0,0.0,0.0,0.0,0.0,0.0,0.0,0.0,2.2306,1.8314,2.0615,2.3931,2.6282,0.0,0.0,0.0,0.0,0.0,0.0,0.0,0.0,0.0,0.0,0.0,0.0,0.0,0.0,-0.3873,0.0,-0.3675,0.0,0.0,0.0,0.0,0.0,0.0,0.0,0.0,0.1548,0.3669,0.4898,0.5119,0.5168,0.0,0.3599,0.0134,0.0,0.0,0.0,0.0,0.0,0.0,0.0,0.0,0.3316,0.3977,1.1565,1.5768,1.6107,1.5764,1.5567,1.5803,1.5969,1.471,1.1743,0.7454,0.3751,0.0,0.0,0.0,0.0,0.0,0.0,0.0,0.0,0.0,0.0,0.0,0.0,0.0,0.0,0.0,0.0,0.0,0.0,0.0,0.0,0.0,0.0,0.0,-0.1294,0.0,0.0,0.0,0.0,0.0,0.0,0.0,0.0,0.0,-0.249,-0.1155,0.1008,0.3871,0.5499,0.6749,0.7598,0.0,0.0,0.0,0.0,0.0,0.0,0.0,1.6225,1.5399,1.6788,1.9259,2.3267,2.6301,2.8203,2.8526,0.0,0.0,2.5216,2.7228,3.0419,3.191,3.2821,3.3572,3.4325,3.46,3.4842,0.0,0.0,0.0,0.0,0.0,0.0,0.0,0.0,0.1958,-0.0202,0.0,0.027,0.0,0.0,0.0,0.0,-0.3399,0.0345,0.0,0.0,1.0981,1.2979,0.9618,0.9536,0.9531,0.9278,0.5207,0.3216,0.3089,0.152,0.0,0.0,0.0,0.0,0.0,0.0,0.3446,0.4378,1.1644,1.5733,1.6151,1.5623,1.5368,1.5606,1.5781,1.5876,1.57,1.1396,0.8862,0.8399,0.1014,0.0,0.0,0.0,0.0,0.0,0.0,0.0,0.0,0.0,0.0,0.0,0.0,0.0,0.0,0.0,0.0,0.0,0.0,0.0,0.0,-0.2339,0.0,0.0,0.0,0.0,0.0,0.0,0.0,0.0,0.0,-0.0603,-0.1129,0.2254,0.4985,0.4652,0.0,0.0,0.0,0.0,1.3832,0.9364,0.8682,0.9597,1.1464,1.5041,1.8867,2.219,0.0,0.0,3.2455,2.9945,2.8278,2.8909,3.4355,3.6716,3.1491,3.1896,3.2701,3.2053,3.4122,3.524,3.5036,3.6482,3.7258,0.1992,0.0,0.0,0.0,0.0,-0.0629,0.1797,0.4971,0.4796,0.462,0.4445,0.5164,0.0,0.0,0.0,0.0,0.0,0.0,0.3902,0.7145,0.9839,1.2069,1.3908,1.4026,1.4018,1.3901,1.2626,1.165,1.0802,0.9696,0.4045,-0.5892,0.0,0.0,0.0,0.0,0.3025,0.726,1.2158,1.5083,1.5716,1.5428,1.5308,1.5349,1.5687,1.5753,1.5459,1.4388,1.227,0.8867,0.6502,0.0,0.0,0.0,0.0,0.0,0.0,0.0,0.0,0.0,0.0,0.0,0.0,0.0,0.0,0.0,0.0,0.0,0.0,0.0,-0.1124,0.1991,0.2986,0.0,0.0,0.0,0.0,0.0,0.0,0.0,0.0,0.0,0.2326,0.0323,-0.1695,0.0,0.0,0.0337,-0.047,0.6855,1.3222,1.5508,1.7196,0.0,2.2293,2.1687,2.1268,2.2439,2.7347,3.1655,3.3329,3.6567,3.9198,3.9949,4.2727,4.4141,4.2432,4.1739,4.1775,4.2187,4.2888,4.3661,4.4238,4.5025,4.5475,0.7889,0.4371,0.2617,0.2357,0.3037,0.39,0.6046,0.8938,0.8993,0.8466,0.7744,0.9091,0.6867,0.2197,0.1751,0.0,0.0,0.0,0.6777,1.1451,1.1748,1.3363,1.5796,1.5991,1.5991,1.5878,1.5804,1.5417,1.4725,1.234,0.6825,-0.1663,0.0,-0.6093,-0.4435,0.0131,0.4209,0.7752,1.2021,1.4399,1.4776,1.4958,1.5095,1.5165,1.5435,1.5462,1.5438,1.5359,1.4016,1.1212,0.9347,0.6097,0.0,0.0,0.0,0.0,0.0,0.0,0.0,0.0,0.0,0.0,0.0,0.202,-0.1479,0.0,0.0,0.0,0.1268,0.1895,0.2988,0.4177,0.0,0.0,0.0,0.0,0.0,0.0,0.0,0.0642,0.2313,0.3582,0.3318,0.1217,-0.0068,0.0349,0.1795,0.3082,0.3918,0.0,1.7269,1.9955,2.1458,2.3143,2.5144,2.5186,2.5441,2.7182,3.013,3.3197,3.5345,3.944,4.2658,4.3996,4.5642,4.6679,4.6002,4.5801,4.5856,4.6384,4.6879,4.7413,4.7895,4.8499,4.9056,1.2783,1.0426,0.5835,0.572,0.858,0.9096,1.0839,1.3354,1.3454,1.1454,0.8279,1.1843,0.9624,0.3124,0.2038,0.0,0.7197,0.7435,1.0409,1.5385,1.5635,1.5886,1.5958,1.5966,1.5966,1.5958,1.5878,1.5796,1.5602,1.1644,0.8157,0.5268,0.5021,0.3029,-0.0268,0.3273,0.57,0.633,1.0796,1.3339,1.367,1.4326,1.4749,1.4945,1.4927,1.5132,1.5461,1.4901,1.4516,1.4353,1.0528,0.7999,0.7184,0.0,0.0,0.0,0.0,0.0,0.0,0.0,0.0,0.0,0.0,0.0,0.0,0.0,0.0,0.5205,0.6603,0.0,0.8454,0.5904,0.0,0.0,0.0,0.7187,1.1231,1.0172,0.8883,0.8035,0.0,0.0,0.3113,0.4259,0.7092,1.2033,1.3946,1.4707,1.4247,1.9495,2.3712,2.2918,2.3196,2.3492,2.4593,2.7083,3.0326,3.3713,3.4685,3.5175,3.734,3.9307,4.0992,4.2544,4.4525,4.5653,4.4757,4.5355,4.5893,4.5858,4.6795,4.7463,4.7045,4.7518,4.822,1.3515,1.2402,1.2194,1.1385,1.0583,1.2617,1.4045,1.4656,1.37,1.3188,1.3055,1.2669,1.1376,0.9437,0.9015,0.9381,1.0453,1.1513,1.2749,1.4246,1.5404,1.5925,1.5966,1.5966,1.5966,1.5958,1.5925,1.5983,1.5885,1.4789,1.1694,0.7007,0.6702,0.304,-0.3638,-0.25,0.0339,0.4563,0.617,0.9313,1.4048,1.4367,1.4432,1.4405,1.4613,1.4762,1.4768,1.483,1.4718,1.4267,1.3908,1.2219,0.898,0.5675,0.0,0.0,0.0,0.0,0.0,0.0,0.0,0.0,0.0,0.2425,-0.086,0.0,0.1595,0.0,0.9458,1.428,1.5711,1.5179,0.0,0.0,1.1541,1.0665,1.0819,1.2168,1.1487,0.7108,0.6824,0.7371,0.8469,0.8045,1.0363,1.7511,1.4367,1.1924,1.3871,1.964,2.451,2.6424,2.901,3.1043,3.0973,3.1861,3.3353,3.552,3.5066,3.5157,3.7177,3.8905,4.0431,4.1752,4.3534,4.4707,4.4604,4.4801,4.491,4.4954,4.5472,4.5794,4.5332,4.5872,4.6469,1.3154,1.2591,1.3282,1.2526,1.1215,1.4394,1.5083,1.4098,1.3626,1.3349,1.3348,1.2764,1.1975,1.1205,1.1024,1.0792,1.0779,1.1562,1.2651,1.3817,1.4713,1.5463,1.5966,1.5966,1.5966,1.5966,1.5966,1.5966,1.5958,1.5943,1.404,1.0577,1.0504,0.6804,-0.0217,-0.2021,-0.1313,0.1694,0.4312,0.8417,1.4066,1.4237,1.3287,1.1429,1.1569,1.0914,0.9297,0.9228,0.9097,0.8906,0.9148,0.8157,0.5768,0.2956,0.0478,0.0,0.0,0.0,0.0,0.0,0.0,0.0,0.0,0.0,0.0,0.0,0.5416,0.6228,1.3057,1.71,1.6304,1.626,1.6309,1.6476,1.5711,1.5403,1.6242,1.6868,1.603,1.3138,1.2501,1.2944,1.4622,1.4342,1.558,2.0658,1.898,1.8124,2.0627,2.4344,2.7605,3.0243,3.2667,3.4445,3.4743,3.4785,3.5027,3.5779,3.5261,3.5108,3.6538,3.7681,3.8954,4.0514,4.209,4.3357,4.3878,4.4146,4.4211,4.408,4.4342,4.4604,4.4604,4.4942,4.5323,1.24,1.1916,1.1792,1.148,1.1437,1.4764,1.4894,1.2805,1.318,1.2555,1.1351,1.2113,1.1704,1.0503,1.0187,0.9864,0.9603,1.0014,1.1411,1.3356,1.3899,1.4713,1.5719,1.5958,1.5966,1.5966,1.5966,1.5966,1.5966,1.5966,1.5272,1.3848,1.3841,1.081,0.4981,0.1241,-0.0713,-0.1147,0.3911,0.8826,1.3149,1.2696,1.0574,0.717,0.7074,0.5769,0.2702,0.2178,0.2098,0.2254,0.1959,0.1888,0.209,-0.0855,-0.2457,0.0,-0.5191,0.0,0.0,0.0,0.0,0.0,0.0,0.0,0.0,1.004,1.0346,1.2411,1.6775,1.8401,1.5594,1.5336,1.6912,2.065,2.0161,2.0625,2.3242,2.191,2.0766,2.0897,1.934,1.8831,1.9804,2.0489,2.0955,2.1946,2.3977,2.6082,2.894,2.9833,3.1126,3.3624,3.4593,3.5231,3.5889,3.6016,3.5967,3.6016,3.5596,3.5344,3.6199,3.6739,3.761,3.9484,4.0779,4.182,4.294,4.3499,4.3653,4.3324,4.3565,4.3889,4.4211,4.432,4.4623,1.1714,1.1582,1.1294,1.1873,1.292,1.3705,1.3727,1.2939,1.2131,1.1145,1.0113,1.0194,0.9877,0.9276,0.9206,0.8897,0.854,1.0299,1.1042,1.0937,1.3783,1.4878,1.4465,1.5463,1.5966,1.5966,1.5966,1.5966,1.5966,1.5966,1.4023,1.0227,1.0142,0.7532,0.2619,0.0,0.0,0.0,0.3949,0.7331,0.8581,0.547,0.3433,0.2765,0.2864,0.0,0.2408,0.2102,0.208,0.2195,0.2682,0.0,0.0,0.0,0.0,0.0,0.0,0.0,0.0,0.0,0.0,0.0,1.0576,1.1769,1.2548,1.269,1.4353,1.8296,1.9616,2.1397,2.4266,2.4569,2.4872,2.5608,2.4974,2.4381,2.399,2.2276,2.1047,2.0801,1.9101,1.8456,1.9851,2.0375,2.1226,2.2714,2.4834,2.7288,2.9903,3.1026,3.247,3.433,3.531,3.6025,3.6742,3.6384,3.6316,3.6586,3.6248,3.6191,3.6879,3.7336,3.8267,4.0121,4.0934,4.1572,4.2635,4.2969,4.3208,4.2985,4.3051,4.3181,4.3407,4.3447,4.3517,1.1473,1.1453,1.0489,1.0435,0.0,1.1432,1.14,1.1172,1.1635,1.1058,0.9987,0.9774,0.9397,0.8879,0.8672,0.8446,0.8144,0.9226,0.9893,1.0226,1.1967,1.3217,1.4052,1.4713,1.5381,1.5966,1.5966,1.5966,1.5966,1.5966,1.4765,1.2518,1.2511,1.1171,0.873,0.8554,0.6767,0.3209,0.5911,0.8353,1.0323,0.8601,0.6637,0.4733,0.4706,0.0,0.0,0.0,0.0,0.0,0.0,0.0,0.0,0.5756,0.0,0.8143,0.6275,0.6081,0.8369,1.0417,1.2583,1.4804,1.668,1.7428,1.6763,1.8766,2.1065,2.3392,2.3724,2.4611,2.6809,2.707,2.7076,2.6997,2.6643,2.5984,2.4852,2.3885,2.2815,2.1663,2.065,2.0246,2.0934,2.1257,2.2184,2.397,2.5941,2.8059,3.002,3.1199,3.265,3.499,3.6064,3.6809,3.7435,3.7348,3.7146,3.7502,3.7011,3.6964,3.7689,3.7707,3.8377,4.0675,4.1404,4.1994,4.3646,4.403,4.412,4.4029,4.3736,4.351,4.3573,4.3235,4.2921,1.1119,1.1003,0.9556,0.8954,0.8952,0.9308,0.933,0.9306,1.1025,0.0,0.0,0.9831,0.9392,0.8906,0.8526,0.8301,0.8089,0.8236,0.8813,0.9726,1.0143,1.1392,1.33,1.3797,1.4548,1.5628,1.5883,1.5966,1.5966,1.5966,1.5966,1.5966,1.5966,1.5853,1.5626,1.5174,1.283,0.8834,0.8169,0.9374,1.2409,1.1907,1.0007,0.6667,0.6642,0.5125,0.2001,0.1662,0.1961,0.2814,0.2669,0.3392,0.5103,0.5322,0.5902,0.695,0.7067,0.8952,1.3137,1.4683,1.719,2.1405,2.2192,2.2046,2.1009,2.4048,2.6269,2.6806,2.6846,2.6863,2.7085,2.7083,2.7039,2.6971,2.6989,2.666,2.5782,2.551,2.4569,2.3117,2.2602,2.2467,2.248,2.2685,2.3408,2.5355,2.7188,2.9058,3.0539,3.1912,3.3381,3.55,3.6654,3.7502,3.7971,3.8125,3.8212,3.8249,3.7697,3.7604,3.8194,3.7987,3.8718,4.1343,4.1823,4.2569,4.4436,4.4815,4.4978,4.4978,4.4455,4.398,4.3935,4.3437,4.3033,0.9679,0.9658,0.9208,0.8954,0.8952,0.9234,0.9405,0.9649,0.996,0.9951,0.9774,0.9616,0.9284,0.8994,0.8764,0.8471,0.8259,0.8941,0.8901,0.8478,1.031,1.1059,1.0804,1.2969,1.4128,1.4375,1.5463,1.5966,1.5966,1.5966,1.5966,1.5966,1.5966,1.5633,1.5074,1.4759,1.3911,1.2309,0.9115,0.7797,0.8289,0.474,0.2694,0.2489,0.2721,0.2449,0.1973,0.1926,0.1902,0.2138,0.1815,0.3677,0.8048,0.8472,1.0596,1.5199,1.5106,1.5414,1.6712,1.7787,1.9534,2.2098,2.2516,2.2711,2.2946,2.3311,2.4152,2.5607,2.5725,2.6139,2.6916,2.7004,2.6941,2.7015,2.7038,2.691,2.6823,2.607,2.5425,2.4941,2.412,2.359,2.3674,2.429,2.517,2.6343,2.8054,2.9932,3.1947,3.4126,3.5363,3.6044,3.7146,3.7971,3.8191,3.8191,3.8336,3.8709,3.8352,3.8279,3.9096,3.8644,3.9137,4.1528,4.1542,4.2037,4.3741,4.3846,4.4007,4.4059,4.4072,4.4062,4.4062,4.3961,4.382,0.9408,0.9379,0.9175,0.9028,0.8934,0.8932,0.9139,0.9448,0.9184,0.9241,0.9362,0.9316,0.9065,0.8743,0.853,0.8377,0.8195,0.8525,0.8483,0.8227,0.9142,0.981,1.0226,1.1309,1.2631,1.3962,1.4631,1.5298,1.5966,1.5966,1.5875,1.5703,1.5446,1.515,1.467,1.4477,1.403,1.3428,1.1858,1.0878,1.0535,0.8765,0.7997,0.8258,0.8223,0.8239,0.8293,0.8138,0.8387,0.8933,0.8978,1.0195,1.2686,1.2481,1.3595,1.6473,1.6371,1.6457,1.7195,1.8353,1.9776,2.1476,2.0825,2.0717,2.1639,2.2391,2.3084,2.3644,2.3952,2.4547,2.556,2.5964,2.6557,2.7555,2.762,2.7844,2.8341,2.8166,2.7463,2.6505,2.5935,2.5426,2.4805,2.5498,2.6383,2.738,2.9131,3.1064,3.2491,3.4214,3.5568,3.6044,3.7213,3.8037,3.8191,3.8191,3.8378,3.8703,3.8481,3.8605,3.9241,3.9027,3.9778,4.1728,4.2082,4.2767,4.4468,4.4848,4.4799,4.4735,4.4435,4.4357,4.4302,4.4218,4.4017,0.9395,0.9363,0.9187,0.906,0.8962,0.8803,0.8878,0.9084,0.8794,0.8744,0.8946,0.9009,0.8833,0.8489,0.8362,0.8191,0.7963,0.7861,0.7809,0.7809,0.7809,0.8474,0.9643,0.9893,1.1303,1.3383,1.388,1.4713,1.5875,1.5925,1.5795,1.5412,1.4958,1.4639,1.4355,1.4213,1.3915,1.3498,1.3847,1.3755,1.326,1.342,1.3639,1.3826,1.3649,1.3615,1.3574,1.3367,1.3546,1.425,1.4488,1.4796,1.5157,1.4741,1.4772,1.5508,1.5434,1.5694,1.6613,1.7826,1.9012,2.0125,1.9155,1.882,1.9649,2.0724,2.1687,2.2003,2.2468,2.3283,2.4839,2.5412,2.6411,2.8099,2.8506,2.8837,2.9628,2.9867,2.9465,2.8044,2.7757,2.7408,2.6733,2.6834,2.7614,2.8694,3.048,3.1982,3.2701,3.3955,3.5108,3.5772,3.7011,3.7837,3.7971,3.8125,3.8419,3.8807,3.8543,3.875,3.9288,3.9405,4.0039,4.1994,4.2767,4.3529,4.5167,4.5501,4.5405,4.5252,4.489,4.4698,4.4803,4.4476,4.4219,0.9363,0.9269,0.9101,0.8967,0.8881,0.8779,0.873,0.8709,0.864,0.8607,0.8672,0.8598,0.8606,0.8554,0.8326,0.7824,0.7173,0.6954,0.6804,0.6804,0.6801,0.7307,0.8395,0.9476,1.0893,1.2299,1.3376,1.4443,1.5753,1.5707,1.5635,1.5441,1.4885,1.4303,1.4072,1.4109,1.3698,1.2663,1.3337,1.3565,1.32,1.3245,1.3377,1.3639,1.3754,1.3798,1.3598,1.2928,1.2564,1.2475,1.2406,1.2375,1.2479,1.2813,1.3441,1.4408,1.3687,1.3809,1.5443,1.6569,1.7585,1.8166,1.8501,1.833,1.7933,1.7953,1.9131,2.1149,2.1637,2.2929,2.5891,2.6343,2.72,2.8952,2.9432,2.9724,2.9946,3.009,3.014,2.9691,2.9474,2.9388,2.8765,2.875,2.9174,2.9987,3.1347,3.2421,3.2701,3.3817,3.4715,3.5177,3.6268,3.7079,3.7213,3.777,3.8294,3.898,3.8683,3.8807,3.9475,4.0124,4.0779,4.1791,4.2967,4.3688,4.4419,4.4677,4.4532,4.4793,4.4803,4.4938,4.5254,4.5059,4.4719,0.9314,0.9269,0.9142,0.9036,0.8946,0.8852,0.8783,0.8726,0.8644,0.8607,0.8607,0.8566,0.8719,0.8871,0.7917,0.741,0.7213,0.6343,0.5963,0.5963,0.6466,0.6888,0.7307,0.8395,0.9697,1.1123,1.1441,1.2383,1.3531,1.3307,1.3003,1.2956,1.309,1.305,1.2695,1.3303,1.3311,1.2644,1.2859,1.2902,1.2789,1.2925,1.32,1.3548,1.3665,1.3762,1.3673,1.3082,1.2619,1.2481,1.1776,1.1629,1.2244,1.2217,1.2621,1.3527,1.3945,1.4519,1.5488,1.6632,1.7596,1.8185,1.8071,1.7908,1.7978,1.7542,1.8239,2.0294,2.1127,2.2472,2.4863,2.6353,2.8053,2.9783,3.0377,3.0837,3.1792,3.1738,3.1475,3.0977,3.065,3.0174,2.9523,2.9675,3.0211,3.096,3.1912,3.2333,3.2403,3.3242,3.3817,3.4094,3.4971,3.5928,3.6355,3.6845,3.7537,3.8006,3.8332,3.8661,3.913,3.9972,4.0671,4.1694,4.2573,4.3482,4.4319,4.4157,4.3929,4.4217,4.4482,4.4728,4.4908,4.4859,4.4808,0.9285,0.9236,0.9171,0.9105,0.904,0.8946,0.8965,0.8986,0.8808,0.8861,0.9041,0.8951,0.9062,0.9114,0.7686,0.7087,0.7024,0.5665,0.4949,0.4939,0.5855,0.6356,0.6606,0.7524,0.8916,1.0189,1.024,1.0877,1.2103,1.1604,1.1169,1.1195,1.161,1.1665,1.1524,1.2422,1.2722,1.2284,1.2451,1.2656,1.2558,1.2741,1.3064,1.3471,1.354,1.3721,1.3841,1.3182,1.2681,1.2459,1.1552,1.1413,1.21,1.2142,1.2543,1.3317,1.4188,1.4892,1.5376,1.6581,1.7446,1.7719,1.7543,1.7672,1.7837,1.7358,1.7933,1.9817,2.1345,2.3026,2.4723,2.6503,2.8591,3.0819,3.1286,3.1929,3.299,3.2947,3.2538,3.2061,3.1559,3.0927,3.031,3.0666,3.1407,3.1511,3.1825,3.2175,3.2333,3.2911,3.333,3.3418,3.4237,3.5023,3.5712,3.6387,3.6816,3.7579,3.8266,3.856,3.8958,4.0171,4.0935,4.204,4.2558,4.3091,4.3903,4.3791,4.3566,4.4122,4.451,4.4763,4.4955,4.5004,4.5291,0.9305,0.9063,0.9146,0.9138,0.913,0.9036,0.9275,0.9622,0.9166,0.9403,1.0036,0.9757,0.9662,0.974,0.7796,0.6769,0.6311,0.475,0.3764,0.3653,0.4721,0.5545,0.612,0.7278,0.8632,0.9983,1.0148,1.0809,1.1779,1.153,1.1329,1.0956,1.0755,1.0608,1.0545,1.1549,1.1747,1.1492,1.2413,1.2874,1.2628,1.2803,1.3018,1.3297,1.3455,1.3729,1.3785,1.3182,1.2466,1.1749,1.1697,1.1684,1.1523,1.2573,1.3445,1.3839,1.4224,1.442,1.4683,1.5941,1.6695,1.6552,1.713,1.7368,1.7315,1.7228,1.8046,1.973,2.2297,2.4517,2.6121,2.7191,2.8818,3.1446,3.2259,3.2647,3.3148,3.3143,3.3193,3.3033,3.2502,3.1913,3.1513,3.2413,3.2322,3.1964,3.1896,3.2175,3.2544,3.2981,3.333,3.3663,3.4143,3.47,3.542,3.6282,3.7223,3.8076,3.8519,3.8815,4.0195,4.1309,4.1833,4.2256,4.2604,4.3051,4.352,4.3684,4.3514,4.3946,4.4845,4.5223,4.5273,4.5902,4.6301,0.9203,0.9051,0.9051,0.9051,0.9039,0.9044,0.9101,0.9279,0.9372,0.9513,0.9775,0.963,0.9712,0.9932,0.701,0.5793,0.5576,0.3384,0.2181,0.2256,0.3982,0.4879,0.5286,0.6977,0.8148,0.885,0.8818,0.8613,0.8274,0.8179,0.7723,0.7481,0.8225,0.8588,0.8804,1.0726,1.1676,1.1547,1.2573,1.3054,1.2979,1.3071,1.3185,1.3478,1.3548,1.3729,1.3904,1.3182,1.2681,1.2395,1.1552,1.1382,1.2222,1.3083,1.3547,1.3739,1.4182,1.4439,1.4664,1.5419,1.6039,1.6173,1.6851,1.7376,1.7531,1.7862,1.8728,2.0197,2.235,2.4535,2.655,2.8535,3.048,3.1731,3.2215,3.2567,3.3019,3.3038,3.3035,3.3674,3.3565,3.3227,3.2821,3.2753,3.2679,3.2528,3.2279,3.2368,3.2631,3.3069,3.333,3.3487,3.3806,3.4459,3.5718,3.6526,3.738,3.8182,3.8767,3.9019,3.9926,4.0846,4.1373,4.1041,4.1678,4.1828,4.1913,4.2687,4.2621,4.2848,4.3848,4.5582,4.5609,4.6299,4.691,0.9051,0.9051,0.9051,0.9051,0.9134,0.9077,0.9146,0.9326,0.991,1.0328,1.046,1.0336,1.0305,0.9726,0.6547,0.4903,0.4606,0.2366,0.126,0.1338,0.3471,0.452,0.4759,0.6742,0.7898,0.8016,0.756,0.699,0.6403,0.5982,0.5477,0.5043,0.6139,0.6725,0.7194,0.9505,1.0865,1.125,1.248,1.3185,1.3252,1.3274,1.342,1.3597,1.368,1.3746,1.3904,1.3404,1.3039,1.2681,1.1893,1.1965,1.3024,1.3295,1.3514,1.3858,1.41,1.4275,1.4448,1.4943,1.5375,1.5777,1.6661,1.7375,1.7712,1.8396,1.9464,2.0921,2.2834,2.4962,2.7208,2.9801,3.1652,3.2017,3.2224,3.2539,3.3188,3.3007,3.3262,3.3895,3.4585,3.4464,3.3846,3.3727,3.3483,3.3213,3.2813,3.2788,3.2911,3.3139,3.3402,3.3651,3.4043,3.4836,3.5984,3.7034,3.7768,3.863,3.9099,3.9255,3.9555,4.0362,4.0519,4.0171,3.9973,4.003,4.044,4.1255,4.1609,4.1712,4.3771,4.5981,4.6299,4.675,4.7496,0.9043,0.8936,0.9047,0.913,0.9118,0.9118,0.9414,1.005,1.0894,1.1647,1.2166,1.1988,1.1346,1.0038,0.6832,0.4523,0.3735,0.2274,0.1171,0.0996,0.3193,0.4232,0.4146,0.6504,0.7609,0.7653,0.681,0.6544,0.6452,0.5395,0.4809,0.4763,0.4758,0.5256,0.5763,0.7961,0.947,1.0369,1.2167,1.3215,1.323,1.3448,1.3582,1.3631,1.3786,1.392,1.3904,1.3904,1.3547,1.3039,1.3111,1.3468,1.3611,1.3309,1.3317,1.4164,1.4093,1.3959,1.4014,1.4429,1.4963,1.5431,1.6441,1.7313,1.7819,1.8474,1.978,2.1781,2.3871,2.6007,2.8164,3.0263,3.1597,3.2018,3.2316,3.2735,3.3101,3.3262,3.3348,3.3989,3.5207,3.5666,3.4902,3.484,3.4843,3.3945,3.3595,3.3572,3.3487,3.3454,3.3687,3.4134,3.444,3.4989,3.6309,3.7639,3.8384,3.9031,3.9378,3.9629,3.986,4.0367,3.9863,3.9474,3.861,3.8659,3.9405,4.0287,4.141,4.1989,4.4393,4.6193,4.6779,4.7313,4.8406,0.7413,0.7563,0.8649,0.9011,0.8971,0.9024,0.9577,1.0718,1.1361,1.2122,1.2721,1.2556,1.1786,1.0066,0.7444,0.5816,0.4959,0.3397,0.1749,0.0917,0.2869,0.398,0.4369,0.6366,0.7236,0.6733,0.6453,0.567,0.4748,0.419,0.3712,0.3306,0.3669,0.4026,0.4447,0.7434,0.9334,0.9847,1.2287,1.3705,1.3705,1.373,1.3842,1.3834,1.3857,1.4047,1.4332,1.4332,1.4189,1.3975,1.3833,1.369,1.3539,1.3539,1.3761,1.3975,1.3975,1.3904,1.3967,1.4353,1.4735,1.522,1.6209,1.7235,1.8127,1.8876,1.9888,2.1294,2.3457,2.5681,2.6954,2.9288,3.0988,3.1666,3.2105,3.2523,3.3067,3.4171,3.4901,3.4989,3.6196,3.6673,3.6168,3.6153,3.5759,3.5348,3.4765,3.4283,3.432,3.4139,3.3933,3.4092,3.4489,3.4815,3.5737,3.6562,3.7171,3.8268,3.9038,3.9529,3.9887,4.004,3.9451,3.8821,3.7981,3.7952,3.8685,3.9651,4.0987,4.2322,4.4232,4.5661,4.6865,4.7961,4.9001,0.6675,0.6898,0.8358,0.8926,0.8969,0.949,1.0217,1.1166,1.2352,1.3072,1.3343,1.3148,1.2089,1.0282,0.7849,0.6317,0.5454,0.3862,0.2566,0.1822,0.3422,0.4438,0.467,0.6174,0.6622,0.5781,0.5443,0.4694,0.364,0.325,0.2864,0.2481,0.2844,0.3209,0.3718,0.668,0.8626,0.9562,1.2029,1.369,1.4047,1.4118,1.4189,1.4261,1.4332,1.4403,1.4697,1.4839,1.483,1.4546,1.3975,1.3333,1.2968,1.2968,1.3182,1.3468,1.3682,1.3967,1.4608,1.4893,1.539,1.624,1.743,1.847,1.9386,2.0087,2.0825,2.1988,2.3705,2.5305,2.6424,2.8879,3.0732,3.1319,3.2001,3.2505,3.3224,3.4558,3.5491,3.5692,3.6469,3.7033,3.7164,3.7028,3.6656,3.6583,3.6073,3.5135,3.5085,3.4695,3.4418,3.4176,3.4364,3.4663,3.4947,3.5475,3.5967,3.7199,3.8391,3.9009,3.9451,3.9692,3.9474,3.8869,3.8096,3.8594,3.9312,4.0347,4.1585,4.2956,4.4229,4.5795,4.7264,4.8578,4.9627,0.6709,0.6929,0.8282,0.8869,0.904,1.033,1.1049,1.1496,1.3588,1.4419,1.4143,1.382,1.2586,1.0648,0.8301,0.6649,0.5286,0.4334,0.3923,0.4212,0.5208,0.5661,0.5649,0.6,0.5702,0.5086,0.4266,0.3761,0.3563,0.2791,0.226,0.2333,0.2405,0.2698,0.3716,0.5815,0.7905,0.9275,1.1664,1.3476,1.4357,1.4412,1.4571,1.4856,1.4848,1.491,1.5044,1.5257,1.5328,1.4901,1.3682,1.2824,1.2323,1.1886,1.2252,1.2968,1.3182,1.4181,1.5452,1.5744,1.624,1.758,1.9089,2.0757,2.085,2.1451,2.239,2.337,2.4511,2.548,2.6855,2.9106,3.0752,3.1288,3.2193,3.2997,3.3729,3.4508,3.5188,3.5831,3.6336,3.6902,3.7975,3.8099,3.7893,3.753,3.7433,3.6622,3.5838,3.5287,3.4821,3.4636,3.4467,3.436,3.4613,3.4746,3.5173,3.5762,3.724,3.8308,3.897,3.9277,3.9605,3.9022,3.9088,3.955,4.0068,4.1111,4.2079,4.3112,4.4571,4.6196,4.7695,4.8989,5.0104,0.6684,0.6905,0.8305,0.8832,0.8957,1.0312,1.1527,1.2526,1.4216,1.4956,1.4945,1.4922,1.3536,1.1517,0.982,0.8648,0.7569,0.6522,0.6164,0.6497,0.6788,0.6616,0.6,0.5308,0.4949,0.4858,0.4188,0.3683,0.3563,0.2789,0.2334,0.226,0.226,0.2405,0.3059,0.6025,0.7828,0.8837,1.1879,1.369,1.4139,1.4112,1.4327,1.4724,1.4694,1.4919,1.5328,1.5248,1.5177,1.4964,1.3825,1.3111,1.2896,1.2538,1.2681,1.3325,1.3619,1.4047,1.4893,1.5886,1.6583,1.6885,1.9275,2.045,2.111,2.2003,2.291,2.3897,2.4805,2.5699,2.684,2.8866,3.0681,3.2437,3.2927,3.333,3.3817,3.4439,3.5177,3.5908,3.6745,3.7604,3.8309,3.8869,3.8986,3.876,3.8267,3.7674,3.6809,3.5835,3.5268,3.484,3.458,3.4231,3.4125,3.4172,3.4376,3.4596,3.5889,3.7554,3.8287,3.8948,3.9277,3.9367,4.0509,4.1216,4.1307,4.1839,4.2647,4.3601,4.5166,4.6892,4.808,4.9358,5.0449,0.6669,0.6791,0.8263,0.9147,0.9812,1.112,1.2485,1.3843,1.5066,1.5468,1.5347,1.5071,1.3677,1.1394,1.0301,0.9335,0.8339,0.7844,0.7886,0.8167,0.7719,0.6852,0.5899,0.5215,0.4944,0.4475,0.4359,0.4002,0.3572,0.3095,0.2711,0.2335,0.226,0.2551,0.3279,0.5522,0.7616,0.8636,1.1142,1.2909,1.3857,1.3857,1.4398,1.4885,1.5055,1.5355,1.5701,1.5035,1.4537,1.4315,1.3611,1.2896,1.2395,1.233,1.2689,1.3325,1.3468,1.3967,1.531,1.6442,1.7329,1.8421,2.0403,2.1873,2.2866,2.3535,2.4093,2.4536,2.5172,2.5761,2.6677,2.8756,3.1043,3.279,3.3438,3.3557,3.3817,3.4163,3.4784,3.5547,3.6553,3.7706,3.8534,3.926,3.9695,3.9646,3.9273,3.858,3.7754,3.6729,3.5692,3.5243,3.4589,3.4154,3.3963,3.3978,3.4149,3.437,3.5363,3.6951,3.842,3.9233,3.9997,4.0775,4.1906,4.2732,4.2729,4.2974,4.3854,4.4944,4.6328,4.7162,4.8217,4.9688,5.0785,0.701,0.7036,0.8391,0.9748,1.1012,1.2491,1.3768,1.5006,1.5961,1.611,1.5579,1.4929,1.3607,1.099,1.0721,0.9411,0.8225,0.8748,0.8916,0.8914,0.8351,0.7181,0.573,0.5594,0.5248,0.4488,0.4778,0.4479,0.4034,0.3712,0.3091,0.263,0.2405,0.3061,0.4078,0.5601,0.705,0.8662,1.028,1.1896,1.3132,1.3583,1.417,1.5015,1.5631,1.5821,1.5694,1.4848,1.3984,1.3928,1.3141,1.2237,1.1306,1.1529,1.2107,1.2827,1.3187,1.408,1.6037,1.6825,1.8216,2.0121,2.2241,2.4218,2.4839,2.5252,2.5496,2.5598,2.5598,2.6122,2.6954,2.9277,3.1145,3.2632,3.3282,3.363,3.3733,3.3802,3.4149,3.4947,3.6051,3.7282,3.8357,3.9391,4.0282,4.0261,3.9935,3.9376,3.8531,3.7579,3.6513,3.5532,3.4847,3.4024,3.3904,3.3835,3.4024,3.4352,3.5431,3.6971,3.9167,4.0301,4.1271,4.2229,4.2965,4.3579,4.3978,4.4485,4.5126,4.5831,4.6835,4.7217,4.7783,4.9713,5.1112,0.9039,0.8665,1.0004,1.0809,1.1565,1.3547,1.4783,1.5334,1.6456,1.6514,1.5825,1.5313,1.4407,1.3171,1.1967,1.1231,1.0678,1.0445,1.0144,0.9334,0.9563,0.8324,0.6598,0.577,0.5288,0.5459,0.5361,0.5077,0.4659,0.4223,0.3437,0.2629,0.3352,0.3862,0.4514,0.6624,0.8208,0.8951,1.0517,1.161,1.2363,1.3089,1.3693,1.4437,1.5307,1.5849,1.5687,1.4622,1.3969,1.3705,1.2816,1.177,1.1616,1.2012,1.2595,1.3147,1.3647,1.4244,1.5228,1.6781,1.8248,1.9633,2.2367,2.4303,2.5324,2.6272,2.6605,2.6632,2.6733,2.7197,2.8377,2.9676,3.1027,3.2029,3.2666,3.3145,3.3428,3.3923,3.4556,3.5387,3.6637,3.796,3.8748,3.984,4.0471,4.0584,4.0448,4.0067,3.9237,3.8283,3.7183,3.6062,3.5104,3.4301,3.3886,3.3817,3.4024,3.4269,3.5234,3.618,3.8461,4.0671,4.1365,4.2535,4.374,4.4268,4.4629,4.5431,4.5982,4.666,4.7316,4.7838,4.8654,5.0264,5.1028,1.0085,1.0252,1.0796,1.196,1.3389,1.4633,1.5587,1.6278,1.6928,1.6769,1.6027,1.5616,1.4831,1.3699,1.2741,1.2035,1.1813,1.1988,1.1773,1.1185,1.1004,1.0017,0.8595,0.7189,0.6698,0.6885,0.6822,0.6452,0.585,0.5391,0.4886,0.3891,0.4533,0.5313,0.569,0.746,0.8363,0.9118,1.0166,1.1046,1.1684,1.2388,1.3236,1.3838,1.4588,1.4908,1.4506,1.3548,1.3147,1.2875,1.2108,1.1667,1.1979,1.2284,1.2806,1.366,1.3757,1.4253,1.5073,1.6832,1.8771,1.9843,2.3049,2.5253,2.6573,2.7497,2.7792,2.7922,2.8012,2.8295,2.9613,3.0696,3.1421,3.2023,3.2708,3.3265,3.3553,3.4054,3.4626,3.5377,3.6485,3.7488,3.8549,3.9728,4.0514,4.0544,4.0758,4.0377,3.9754,3.8815,3.7678,3.6582,3.5525,3.4665,3.4024,3.3886,3.3955,3.4237,3.4765,3.5478,3.6742,3.9024,4.1198,4.2376,4.349,4.4476,4.4942,4.5851,4.663,4.7103,4.7697,4.8517,4.9364,5.0345,5.089,1.0554,1.136,1.1341,1.3052,1.5399,1.5582,1.6263,1.7202,1.7356,1.6896,1.6074,1.567,1.438,1.3301,1.2815,1.2213,1.2409,1.294,1.3209,1.2795,1.2272,1.1282,1.0071,0.9144,0.8255,0.7776,0.7959,0.7679,0.678,0.6778,0.6074,0.558,0.5967,0.6381,0.7258,0.7957,0.8582,0.9408,0.97,1.0133,1.086,1.165,1.2567,1.34,1.3763,1.3656,1.3245,1.2614,1.2169,1.2105,1.1593,1.1921,1.2538,1.2578,1.2774,1.4109,1.3885,1.4204,1.5182,1.7209,1.9311,2.0966,2.4145,2.6691,2.7938,2.8282,2.8342,2.8477,2.8432,2.8777,2.9973,3.0895,3.1754,3.2298,3.29,3.3416,3.3725,3.4033,3.4396,3.5101,3.6284,3.7456,3.8203,3.9122,3.9849,4.0576,4.0719,4.0646,3.998,3.9249,3.8136,3.7006,3.5926,3.4803,3.4094,3.3817,3.3955,3.408,3.4455,3.4916,3.5606,3.7785,4.0126,4.1859,4.3044,4.4218,4.543,4.6425,4.7048,4.7492,4.8351,4.9392,4.9995,5.0371,5.0836,1.0511,1.1253,1.2311,1.3821,1.544,1.641,1.6992,1.7348,1.7234,1.6782,1.6092,1.4806,1.3776,1.3044,1.2542,1.2954,1.3605,1.4313,1.4206,1.3575,1.2972,1.2029,1.0978,0.9866,0.9066,0.8521,0.8535,0.7851,0.6755,0.688,0.7038,0.618,0.6896,0.7599,0.7763,0.8371,0.9124,0.9435,0.9552,0.9799,1.027,1.1002,1.1765,1.2602,1.283,1.2752,1.255,1.221,1.204,1.2175,1.2119,1.2934,1.3824,1.3479,1.3497,1.4049,1.4579,1.5132,1.5895,1.7542,1.9689,2.181,2.4449,2.6444,2.774,2.837,2.8279,2.7853,2.8107,2.8576,2.8792,3.0272,3.1007,3.13,3.1696,3.2231,3.3026,3.3613,3.4056,3.4882,3.6146,3.7324,3.7855,3.8437,3.9149,3.993,4.0361,4.0299,3.9909,3.9318,3.8592,3.7439,3.6269,3.5135,3.4075,3.3886,3.3886,3.3974,3.4205,3.4413,3.5421,3.7059,3.897,4.0862,4.2979,4.4777,4.5914,4.6908,4.7806,4.8436,4.9384,5.0354,5.0711,5.1091,5.1419,1.0869,1.2331,1.2877,1.438,1.6408,1.7007,1.7299,1.7348,1.7185,1.6803,1.5945,1.4607,1.3587,1.304,1.2101,1.2667,1.3886,1.5025,1.5064,1.4559,1.3554,1.2675,1.1537,1.0161,0.8967,0.8418,0.8434,0.8085,0.6859,0.7949,0.8018,0.7902,0.8365,0.8572,0.8533,0.9039,0.953,0.9563,0.959,0.9693,0.9982,1.0697,1.1389,1.1696,1.1849,1.1734,1.1237,1.1137,1.1015,1.0992,1.1087,1.2615,1.4083,1.4817,1.4846,1.5911,1.6626,1.7049,1.7586,1.9178,2.1015,2.3123,2.5045,2.6773,2.8143,2.8692,2.8249,2.7923,2.8043,2.8685,2.8798,2.9946,3.0481,3.0539,3.1141,3.2034,3.2634,3.3286,3.3834,3.4412,3.5371,3.6312,3.7144,3.7805,3.8555,3.9208,3.9858,3.9861,3.9657,3.9318,3.88,3.7193,3.6025,3.5135,3.4389,3.4426,3.4463,3.4463,3.4487,3.4695,3.5387,3.7205,3.8566,4.0105,4.2321,4.549,4.6184,4.7103,4.821,4.9358,5.0099,5.0796,5.132,5.1704,5.2004,1.1099,1.3272,1.3035,1.4702,1.7216,1.7307,1.721,1.7185,1.7006,1.6617,1.5897,1.4289,1.3196,1.2712,1.2148,1.2168,1.3526,1.5095,1.5683,1.5383,1.4187,1.3217,1.2183,1.0206,0.8327,0.7689,0.8207,0.7974,0.7852,0.8736,0.9203,0.8928,0.9221,0.9351,0.9138,0.9074,0.9409,0.9511,0.9532,0.971,1.0087,1.063,1.1011,1.1005,1.1011,1.0695,1.0252,1.0203,1.0142,1.0236,1.0713,1.2076,1.4991,1.5888,1.7161,1.9146,1.9616,1.9595,1.9961,2.0451,2.192,2.4055,2.5453,2.7065,2.8061,2.8238,2.814,2.8197,2.809,2.8296,2.8394,2.9479,2.9774,2.9898,3.0914,3.2135,3.1886,3.2123,3.2534,3.3334,3.4329,3.5163,3.5868,3.7107,3.777,3.8409,3.9063,3.9414,3.9303,3.9507,3.88,3.6927,3.5613,3.4978,3.4703,3.5092,3.5268,3.5601,3.5793,3.5997,3.6532,3.7379,3.9017,4.1057,4.3945,4.6738,4.7027,4.7501,4.8784,4.9813,5.0572,5.1238,5.1813,5.225,5.2522,1.0576,1.3011,1.2859,1.4401,1.6857,1.6828,1.6682,1.6665,1.6495,1.6097,1.5514,1.3318,1.202,1.1522,1.1493,1.2291,1.3675,1.4939,1.5707,1.5689,1.4637,1.3521,1.2642,1.0678,0.8317,0.7428,0.7781,0.8137,0.8423,0.9349,0.9527,0.9191,0.9228,0.9049,0.8621,0.8895,0.8893,0.9188,0.9197,0.945,0.9878,1.0214,1.028,1.0164,1.0186,1.0136,0.9927,0.9976,1.0019,1.0097,1.1035,1.3099,1.5923,1.7526,1.9811,2.1397,2.1593,2.0517,2.1002,2.1468,2.231,2.4157,2.5107,2.6188,2.6754,2.7004,2.6925,2.7633,2.7148,2.6912,2.7319,2.809,2.8559,2.8876,2.9329,3.013,3.0342,3.1102,3.1442,3.1628,3.2442,3.3483,3.4443,3.5794,3.7034,3.7696,3.8239,3.8549,3.8658,3.8665,3.834,3.6406,3.5555,3.4959,3.5127,3.5536,3.6142,3.6622,3.7005,3.7312,3.8125,3.9067,4.1045,4.3355,4.6006,4.759,4.7866,4.8495,4.9529,5.032,5.11,5.1759,5.2355,5.2762,5.3169,0.9988,1.2128,1.2722,1.4114,1.5996,1.6273,1.6422,1.6365,1.6121,1.5821,1.5233,1.3669,1.2106,1.096,1.0616,1.1448,1.299,1.426,1.5295,1.5443,1.4386,1.3125,1.1502,0.9345,0.7217,0.7544,0.7706,0.8464,0.8945,0.9463,0.9791,0.9547,0.9496,0.9341,0.8626,0.902,0.9183,0.9458,0.9916,1.0535,1.0748,1.0783,1.0531,0.9949,0.9998,0.9981,0.997,0.9981,1.0019,1.0114,1.0699,1.2521,1.516,1.6783,1.8512,2.2077,2.1862,2.1705,2.2322,2.2505,2.3246,2.3707,2.4123,2.3952,2.4828,2.5158,2.533,2.607,2.5911,2.5832,2.6136,2.6912,2.7148,2.7485,2.8089,2.8589,2.9165,2.9883,3.0335,3.0419,3.0532,3.1588,3.2574,3.366,3.5058,3.6331,3.7029,3.7667,3.7473,3.7104,3.6534,3.5673,3.5215,3.5059,3.5519,3.6035,3.6937,3.7557,3.8362,3.8837,3.9877,4.1197,4.3281,4.4736,4.6537,4.7748,4.8495,4.9472,5.0376,5.1045,5.1649,5.2355,5.3025,5.3611,5.4293,0.9541,1.0986,1.1933,1.3383,1.4971,1.5453,1.5873,1.6129,1.5788,1.5569,1.5058,1.3807,1.1934,1.0542,1.0254,1.0854,1.1975,1.307,1.4184,1.4349,1.3732,1.2514,1.089,0.8522,0.7243,0.771,0.7778,0.8225,0.8908,0.974,1.0141,0.9864,0.965,0.9367,0.9259,0.9234,0.9392,0.9888,1.1155,1.1622,1.1458,1.1451,1.0829,1.0286,1.0019,1.0019,1.0019,1.0019,1.0019,1.0041,1.0212,1.189,1.4551,1.5665,1.7521,2.0429,2.1023,2.1392,2.1838,2.2122,2.3232,2.3416,2.3164,2.2751,2.314,2.346,2.3804,2.4639,2.497,2.497,2.5289,2.6056,2.6215,2.6689,2.737,2.7812,2.8132,2.8567,2.8822,2.8762,2.8969,2.9489,3.0447,3.1408,3.2787,3.4631,3.5723,3.6724,3.6598,3.6228,3.5593,3.5059,3.5059,3.5059,3.5401,3.62,3.726,3.8636,3.9384,4.0974,4.2385,4.3773,4.5588,4.6783,4.78,4.869,4.9864,5.0599,5.121,5.1595,5.2085,5.289,5.3605,5.4406,5.5632,0.944,0.9613,1.009,1.1831,1.4149,1.3922,1.462,1.5723,1.5455,1.5325,1.5089,1.3134,1.1653,1.0271,1.0124,1.0313,1.0781,1.203,1.2739,1.3057,1.2942,1.2096,1.0586,0.8945,0.7607,0.7649,0.7639,0.7709,0.8339,0.9908,0.9965,0.9563,0.9241,0.908,0.8929,0.8774,0.9979,1.087,1.2297,1.2463,1.2007,1.164,1.11,1.0297,1.0025,1.0019,1.0019,1.0019,1.0036,1.0041,1.0144,1.1042,1.3394,1.4516,1.6534,1.8503,1.9907,2.0059,2.014,2.0625,2.1383,2.2372,2.2522,2.1625,2.1625,2.2682,2.3175,2.3428,2.408,2.4652,2.497,2.5209,2.5594,2.607,2.6675,2.6936,2.7153,2.7065,2.7254,2.7087,2.7465,2.8178,2.8786,2.9813,3.1622,3.3455,3.5796,3.6871,3.6707,3.6307,3.5437,3.4921,3.4921,3.494,3.5097,3.6006,3.7483,3.9399,4.0825,4.3217,4.5635,4.6989,4.7701,4.893,4.9959,5.0592,5.1127,5.182,5.2202,5.2087,5.2544,5.3762,5.5011,5.6101,5.7393,0.8786,0.8471,0.8598,0.9876,1.205,1.3157,1.4098,1.4937,1.5543,1.5868,1.5809,1.4318,1.2586,1.0939,0.9603,0.9163,0.8998,0.9137,1.0388,1.1207,1.1293,1.0741,0.9622,0.8428,0.7166,0.7495,0.7248,0.7713,0.8997,0.9716,0.9352,0.8897,0.8326,0.7648,0.7505,0.8552,1.0445,1.2462,1.3514,1.3601,1.3405,1.2649,1.1921,1.101,1.0197,1.0025,1.0019,1.0019,1.0063,1.0117,1.0172,1.1207,1.2355,1.3475,1.4969,1.6773,1.7846,1.8246,1.8654,1.9297,2.0343,1.9622,1.9785,1.9785,1.9856,2.0586,2.1636,2.2372,2.344,2.4252,2.4652,2.497,2.5368,2.5753,2.6043,2.6306,2.6475,2.6432,2.6671,2.6926,2.6937,2.7184,2.7777,2.8369,3.0341,3.2473,3.4867,3.6739,3.6449,3.6131,3.5261,3.4646,3.4577,3.4131,3.4149,3.575,3.7637,3.959,4.1656,4.4136,4.6376,4.8518,4.9347,5.0758,5.157,5.1766,5.2179,5.2975,5.3274,5.3188,5.3946,5.5106,5.6392,5.7604,5.8889,0.8527,0.8036,0.7777,0.8609,1.0344,1.2138,1.3568,1.4521,1.5745,1.6334,1.6333,1.5062,1.3466,1.147,0.9332,0.8341,0.7901,0.7612,0.8259,0.8852,0.9021,0.8751,0.8182,0.754,0.6904,0.7332,0.746,0.8006,0.8691,0.913,0.8245,0.7263,0.6689,0.6072,0.6956,0.8545,1.119,1.3213,1.4682,1.4652,1.4452,1.3387,1.2416,1.1409,1.0431,0.9979,0.9958,1.0025,1.0052,1.0117,1.0256,1.0555,1.1462,1.2479,1.358,1.4743,1.5827,1.6683,1.7507,1.8592,1.9134,1.8001,1.8164,1.8164,1.8328,1.9215,2.0667,2.197,2.3027,2.4012,2.4412,2.4731,2.5197,2.5594,2.5911,2.6188,2.64,2.6504,2.6683,2.6868,2.6586,2.5999,2.7095,2.7822,2.9892,3.19,3.4088,3.5519,3.5483,3.5268,3.4997,3.4508,3.4232,3.3593,3.3018,3.4125,3.5351,3.7476,3.984,4.3285,4.5759,4.8094,5.0039,5.0791,5.1544,5.2426,5.3166,5.3798,5.4128,5.4347,5.5407,5.6593,5.7465,5.8644,5.9749,0.8779,0.8424,0.7765,0.8237,0.9521,1.0937,1.2728,1.4526,1.6056,1.6717,1.6557,1.485,1.3246,1.1667,0.9034,0.7611,0.6813,0.6111,0.6266,0.67,0.6848,0.6584,0.6658,0.6577,0.683,0.771,0.775,0.7595,0.7936,0.8021,0.6922,0.5423,0.4846,0.509,0.6509,0.9499,1.1522,1.2697,1.4713,1.4758,1.4112,1.2915,1.1944,1.1021,1.0193,0.9735,0.9604,0.9947,0.9974,1.0095,1.0166,1.03,1.0594,1.2075,1.3132,1.3769,1.5339,1.6192,1.6534,1.7946,1.7736,1.674,1.7251,1.7718,1.8174,1.9215,2.0424,2.1808,2.3027,2.392,2.4332,2.4572,2.5037,2.5251,2.5489,2.5568,2.5686,2.5885,2.595,2.6159,2.5283,2.4701,2.5999,2.7466,2.9514,3.1499,3.346,3.425,3.4235,3.4469,3.4343,3.3853,3.3454,3.2263,3.1571,3.1885,3.3109,3.523,3.7857,4.1184,4.4743,4.7607,4.9247,5.0513,5.146,5.2285,5.3439,5.4512,5.5129,5.5859,5.7042,5.8113,5.8868,5.9637,6.0634,0.8442,0.8025,0.7678,0.7797,0.8567,1.0736,1.2546,1.4213,1.6493,1.7693,1.7082,1.5607,1.2988,1.0689,0.8656,0.6663,0.4648,0.4244,0.4072,0.51,0.5177,0.5797,0.6035,0.6132,0.6622,0.717,0.7262,0.734,0.7702,0.7228,0.6051,0.4619,0.3828,0.4667,0.6563,0.8654,0.9662,1.1824,1.3025,1.3184,1.2801,1.1822,1.084,1.0087,0.9572,0.9164,0.9026,0.9526,0.9907,1.0039,1.0114,1.0152,1.0313,1.1625,1.2414,1.33,1.471,1.544,1.6185,1.7078,1.7011,1.6693,1.6776,1.7469,1.8037,1.9215,2.0505,2.1808,2.3107,2.392,2.4412,2.4504,2.4719,2.4326,2.438,2.4288,2.4356,2.4572,2.4708,2.5046,2.4667,2.5502,2.662,2.7447,2.9229,3.008,3.1722,3.2471,3.2611,3.3498,3.3796,3.309,3.2421,3.0985,3.0176,2.9713,2.9713,3.1149,3.4671,3.869,4.2349,4.6119,4.8811,5.0197,5.1239,5.2254,5.3963,5.5542,5.6568,5.7494,5.8481,5.9122,5.9625,6.04,6.1358,0.8182,0.7733,0.7586,0.7595,0.8105,1.018,1.2175,1.4369,1.7171,1.8157,1.7229,1.5695,1.3204,1.0309,0.7867,0.6123,0.3346,0.2856,0.2856,0.3826,0.391,0.4152,0.4565,0.5371,0.5775,0.6407,0.6472,0.6462,0.6866,0.6048,0.4941,0.391,0.3184,0.4275,0.6032,0.7452,0.8786,1.0876,1.1884,1.2382,1.1771,1.0898,0.9768,0.9202,0.8707,0.813,0.838,0.8883,0.9562,0.9787,0.9988,1.003,1.0303,1.0905,1.1946,1.3188,1.5264,1.6305,1.74,1.8287,1.8452,1.8286,1.7481,1.7906,1.9086,2.0405,2.1335,2.2453,2.3291,2.3752,2.4122,2.4202,2.3985,2.3684,2.3419,2.3338,2.3724,2.3958,2.3745,2.4068,2.4585,2.5737,2.7107,2.7934,2.8984,2.9384,2.9871,3.0526,3.1208,3.2049,3.27,3.1973,3.0943,2.9488,2.7979,2.6702,2.688,2.7348,3.1,3.5278,3.9845,4.355,4.6755,5.0047,5.1516,5.3117,5.5046,5.6521,5.766,5.8617,5.9514,6.0105,6.0403,6.104,6.1834,0.8143,0.7735,0.7566,0.7635,0.8025,0.944,1.1995,1.5368,1.7499,1.7975,1.7247,1.4905,1.2682,1.0678,0.76,0.5462,0.4238,0.3186,0.2859,0.2778,0.2862,0.2706,0.296,0.3778,0.4774,0.5579,0.6047,0.6269,0.6031,0.5294,0.4244,0.3184,0.2856,0.3871,0.5216,0.6566,0.8064,0.9731,1.0759,1.1081,1.0804,0.9623,0.8746,0.8032,0.7319,0.7166,0.7501,0.8238,0.8781,0.9193,0.9521,0.9582,0.9991,1.0585,1.2014,1.4014,1.6702,1.7742,1.8876,1.9628,2.0521,2.0223,1.9435,2.0269,2.1042,2.1568,2.2025,2.2774,2.3546,2.3503,2.3586,2.3505,2.3423,2.3049,2.2699,2.2957,2.3422,2.3454,2.3128,2.3229,2.3568,2.4723,2.6501,2.7644,2.8912,2.9319,2.9769,3.0072,3.0649,3.0835,3.1095,3.0421,2.9341,2.7922,2.614,2.3653,2.303,2.3203,2.7156,3.1374,3.6115,4.12,4.5074,4.8557,5.1682,5.4013,5.6113,5.7617,5.8753,5.9674,6.0285,6.0484,6.0661,6.1305,6.2053,0.7286,0.766,0.7631,0.7693,0.8063,0.9818,1.2648,1.5786,1.6993,1.7519,1.7751,1.4325,1.2216,1.0775,0.7481,0.5488,0.4176,0.3194,0.2623,0.2375,0.2295,0.1886,0.2062,0.2659,0.3758,0.483,0.5628,0.6247,0.6096,0.5185,0.3934,0.2859,0.2692,0.3375,0.4238,0.5354,0.6933,0.8269,0.9226,0.9548,0.9258,0.8072,0.7288,0.6436,0.6139,0.6085,0.6618,0.7451,0.816,0.8965,0.9197,0.9423,0.9851,1.0045,1.0786,1.3213,1.5335,1.6918,1.8739,1.9435,2.0475,2.2129,2.1747,2.1755,2.2245,2.2374,2.2427,2.3028,2.3295,2.3178,2.2778,2.2526,2.2316,2.1871,2.1452,2.1448,2.1834,2.1959,2.1794,2.2543,2.2882,2.414,2.6008,2.802,2.9109,2.9457,2.9823,3.0036,3.0066,3.0162,2.9313,2.8562,2.645,2.4626,2.2109,1.9553,1.9143,1.951,2.3702,2.8268,3.3619,3.8652,4.3301,4.7844,5.2126,5.5054,5.7351,5.861,5.953,6.0084,6.0643,6.0782,6.1,6.1839,6.259,0.7293,0.7907,0.7785,0.7766,0.8122,0.9893,1.2083,1.4041,1.5655,1.6576,1.6395,1.3734,1.1599,0.9825,0.7376,0.5427,0.4031,0.3532,0.2875,0.2132,0.1969,0.1556,0.1565,0.183,0.2602,0.3703,0.4793,0.5521,0.5499,0.4796,0.3532,0.2777,0.2692,0.2964,0.358,0.437,0.5228,0.6502,0.7355,0.7692,0.7237,0.6606,0.5668,0.4893,0.4851,0.507,0.5787,0.6717,0.7526,0.858,0.8903,0.9104,0.9633,0.9913,1.0572,1.297,1.525,1.7032,1.88,2.0294,2.1703,2.2991,2.3466,2.334,2.2909,2.28,2.2758,2.2864,2.2826,2.2609,2.2023,2.1442,2.1009,2.0462,2.0011,1.9564,1.9874,2.0178,2.0881,2.1737,2.2792,2.3878,2.5657,2.7781,2.9426,2.9806,3.0036,3.0176,2.9824,2.926,2.7856,2.641,2.3556,2.0905,1.8243,1.6116,1.5948,1.7093,2.0929,2.571,3.1219,3.7625,4.3606,4.874,5.3416,5.5961,5.8112,5.9152,6.0071,6.0656,6.1545,6.2446,6.2743,6.2921,6.3623,0.797,0.8225,0.7927,0.786,0.8115,0.9447,1.0383,1.1238,1.3709,1.4836,1.4305,1.2866,1.1042,0.9371,0.7421,0.579,0.4623,0.3952,0.3046,0.2053,0.1889,0.1473,0.1051,0.1052,0.1754,0.2545,0.3404,0.4312,0.4442,0.4236,0.387,0.2778,0.2692,0.2795,0.2916,0.354,0.4072,0.4446,0.6007,0.6955,0.6135,0.5413,0.4784,0.3665,0.3465,0.3599,0.5148,0.6041,0.6536,0.7694,0.8449,0.841,0.9388,1.021,1.1205,1.2555,1.4827,1.6726,1.8399,1.9893,2.1959,2.3292,2.4222,2.3672,2.3089,2.2879,2.2874,2.2108,2.1814,2.0993,2.0318,1.9467,1.8907,1.8542,1.811,1.8491,1.9311,2.0013,2.1281,2.1838,2.1998,2.3009,2.3279,2.5235,2.6937,2.8624,2.961,2.961,2.8647,2.7841,2.6022,2.387,2.0397,1.7309,1.4855,1.3127,1.3092,1.4891,1.8536,2.3739,2.9612,3.6881,4.4505,4.9646,5.4543,5.669,5.8647,5.9727,6.0803,6.1444,6.258,6.4184,6.4684,6.4711,6.5271,0.7856,0.8309,0.7998,0.7954,0.8111,0.8725,0.9538,1.0472,1.1333,1.2514,1.3223,1.1877,1.0704,0.9611,0.7696,0.6134,0.5208,0.4374,0.3218,0.231,0.1808,0.1305,0.0706,0.062,0.1063,0.1766,0.2548,0.3223,0.3616,0.4081,0.4052,0.2464,0.2455,0.2629,0.2155,0.2776,0.3226,0.2913,0.4065,0.5093,0.452,0.4134,0.3589,0.3237,0.313,0.3111,0.418,0.4516,0.5104,0.6025,0.686,0.7793,0.9156,1.0017,1.0992,1.2252,1.3766,1.557,1.7188,1.8582,2.0014,2.1683,2.2425,2.2586,2.2635,2.2842,2.2366,2.1337,2.0373,1.9457,1.8399,1.7622,1.6898,1.6577,1.6514,1.7656,1.8848,2.0291,2.1622,2.1764,2.1669,2.1604,2.1713,2.2692,2.4303,2.5729,2.7013,2.716,2.5747,2.461,2.2918,2.0549,1.6829,1.3786,1.1485,1.0386,1.0481,1.269,1.6308,2.1921,2.8412,3.7682,4.6649,5.1179,5.539,5.7265,5.9021,6.0577,6.1545,6.2426,6.3747,6.5477,6.6611,6.6826,6.7564,0.8274,0.8455,0.746,0.7132,0.7248,0.7421,0.7865,0.8483,0.9397,1.0277,1.1047,1.0525,1.0077,0.9616,0.7864,0.6721,0.5879,0.5043,0.398,0.2822,0.1728,0.1136,0.0706,0.0444,0.0709,0.1413,0.2357,0.3028,0.3278,0.3828,0.3715,0.2547,0.2534,0.2375,0.181,0.242,0.2443,0.1601,0.2493,0.2739,0.2879,0.3031,0.3004,0.2906,0.2373,0.2443,0.2774,0.3194,0.378,0.5122,0.6463,0.755,0.8817,0.9662,1.0435,1.1328,1.2486,1.3901,1.5332,1.6495,1.7459,1.9081,2.0458,2.0692,1.9842,1.9903,2.0897,2.0014,1.9219,1.8286,1.68,1.5777,1.5425,1.5174,1.5948,1.7013,1.8815,2.0631,2.1616,2.2018,2.1581,2.0729,2.0919,2.119,2.2585,2.3002,2.4226,2.4739,2.3344,2.1408,1.9698,1.7267,1.3504,1.0896,0.9032,0.8268,0.8146,1.0898,1.4444,2.3186,3.1461,4.0714,4.8769,5.1995,5.497,5.735,5.9096,6.0959,6.2777,6.3922,6.5301,6.6849,6.7818,6.8693,6.931,0.8969,0.859,0.6888,0.6101,0.594,0.6104,0.6275,0.646,0.7932,0.8517,0.8594,0.944,0.9043,0.848,0.8105,0.7322,0.6553,0.5795,0.4738,0.3239,0.2155,0.1649,0.1224,0.088,0.0968,0.1488,0.2509,0.2851,0.3109,0.3739,0.3705,0.2782,0.2533,0.2454,0.2131,0.1972,0.1731,0.1228,0.1322,0.1145,0.1578,0.2357,0.2419,0.1881,0.1271,0.1179,0.1599,0.2017,0.2606,0.412,0.6053,0.7558,0.8562,0.9486,0.9991,1.0864,1.1783,1.2797,1.3623,1.4525,1.5562,1.6785,1.8055,1.8157,1.7255,1.778,1.8758,1.8086,1.7264,1.6475,1.4916,1.3813,1.3548,1.3826,1.4858,1.6617,1.8786,2.0782,2.1589,2.2223,2.147,2.0523,1.9794,2.0064,2.0347,2.0827,2.111,2.148,2.1078,1.869,1.6573,1.3677,1.0105,0.7965,0.6562,0.6573,0.6536,1.0141,1.4802,2.474,3.3853,4.0933,4.6886,5.1121,5.3971,5.7021,5.9458,6.1439,6.3242,6.4999,6.6561,6.7849,6.8601,6.9508,7.0543,0.9017,0.7924,0.7213,0.6357,0.5625,0.6032,0.6475,0.6694,0.7537,0.809,0.8152,0.8252,0.8282,0.8191,0.8101,0.7474,0.6469,0.6134,0.4707,0.2958,0.2908,0.2406,0.1813,0.1393,0.122,0.1819,0.2411,0.2507,0.2757,0.3398,0.314,0.1806,0.2536,0.2455,0.2135,0.1972,0.1805,0.1304,0.122,0.1218,0.1386,0.1814,0.1815,0.154,0.1185,0.0932,0.0848,0.0929,0.1269,0.2624,0.5066,0.7154,0.8412,0.9421,1.0085,1.0597,1.1513,1.1957,1.2623,1.2894,1.3775,1.4674,1.5662,1.5716,1.5555,1.6309,1.6065,1.4166,1.3468,1.3395,1.2202,1.1101,1.0589,1.1652,1.2656,1.605,1.8986,2.066,2.1948,2.2085,2.1735,1.9947,1.779,1.8046,1.8179,1.8403,1.8295,1.8487,1.7383,1.536,1.3368,0.9987,0.657,0.5512,0.436,0.5299,0.6101,0.9724,1.5184,2.4764,3.2929,3.9024,4.4491,4.9421,5.3782,5.7226,5.9481,6.1619,6.3539,6.5345,6.7383,6.8765,6.9417,7.0106,7.0968]}]]